<?xml version="1.0" encoding="UTF-8" standalone="no" ?>
<gpx xmlns="http://www.topografix.com/GPX/1/1" xmlns:xsi="http://www.w3.org/2001/XMLSchema-instance" xsi:schemaLocation="http://www.topografix.com/GPX/1/1 http://www.topografix.com/GPX/1/1/gpx.xsd" version="1.1" creator="VisuGPX - https://www.visugpx.com">
  <metadata>
    <name>Vassieux en Vercors 32km</name>
    <desc><![CDATA[J4 Plateau d'Ambele - fait le 19/09/2024]]></desc>
  </metadata>
  <wpt lat="44.84843" lon="5.37159">
    <ele>1190.1</ele>
    <name><![CDATA[Les Chalets Natures]]></name>
    <type><![CDATA[hotel]]></type>
  </wpt>
  <wpt lat="44.91814" lon="5.30979">
    <ele>1500</ele>
    <type><![CDATA[alarm]]></type>
  </wpt>
  <wpt lat="44.92424" lon="5.30464">
    <ele>1481.4</ele>
    <type><![CDATA[alarm]]></type>
  </wpt>
  <trk>
    <name><![CDATA[2024-09-19 18:15:15]]></name>
    <extensions>
      <line xmlns="http://www.topografix.com/GPX/gpx_style/0/2">
        <color>ff0033</color>
        <width>4</width>
      </line>
    </extensions>
    <trkseg>
      <trkpt lat="44.90591" lon="5.33435">
        <ele>1428.18</ele>
        <time>2024-09-19T07:25:31Z</time>
      </trkpt>
      <trkpt lat="44.90589" lon="5.33438">
        <ele>1427.7</ele>
        <time>2024-09-19T07:26:09Z</time>
      </trkpt>
      <trkpt lat="44.90586" lon="5.33439">
        <ele>1426.25</ele>
        <time>2024-09-19T07:26:25Z</time>
      </trkpt>
      <trkpt lat="44.90587" lon="5.33442">
        <ele>1424.81</ele>
        <time>2024-09-19T07:26:43Z</time>
      </trkpt>
      <trkpt lat="44.90588" lon="5.33443">
        <ele>1424.81</ele>
        <time>2024-09-19T07:26:45Z</time>
      </trkpt>
      <trkpt lat="44.90594" lon="5.33461">
        <ele>1424.81</ele>
        <time>2024-09-19T07:27:02Z</time>
      </trkpt>
      <trkpt lat="44.90597" lon="5.33463">
        <ele>1426.25</ele>
        <time>2024-09-19T07:27:27Z</time>
      </trkpt>
      <trkpt lat="44.90607" lon="5.33479">
        <ele>1428.66</ele>
        <time>2024-09-19T07:27:42Z</time>
      </trkpt>
      <trkpt lat="44.90612" lon="5.3349">
        <ele>1430.1</ele>
        <time>2024-09-19T07:27:57Z</time>
      </trkpt>
      <trkpt lat="44.90632" lon="5.33485">
        <ele>1430.1</ele>
        <time>2024-09-19T07:28:18Z</time>
      </trkpt>
      <trkpt lat="44.90632" lon="5.33484">
        <ele>1429.62</ele>
        <time>2024-09-19T07:28:36Z</time>
      </trkpt>
      <trkpt lat="44.90633" lon="5.33486">
        <ele>1429.62</ele>
        <time>2024-09-19T07:28:49Z</time>
      </trkpt>
      <trkpt lat="44.90635" lon="5.33483">
        <ele>1430.58</ele>
        <time>2024-09-19T07:29:13Z</time>
      </trkpt>
      <trkpt lat="44.90636" lon="5.33486">
        <ele>1430.1</ele>
        <time>2024-09-19T07:29:39Z</time>
      </trkpt>
      <trkpt lat="44.90641" lon="5.33487">
        <ele>1431.06</ele>
        <time>2024-09-19T07:30:03Z</time>
      </trkpt>
      <trkpt lat="44.90642" lon="5.3349">
        <ele>1430.1</ele>
        <time>2024-09-19T07:30:30Z</time>
      </trkpt>
      <trkpt lat="44.90642" lon="5.33492">
        <ele>1432.02</ele>
        <time>2024-09-19T07:30:49Z</time>
      </trkpt>
      <trkpt lat="44.9064" lon="5.33492">
        <ele>1432.5</ele>
        <time>2024-09-19T07:31:09Z</time>
      </trkpt>
      <trkpt lat="44.90637" lon="5.33489">
        <ele>1433.46</ele>
        <time>2024-09-19T07:31:22Z</time>
      </trkpt>
      <trkpt lat="44.90636" lon="5.33482">
        <ele>1436.83</ele>
        <time>2024-09-19T07:31:53Z</time>
      </trkpt>
      <trkpt lat="44.90638" lon="5.33483">
        <ele>1433.46</ele>
        <time>2024-09-19T07:32:20Z</time>
      </trkpt>
      <trkpt lat="44.90633" lon="5.33492">
        <ele>1434.91</ele>
        <time>2024-09-19T07:32:39Z</time>
      </trkpt>
      <trkpt lat="44.90633" lon="5.33491">
        <ele>1434.42</ele>
        <time>2024-09-19T07:33:01Z</time>
      </trkpt>
      <trkpt lat="44.90632" lon="5.33489">
        <ele>1433.94</ele>
        <time>2024-09-19T07:33:15Z</time>
      </trkpt>
      <trkpt lat="44.90635" lon="5.33494">
        <ele>1432.5</ele>
        <time>2024-09-19T07:33:36Z</time>
      </trkpt>
      <trkpt lat="44.90636" lon="5.33496">
        <ele>1433.94</ele>
        <time>2024-09-19T07:34:02Z</time>
      </trkpt>
      <trkpt lat="44.90634" lon="5.33494">
        <ele>1434.42</ele>
        <time>2024-09-19T07:34:23Z</time>
      </trkpt>
      <trkpt lat="44.90635" lon="5.33491">
        <ele>1434.91</ele>
        <time>2024-09-19T07:34:42Z</time>
      </trkpt>
      <trkpt lat="44.90637" lon="5.33487">
        <ele>1433.94</ele>
        <time>2024-09-19T07:35:05Z</time>
      </trkpt>
      <trkpt lat="44.90638" lon="5.3348">
        <ele>1432.5</ele>
        <time>2024-09-19T07:35:34Z</time>
      </trkpt>
      <trkpt lat="44.90632" lon="5.33476">
        <ele>1432.02</ele>
        <time>2024-09-19T07:35:55Z</time>
      </trkpt>
      <trkpt lat="44.90632" lon="5.33473">
        <ele>1435.39</ele>
        <time>2024-09-19T07:36:29Z</time>
      </trkpt>
      <trkpt lat="44.90636" lon="5.33473">
        <ele>1435.87</ele>
        <time>2024-09-19T07:36:49Z</time>
      </trkpt>
      <trkpt lat="44.90636" lon="5.33479">
        <ele>1435.87</ele>
        <time>2024-09-19T07:37:11Z</time>
      </trkpt>
      <trkpt lat="44.90632" lon="5.33483">
        <ele>1436.35</ele>
        <time>2024-09-19T07:37:27Z</time>
      </trkpt>
      <trkpt lat="44.9063" lon="5.33492">
        <ele>1436.83</ele>
        <time>2024-09-19T07:37:44Z</time>
      </trkpt>
      <trkpt lat="44.90629" lon="5.33495">
        <ele>1437.31</ele>
        <time>2024-09-19T07:38:01Z</time>
      </trkpt>
      <trkpt lat="44.9063" lon="5.33495">
        <ele>1436.35</ele>
        <time>2024-09-19T07:38:24Z</time>
      </trkpt>
      <trkpt lat="44.90628" lon="5.33496">
        <ele>1439.71</ele>
        <time>2024-09-19T07:38:55Z</time>
      </trkpt>
      <trkpt lat="44.90631" lon="5.3349">
        <ele>1442.6</ele>
        <time>2024-09-19T07:39:15Z</time>
      </trkpt>
      <trkpt lat="44.90626" lon="5.3349">
        <ele>1439.23</ele>
        <time>2024-09-19T07:39:31Z</time>
      </trkpt>
      <trkpt lat="44.90625" lon="5.33491">
        <ele>1439.23</ele>
        <time>2024-09-19T07:39:32Z</time>
      </trkpt>
      <trkpt lat="44.90608" lon="5.33496">
        <ele>1432.98</ele>
        <time>2024-09-19T07:39:49Z</time>
      </trkpt>
      <trkpt lat="44.90606" lon="5.3349">
        <ele>1431.54</ele>
        <time>2024-09-19T07:39:54Z</time>
      </trkpt>
      <trkpt lat="44.90603" lon="5.3347">
        <ele>1428.18</ele>
        <time>2024-09-19T07:40:08Z</time>
      </trkpt>
      <trkpt lat="44.906" lon="5.33463">
        <ele>1427.21</ele>
        <time>2024-09-19T07:40:13Z</time>
      </trkpt>
      <trkpt lat="44.90586" lon="5.33442">
        <ele>1425.77</ele>
        <time>2024-09-19T07:40:30Z</time>
      </trkpt>
      <trkpt lat="44.90574" lon="5.33415">
        <ele>1426.25</ele>
        <time>2024-09-19T07:40:49Z</time>
      </trkpt>
      <trkpt lat="44.90573" lon="5.33395">
        <ele>1421.93</ele>
        <time>2024-09-19T07:41:07Z</time>
      </trkpt>
      <trkpt lat="44.90571" lon="5.33371">
        <ele>1415.68</ele>
        <time>2024-09-19T07:41:27Z</time>
      </trkpt>
      <trkpt lat="44.90572" lon="5.33352">
        <ele>1412.79</ele>
        <time>2024-09-19T07:41:42Z</time>
      </trkpt>
      <trkpt lat="44.9057" lon="5.33332">
        <ele>1409.43</ele>
        <time>2024-09-19T07:41:58Z</time>
      </trkpt>
      <trkpt lat="44.90562" lon="5.33312">
        <ele>1408.47</ele>
        <time>2024-09-19T07:42:18Z</time>
      </trkpt>
      <trkpt lat="44.90566" lon="5.33301">
        <ele>1418.08</ele>
        <time>2024-09-19T07:42:40Z</time>
      </trkpt>
      <trkpt lat="44.90564" lon="5.33301">
        <ele>1418.56</ele>
        <time>2024-09-19T07:43:03Z</time>
      </trkpt>
      <trkpt lat="44.90561" lon="5.333">
        <ele>1418.08</ele>
        <time>2024-09-19T07:43:06Z</time>
      </trkpt>
      <trkpt lat="44.90546" lon="5.33296">
        <ele>1415.2</ele>
        <time>2024-09-19T07:43:21Z</time>
      </trkpt>
      <trkpt lat="44.9053" lon="5.3329">
        <ele>1412.79</ele>
        <time>2024-09-19T07:43:39Z</time>
      </trkpt>
      <trkpt lat="44.90523" lon="5.33284">
        <ele>1414.24</ele>
        <time>2024-09-19T07:43:57Z</time>
      </trkpt>
      <trkpt lat="44.90517" lon="5.33279">
        <ele>1414.72</ele>
        <time>2024-09-19T07:44:12Z</time>
      </trkpt>
      <trkpt lat="44.90512" lon="5.33273">
        <ele>1415.68</ele>
        <time>2024-09-19T07:44:19Z</time>
      </trkpt>
      <trkpt lat="44.90494" lon="5.33253">
        <ele>1421.93</ele>
        <time>2024-09-19T07:44:39Z</time>
      </trkpt>
      <trkpt lat="44.90486" lon="5.3324">
        <ele>1424.81</ele>
        <time>2024-09-19T07:44:56Z</time>
      </trkpt>
      <trkpt lat="44.90481" lon="5.3323">
        <ele>1424.33</ele>
        <time>2024-09-19T07:45:14Z</time>
      </trkpt>
      <trkpt lat="44.9048" lon="5.33219">
        <ele>1423.85</ele>
        <time>2024-09-19T07:45:30Z</time>
      </trkpt>
      <trkpt lat="44.90481" lon="5.33222">
        <ele>1423.85</ele>
        <time>2024-09-19T07:45:43Z</time>
      </trkpt>
      <trkpt lat="44.90479" lon="5.33225">
        <ele>1423.37</ele>
        <time>2024-09-19T07:45:57Z</time>
      </trkpt>
      <trkpt lat="44.90481" lon="5.33222">
        <ele>1425.29</ele>
        <time>2024-09-19T07:46:21Z</time>
      </trkpt>
      <trkpt lat="44.90474" lon="5.33203">
        <ele>1429.62</ele>
        <time>2024-09-19T07:46:40Z</time>
      </trkpt>
      <trkpt lat="44.90472" lon="5.33195">
        <ele>1432.02</ele>
        <time>2024-09-19T07:46:54Z</time>
      </trkpt>
      <trkpt lat="44.90475" lon="5.33172">
        <ele>1429.14</ele>
        <time>2024-09-19T07:47:09Z</time>
      </trkpt>
      <trkpt lat="44.90468" lon="5.33163">
        <ele>1424.81</ele>
        <time>2024-09-19T07:47:26Z</time>
      </trkpt>
      <trkpt lat="44.90459" lon="5.33169">
        <ele>1425.29</ele>
        <time>2024-09-19T07:47:35Z</time>
      </trkpt>
      <trkpt lat="44.90449" lon="5.33173">
        <ele>1428.18</ele>
        <time>2024-09-19T07:47:47Z</time>
      </trkpt>
      <trkpt lat="44.90442" lon="5.33148">
        <ele>1429.14</ele>
        <time>2024-09-19T07:48:04Z</time>
      </trkpt>
      <trkpt lat="44.90446" lon="5.33128">
        <ele>1426.73</ele>
        <time>2024-09-19T07:48:19Z</time>
      </trkpt>
      <trkpt lat="44.90447" lon="5.33114">
        <ele>1425.29</ele>
        <time>2024-09-19T07:48:33Z</time>
      </trkpt>
      <trkpt lat="44.90457" lon="5.33085">
        <ele>1424.33</ele>
        <time>2024-09-19T07:48:53Z</time>
      </trkpt>
      <trkpt lat="44.90459" lon="5.33062">
        <ele>1421.93</ele>
        <time>2024-09-19T07:49:09Z</time>
      </trkpt>
      <trkpt lat="44.90464" lon="5.33045">
        <ele>1417.6</ele>
        <time>2024-09-19T07:49:28Z</time>
      </trkpt>
      <trkpt lat="44.90469" lon="5.33026">
        <ele>1412.79</ele>
        <time>2024-09-19T07:49:47Z</time>
      </trkpt>
      <trkpt lat="44.90474" lon="5.33016">
        <ele>1410.87</ele>
        <time>2024-09-19T07:49:54Z</time>
      </trkpt>
      <trkpt lat="44.9049" lon="5.33006">
        <ele>1407.51</ele>
        <time>2024-09-19T07:50:12Z</time>
      </trkpt>
      <trkpt lat="44.90503" lon="5.33004">
        <ele>1400.78</ele>
        <time>2024-09-19T07:50:30Z</time>
      </trkpt>
      <trkpt lat="44.90513" lon="5.33008">
        <ele>1395.49</ele>
        <time>2024-09-19T07:50:48Z</time>
      </trkpt>
      <trkpt lat="44.9053" lon="5.33013">
        <ele>1390.68</ele>
        <time>2024-09-19T07:51:08Z</time>
      </trkpt>
      <trkpt lat="44.90542" lon="5.33011">
        <ele>1389.72</ele>
        <time>2024-09-19T07:51:25Z</time>
      </trkpt>
      <trkpt lat="44.90548" lon="5.33015">
        <ele>1389.24</ele>
        <time>2024-09-19T07:51:38Z</time>
      </trkpt>
      <trkpt lat="44.90576" lon="5.33026">
        <ele>1386.84</ele>
        <time>2024-09-19T07:51:57Z</time>
      </trkpt>
      <trkpt lat="44.90607" lon="5.33031">
        <ele>1384.92</ele>
        <time>2024-09-19T07:52:11Z</time>
      </trkpt>
      <trkpt lat="44.9064" lon="5.3303">
        <ele>1394.05</ele>
        <time>2024-09-19T07:52:27Z</time>
      </trkpt>
      <trkpt lat="44.90642" lon="5.33028">
        <ele>1394.53</ele>
        <time>2024-09-19T07:52:29Z</time>
      </trkpt>
      <trkpt lat="44.90648" lon="5.32993">
        <ele>1398.86</ele>
        <time>2024-09-19T07:52:45Z</time>
      </trkpt>
      <trkpt lat="44.90652" lon="5.32958">
        <ele>1403.66</ele>
        <time>2024-09-19T07:52:58Z</time>
      </trkpt>
      <trkpt lat="44.90658" lon="5.32932">
        <ele>1406.55</ele>
        <time>2024-09-19T07:53:12Z</time>
      </trkpt>
      <trkpt lat="44.90667" lon="5.32901">
        <ele>1406.07</ele>
        <time>2024-09-19T07:53:29Z</time>
      </trkpt>
      <trkpt lat="44.90674" lon="5.3288">
        <ele>1404.14</ele>
        <time>2024-09-19T07:53:37Z</time>
      </trkpt>
      <trkpt lat="44.9069" lon="5.32843">
        <ele>1397.89</ele>
        <time>2024-09-19T07:53:53Z</time>
      </trkpt>
      <trkpt lat="44.90685" lon="5.32829">
        <ele>1396.45</ele>
        <time>2024-09-19T07:54:02Z</time>
      </trkpt>
      <trkpt lat="44.90666" lon="5.32815">
        <ele>1394.05</ele>
        <time>2024-09-19T07:54:19Z</time>
      </trkpt>
      <trkpt lat="44.9065" lon="5.32801">
        <ele>1390.2</ele>
        <time>2024-09-19T07:54:36Z</time>
      </trkpt>
      <trkpt lat="44.90626" lon="5.32791">
        <ele>1390.68</ele>
        <time>2024-09-19T07:54:52Z</time>
      </trkpt>
      <trkpt lat="44.90616" lon="5.32787">
        <ele>1391.65</ele>
        <time>2024-09-19T07:55:00Z</time>
      </trkpt>
      <trkpt lat="44.90595" lon="5.3278">
        <ele>1391.17</ele>
        <time>2024-09-19T07:55:13Z</time>
      </trkpt>
      <trkpt lat="44.9057" lon="5.3278">
        <ele>1392.61</ele>
        <time>2024-09-19T07:55:28Z</time>
      </trkpt>
      <trkpt lat="44.90552" lon="5.32779">
        <ele>1394.05</ele>
        <time>2024-09-19T07:55:41Z</time>
      </trkpt>
      <trkpt lat="44.90523" lon="5.32773">
        <ele>1394.53</ele>
        <time>2024-09-19T07:55:55Z</time>
      </trkpt>
      <trkpt lat="44.90499" lon="5.32742">
        <ele>1395.97</ele>
        <time>2024-09-19T07:56:16Z</time>
      </trkpt>
      <trkpt lat="44.90481" lon="5.32718">
        <ele>1398.37</ele>
        <time>2024-09-19T07:56:31Z</time>
      </trkpt>
      <trkpt lat="44.90467" lon="5.32701">
        <ele>1400.78</ele>
        <time>2024-09-19T07:56:43Z</time>
      </trkpt>
      <trkpt lat="44.90443" lon="5.32679">
        <ele>1403.18</ele>
        <time>2024-09-19T07:57:04Z</time>
      </trkpt>
      <trkpt lat="44.90417" lon="5.32657">
        <ele>1407.99</ele>
        <time>2024-09-19T07:57:25Z</time>
      </trkpt>
      <trkpt lat="44.90398" lon="5.3263">
        <ele>1410.39</ele>
        <time>2024-09-19T07:57:42Z</time>
      </trkpt>
      <trkpt lat="44.90382" lon="5.32608">
        <ele>1411.83</ele>
        <time>2024-09-19T07:57:55Z</time>
      </trkpt>
      <trkpt lat="44.90358" lon="5.32599">
        <ele>1414.24</ele>
        <time>2024-09-19T07:58:09Z</time>
      </trkpt>
      <trkpt lat="44.90332" lon="5.32598">
        <ele>1416.64</ele>
        <time>2024-09-19T07:58:25Z</time>
      </trkpt>
      <trkpt lat="44.90308" lon="5.32591">
        <ele>1421.45</ele>
        <time>2024-09-19T07:58:43Z</time>
      </trkpt>
      <trkpt lat="44.90287" lon="5.32584">
        <ele>1424.33</ele>
        <time>2024-09-19T07:58:56Z</time>
      </trkpt>
      <trkpt lat="44.90258" lon="5.32574">
        <ele>1428.18</ele>
        <time>2024-09-19T07:59:17Z</time>
      </trkpt>
      <trkpt lat="44.90231" lon="5.32565">
        <ele>1432.02</ele>
        <time>2024-09-19T07:59:35Z</time>
      </trkpt>
      <trkpt lat="44.90208" lon="5.32558">
        <ele>1435.87</ele>
        <time>2024-09-19T07:59:50Z</time>
      </trkpt>
      <trkpt lat="44.90186" lon="5.32551">
        <ele>1440.67</ele>
        <time>2024-09-19T08:00:07Z</time>
      </trkpt>
      <trkpt lat="44.90167" lon="5.32544">
        <ele>1442.11</ele>
        <time>2024-09-19T08:00:21Z</time>
      </trkpt>
      <trkpt lat="44.90144" lon="5.32555">
        <ele>1442.11</ele>
        <time>2024-09-19T08:00:35Z</time>
      </trkpt>
      <trkpt lat="44.9013" lon="5.32557">
        <ele>1441.15</ele>
        <time>2024-09-19T08:00:44Z</time>
      </trkpt>
      <trkpt lat="44.90129" lon="5.32556">
        <ele>1441.63</ele>
        <time>2024-09-19T08:00:45Z</time>
      </trkpt>
      <trkpt lat="44.90127" lon="5.32556">
        <ele>1442.11</ele>
        <time>2024-09-19T08:00:46Z</time>
      </trkpt>
      <trkpt lat="44.90126" lon="5.32556">
        <ele>1442.6</ele>
        <time>2024-09-19T08:00:47Z</time>
      </trkpt>
      <trkpt lat="44.90123" lon="5.32555">
        <ele>1442.6</ele>
        <time>2024-09-19T08:00:48Z</time>
      </trkpt>
      <trkpt lat="44.90121" lon="5.32555">
        <ele>1443.08</ele>
        <time>2024-09-19T08:00:49Z</time>
      </trkpt>
      <trkpt lat="44.90119" lon="5.32554">
        <ele>1443.08</ele>
        <time>2024-09-19T08:00:50Z</time>
      </trkpt>
      <trkpt lat="44.90098" lon="5.32544">
        <ele>1445.96</ele>
        <time>2024-09-19T08:01:07Z</time>
      </trkpt>
      <trkpt lat="44.9008" lon="5.32529">
        <ele>1445</ele>
        <time>2024-09-19T08:01:19Z</time>
      </trkpt>
      <trkpt lat="44.90072" lon="5.3252">
        <ele>1446.44</ele>
        <time>2024-09-19T08:01:29Z</time>
      </trkpt>
      <trkpt lat="44.90073" lon="5.32502">
        <ele>1448.36</ele>
        <time>2024-09-19T08:01:40Z</time>
      </trkpt>
      <trkpt lat="44.90069" lon="5.32478">
        <ele>1446.92</ele>
        <time>2024-09-19T08:01:53Z</time>
      </trkpt>
      <trkpt lat="44.90062" lon="5.32434">
        <ele>1446.92</ele>
        <time>2024-09-19T08:02:07Z</time>
      </trkpt>
      <trkpt lat="44.90057" lon="5.32399">
        <ele>1447.88</ele>
        <time>2024-09-19T08:02:23Z</time>
      </trkpt>
      <trkpt lat="44.90053" lon="5.32366">
        <ele>1447.4</ele>
        <time>2024-09-19T08:02:38Z</time>
      </trkpt>
      <trkpt lat="44.90033" lon="5.32342">
        <ele>1447.4</ele>
        <time>2024-09-19T08:02:55Z</time>
      </trkpt>
      <trkpt lat="44.90021" lon="5.32331">
        <ele>1446.92</ele>
        <time>2024-09-19T08:03:01Z</time>
      </trkpt>
      <trkpt lat="44.90002" lon="5.32313">
        <ele>1445</ele>
        <time>2024-09-19T08:03:17Z</time>
      </trkpt>
      <trkpt lat="44.89974" lon="5.32302">
        <ele>1442.11</ele>
        <time>2024-09-19T08:03:33Z</time>
      </trkpt>
      <trkpt lat="44.89953" lon="5.32301">
        <ele>1440.67</ele>
        <time>2024-09-19T08:03:47Z</time>
      </trkpt>
      <trkpt lat="44.89944" lon="5.32278">
        <ele>1438.75</ele>
        <time>2024-09-19T08:03:58Z</time>
      </trkpt>
      <trkpt lat="44.89939" lon="5.3225">
        <ele>1439.71</ele>
        <time>2024-09-19T08:04:13Z</time>
      </trkpt>
      <trkpt lat="44.89938" lon="5.32249">
        <ele>1440.19</ele>
        <time>2024-09-19T08:04:14Z</time>
      </trkpt>
      <trkpt lat="44.89915" lon="5.32258">
        <ele>1440.67</ele>
        <time>2024-09-19T08:04:28Z</time>
      </trkpt>
      <trkpt lat="44.89891" lon="5.32258">
        <ele>1441.63</ele>
        <time>2024-09-19T08:04:44Z</time>
      </trkpt>
      <trkpt lat="44.89865" lon="5.32249">
        <ele>1442.11</ele>
        <time>2024-09-19T08:04:59Z</time>
      </trkpt>
      <trkpt lat="44.89847" lon="5.32226">
        <ele>1443.56</ele>
        <time>2024-09-19T08:05:17Z</time>
      </trkpt>
      <trkpt lat="44.89832" lon="5.32196">
        <ele>1444.04</ele>
        <time>2024-09-19T08:05:32Z</time>
      </trkpt>
      <trkpt lat="44.89822" lon="5.32173">
        <ele>1444.04</ele>
        <time>2024-09-19T08:05:45Z</time>
      </trkpt>
      <trkpt lat="44.8982" lon="5.32152">
        <ele>1445.96</ele>
        <time>2024-09-19T08:05:57Z</time>
      </trkpt>
      <trkpt lat="44.89815" lon="5.32123">
        <ele>1447.4</ele>
        <time>2024-09-19T08:06:09Z</time>
      </trkpt>
      <trkpt lat="44.89808" lon="5.32097">
        <ele>1448.36</ele>
        <time>2024-09-19T08:06:23Z</time>
      </trkpt>
      <trkpt lat="44.89811" lon="5.32068">
        <ele>1448.36</ele>
        <time>2024-09-19T08:06:38Z</time>
      </trkpt>
      <trkpt lat="44.89813" lon="5.32058">
        <ele>1448.36</ele>
        <time>2024-09-19T08:06:44Z</time>
      </trkpt>
      <trkpt lat="44.89813" lon="5.32056">
        <ele>1448.36</ele>
        <time>2024-09-19T08:06:45Z</time>
      </trkpt>
      <trkpt lat="44.89812" lon="5.32055">
        <ele>1448.36</ele>
        <time>2024-09-19T08:06:46Z</time>
      </trkpt>
      <trkpt lat="44.89812" lon="5.32053">
        <ele>1448.36</ele>
        <time>2024-09-19T08:06:47Z</time>
      </trkpt>
      <trkpt lat="44.89811" lon="5.32051">
        <ele>1448.36</ele>
        <time>2024-09-19T08:06:48Z</time>
      </trkpt>
      <trkpt lat="44.89811" lon="5.3205">
        <ele>1448.36</ele>
        <time>2024-09-19T08:06:49Z</time>
      </trkpt>
      <trkpt lat="44.89811" lon="5.32048">
        <ele>1448.36</ele>
        <time>2024-09-19T08:06:50Z</time>
      </trkpt>
      <trkpt lat="44.89803" lon="5.32035">
        <ele>1447.88</ele>
        <time>2024-09-19T08:07:00Z</time>
      </trkpt>
      <trkpt lat="44.89802" lon="5.32033">
        <ele>1447.88</ele>
        <time>2024-09-19T08:07:01Z</time>
      </trkpt>
      <trkpt lat="44.89802" lon="5.32031">
        <ele>1447.88</ele>
        <time>2024-09-19T08:07:02Z</time>
      </trkpt>
      <trkpt lat="44.89803" lon="5.32029">
        <ele>1448.36</ele>
        <time>2024-09-19T08:07:03Z</time>
      </trkpt>
      <trkpt lat="44.89804" lon="5.32027">
        <ele>1448.36</ele>
        <time>2024-09-19T08:07:04Z</time>
      </trkpt>
      <trkpt lat="44.89805" lon="5.32025">
        <ele>1448.36</ele>
        <time>2024-09-19T08:07:05Z</time>
      </trkpt>
      <trkpt lat="44.89807" lon="5.32023">
        <ele>1448.36</ele>
        <time>2024-09-19T08:07:06Z</time>
      </trkpt>
      <trkpt lat="44.89812" lon="5.32011">
        <ele>1449.32</ele>
        <time>2024-09-19T08:07:20Z</time>
      </trkpt>
      <trkpt lat="44.89813" lon="5.32009">
        <ele>1449.81</ele>
        <time>2024-09-19T08:07:33Z</time>
      </trkpt>
      <trkpt lat="44.89811" lon="5.32011">
        <ele>1449.32</ele>
        <time>2024-09-19T08:07:47Z</time>
      </trkpt>
      <trkpt lat="44.89807" lon="5.32011">
        <ele>1443.56</ele>
        <time>2024-09-19T08:08:01Z</time>
      </trkpt>
      <trkpt lat="44.89807" lon="5.32009">
        <ele>1442.6</ele>
        <time>2024-09-19T08:08:16Z</time>
      </trkpt>
      <trkpt lat="44.89807" lon="5.32014">
        <ele>1443.08</ele>
        <time>2024-09-19T08:08:30Z</time>
      </trkpt>
      <trkpt lat="44.89807" lon="5.32012">
        <ele>1444.04</ele>
        <time>2024-09-19T08:08:44Z</time>
      </trkpt>
      <trkpt lat="44.89813" lon="5.32007">
        <ele>1441.15</ele>
        <time>2024-09-19T08:09:13Z</time>
      </trkpt>
      <trkpt lat="44.89807" lon="5.32015">
        <ele>1442.11</ele>
        <time>2024-09-19T08:09:48Z</time>
      </trkpt>
      <trkpt lat="44.89809" lon="5.3201">
        <ele>1442.11</ele>
        <time>2024-09-19T08:10:16Z</time>
      </trkpt>
      <trkpt lat="44.89806" lon="5.32007">
        <ele>1449.32</ele>
        <time>2024-09-19T08:10:50Z</time>
      </trkpt>
      <trkpt lat="44.89806" lon="5.3201">
        <ele>1448.84</ele>
        <time>2024-09-19T08:11:18Z</time>
      </trkpt>
      <trkpt lat="44.89809" lon="5.32012">
        <ele>1446.44</ele>
        <time>2024-09-19T08:11:36Z</time>
      </trkpt>
      <trkpt lat="44.89806" lon="5.32016">
        <ele>1446.92</ele>
        <time>2024-09-19T08:11:51Z</time>
      </trkpt>
      <trkpt lat="44.89805" lon="5.32017">
        <ele>1446.92</ele>
        <time>2024-09-19T08:11:52Z</time>
      </trkpt>
      <trkpt lat="44.89801" lon="5.32031">
        <ele>1444.52</ele>
        <time>2024-09-19T08:12:04Z</time>
      </trkpt>
      <trkpt lat="44.89808" lon="5.3205">
        <ele>1441.63</ele>
        <time>2024-09-19T08:12:16Z</time>
      </trkpt>
      <trkpt lat="44.89809" lon="5.3205">
        <ele>1441.63</ele>
        <time>2024-09-19T08:12:17Z</time>
      </trkpt>
      <trkpt lat="44.8983" lon="5.32048">
        <ele>1444.04</ele>
        <time>2024-09-19T08:12:32Z</time>
      </trkpt>
      <trkpt lat="44.89848" lon="5.32038">
        <ele>1444.04</ele>
        <time>2024-09-19T08:12:47Z</time>
      </trkpt>
      <trkpt lat="44.89874" lon="5.32033">
        <ele>1444.52</ele>
        <time>2024-09-19T08:13:01Z</time>
      </trkpt>
      <trkpt lat="44.899" lon="5.32026">
        <ele>1445.96</ele>
        <time>2024-09-19T08:13:20Z</time>
      </trkpt>
      <trkpt lat="44.89924" lon="5.32035">
        <ele>1446.92</ele>
        <time>2024-09-19T08:13:34Z</time>
      </trkpt>
      <trkpt lat="44.89951" lon="5.32035">
        <ele>1445</ele>
        <time>2024-09-19T08:13:52Z</time>
      </trkpt>
      <trkpt lat="44.89974" lon="5.32042">
        <ele>1442.6</ele>
        <time>2024-09-19T08:14:09Z</time>
      </trkpt>
      <trkpt lat="44.89974" lon="5.32043">
        <ele>1441.63</ele>
        <time>2024-09-19T08:14:24Z</time>
      </trkpt>
      <trkpt lat="44.89977" lon="5.32046">
        <ele>1442.11</ele>
        <time>2024-09-19T08:14:29Z</time>
      </trkpt>
      <trkpt lat="44.89974" lon="5.32041">
        <ele>1441.63</ele>
        <time>2024-09-19T08:14:44Z</time>
      </trkpt>
      <trkpt lat="44.89975" lon="5.32035">
        <ele>1441.63</ele>
        <time>2024-09-19T08:14:50Z</time>
      </trkpt>
      <trkpt lat="44.89977" lon="5.32035">
        <ele>1441.63</ele>
        <time>2024-09-19T08:14:51Z</time>
      </trkpt>
      <trkpt lat="44.89978" lon="5.32035">
        <ele>1441.63</ele>
        <time>2024-09-19T08:14:52Z</time>
      </trkpt>
      <trkpt lat="44.89979" lon="5.32035">
        <ele>1441.63</ele>
        <time>2024-09-19T08:14:53Z</time>
      </trkpt>
      <trkpt lat="44.89981" lon="5.32036">
        <ele>1441.63</ele>
        <time>2024-09-19T08:14:54Z</time>
      </trkpt>
      <trkpt lat="44.89993" lon="5.32043">
        <ele>1442.6</ele>
        <time>2024-09-19T08:15:07Z</time>
      </trkpt>
      <trkpt lat="44.89992" lon="5.32044">
        <ele>1444.04</ele>
        <time>2024-09-19T08:15:27Z</time>
      </trkpt>
      <trkpt lat="44.89993" lon="5.32045">
        <ele>1445.48</ele>
        <time>2024-09-19T08:15:44Z</time>
      </trkpt>
      <trkpt lat="44.90002" lon="5.32055">
        <ele>1446.44</ele>
        <time>2024-09-19T08:15:58Z</time>
      </trkpt>
      <trkpt lat="44.90013" lon="5.32067">
        <ele>1449.32</ele>
        <time>2024-09-19T08:16:09Z</time>
      </trkpt>
      <trkpt lat="44.90015" lon="5.32068">
        <ele>1449.81</ele>
        <time>2024-09-19T08:16:10Z</time>
      </trkpt>
      <trkpt lat="44.90034" lon="5.32089">
        <ele>1453.65</ele>
        <time>2024-09-19T08:16:26Z</time>
      </trkpt>
      <trkpt lat="44.90047" lon="5.32102">
        <ele>1457.98</ele>
        <time>2024-09-19T08:16:38Z</time>
      </trkpt>
      <trkpt lat="44.90049" lon="5.32107">
        <ele>1461.34</ele>
        <time>2024-09-19T08:16:54Z</time>
      </trkpt>
      <trkpt lat="44.90052" lon="5.32115">
        <ele>1460.86</ele>
        <time>2024-09-19T08:17:08Z</time>
      </trkpt>
      <trkpt lat="44.90054" lon="5.32116">
        <ele>1456.53</ele>
        <time>2024-09-19T08:17:37Z</time>
      </trkpt>
      <trkpt lat="44.90056" lon="5.32114">
        <ele>1457.5</ele>
        <time>2024-09-19T08:17:45Z</time>
      </trkpt>
      <trkpt lat="44.90057" lon="5.32114">
        <ele>1457.5</ele>
        <time>2024-09-19T08:17:46Z</time>
      </trkpt>
      <trkpt lat="44.90059" lon="5.32115">
        <ele>1457.5</ele>
        <time>2024-09-19T08:17:47Z</time>
      </trkpt>
      <trkpt lat="44.90069" lon="5.32125">
        <ele>1460.38</ele>
        <time>2024-09-19T08:18:02Z</time>
      </trkpt>
      <trkpt lat="44.90069" lon="5.32125">
        <ele>1460.38</ele>
        <time>2024-09-19T08:18:19Z</time>
      </trkpt>
      <trkpt lat="44.90069" lon="5.32124">
        <ele>1460.38</ele>
        <time>2024-09-19T08:18:20Z</time>
      </trkpt>
      <trkpt lat="44.90072" lon="5.32112">
        <ele>1458.94</ele>
        <time>2024-09-19T08:18:27Z</time>
      </trkpt>
      <trkpt lat="44.90077" lon="5.32104">
        <ele>1458.46</ele>
        <time>2024-09-19T08:18:34Z</time>
      </trkpt>
      <trkpt lat="44.90088" lon="5.32077">
        <ele>1463.26</ele>
        <time>2024-09-19T08:18:53Z</time>
      </trkpt>
      <trkpt lat="44.90091" lon="5.32072">
        <ele>1465.19</ele>
        <time>2024-09-19T08:18:58Z</time>
      </trkpt>
      <trkpt lat="44.90088" lon="5.32047">
        <ele>1469.99</ele>
        <time>2024-09-19T08:19:15Z</time>
      </trkpt>
      <trkpt lat="44.90088" lon="5.3204">
        <ele>1470.95</ele>
        <time>2024-09-19T08:19:20Z</time>
      </trkpt>
      <trkpt lat="44.90086" lon="5.32011">
        <ele>1474.32</ele>
        <time>2024-09-19T08:19:38Z</time>
      </trkpt>
      <trkpt lat="44.90092" lon="5.31989">
        <ele>1478.16</ele>
        <time>2024-09-19T08:19:54Z</time>
      </trkpt>
      <trkpt lat="44.90084" lon="5.31962">
        <ele>1480.57</ele>
        <time>2024-09-19T08:20:10Z</time>
      </trkpt>
      <trkpt lat="44.90084" lon="5.31929">
        <ele>1482.49</ele>
        <time>2024-09-19T08:20:29Z</time>
      </trkpt>
      <trkpt lat="44.9008" lon="5.31901">
        <ele>1484.89</ele>
        <time>2024-09-19T08:20:46Z</time>
      </trkpt>
      <trkpt lat="44.90073" lon="5.31878">
        <ele>1486.34</ele>
        <time>2024-09-19T08:20:59Z</time>
      </trkpt>
      <trkpt lat="44.90065" lon="5.3185">
        <ele>1488.74</ele>
        <time>2024-09-19T08:21:16Z</time>
      </trkpt>
      <trkpt lat="44.90056" lon="5.31817">
        <ele>1494.99</ele>
        <time>2024-09-19T08:21:35Z</time>
      </trkpt>
      <trkpt lat="44.90051" lon="5.31792">
        <ele>1499.79</ele>
        <time>2024-09-19T08:21:51Z</time>
      </trkpt>
      <trkpt lat="44.90042" lon="5.31761">
        <ele>1507.48</ele>
        <time>2024-09-19T08:22:12Z</time>
      </trkpt>
      <trkpt lat="44.90031" lon="5.31727">
        <ele>1513.25</ele>
        <time>2024-09-19T08:22:31Z</time>
      </trkpt>
      <trkpt lat="44.9002" lon="5.31705">
        <ele>1520.94</ele>
        <time>2024-09-19T08:22:50Z</time>
      </trkpt>
      <trkpt lat="44.90018" lon="5.317">
        <ele>1521.42</ele>
        <time>2024-09-19T08:22:54Z</time>
      </trkpt>
      <trkpt lat="44.90018" lon="5.31698">
        <ele>1521.9</ele>
        <time>2024-09-19T08:22:55Z</time>
      </trkpt>
      <trkpt lat="44.90018" lon="5.31697">
        <ele>1522.39</ele>
        <time>2024-09-19T08:22:56Z</time>
      </trkpt>
      <trkpt lat="44.90018" lon="5.31695">
        <ele>1522.39</ele>
        <time>2024-09-19T08:22:57Z</time>
      </trkpt>
      <trkpt lat="44.90017" lon="5.31694">
        <ele>1522.87</ele>
        <time>2024-09-19T08:22:58Z</time>
      </trkpt>
      <trkpt lat="44.90017" lon="5.31693">
        <ele>1522.87</ele>
        <time>2024-09-19T08:22:59Z</time>
      </trkpt>
      <trkpt lat="44.90016" lon="5.31691">
        <ele>1523.35</ele>
        <time>2024-09-19T08:23:00Z</time>
      </trkpt>
      <trkpt lat="44.90013" lon="5.31682">
        <ele>1525.27</ele>
        <time>2024-09-19T08:23:07Z</time>
      </trkpt>
      <trkpt lat="44.90013" lon="5.31681">
        <ele>1525.75</ele>
        <time>2024-09-19T08:23:08Z</time>
      </trkpt>
      <trkpt lat="44.90008" lon="5.31657">
        <ele>1529.11</ele>
        <time>2024-09-19T08:23:24Z</time>
      </trkpt>
      <trkpt lat="44.90004" lon="5.31631">
        <ele>1532</ele>
        <time>2024-09-19T08:23:42Z</time>
      </trkpt>
      <trkpt lat="44.90001" lon="5.31604">
        <ele>1536.32</ele>
        <time>2024-09-19T08:24:01Z</time>
      </trkpt>
      <trkpt lat="44.89998" lon="5.31571">
        <ele>1541.13</ele>
        <time>2024-09-19T08:24:23Z</time>
      </trkpt>
      <trkpt lat="44.89994" lon="5.3155">
        <ele>1544.01</ele>
        <time>2024-09-19T08:24:38Z</time>
      </trkpt>
      <trkpt lat="44.89995" lon="5.31527">
        <ele>1546.9</ele>
        <time>2024-09-19T08:24:53Z</time>
      </trkpt>
      <trkpt lat="44.89995" lon="5.31525">
        <ele>1547.38</ele>
        <time>2024-09-19T08:24:54Z</time>
      </trkpt>
      <trkpt lat="44.89994" lon="5.31523">
        <ele>1547.86</ele>
        <time>2024-09-19T08:24:55Z</time>
      </trkpt>
      <trkpt lat="44.89991" lon="5.31499">
        <ele>1551.22</ele>
        <time>2024-09-19T08:25:11Z</time>
      </trkpt>
      <trkpt lat="44.89991" lon="5.31498">
        <ele>1551.71</ele>
        <time>2024-09-19T08:25:12Z</time>
      </trkpt>
      <trkpt lat="44.89982" lon="5.31479">
        <ele>1554.11</ele>
        <time>2024-09-19T08:25:27Z</time>
      </trkpt>
      <trkpt lat="44.89978" lon="5.31468">
        <ele>1556.03</ele>
        <time>2024-09-19T08:25:35Z</time>
      </trkpt>
      <trkpt lat="44.89978" lon="5.31466">
        <ele>1556.03</ele>
        <time>2024-09-19T08:25:36Z</time>
      </trkpt>
      <trkpt lat="44.89978" lon="5.31464">
        <ele>1556.03</ele>
        <time>2024-09-19T08:25:37Z</time>
      </trkpt>
      <trkpt lat="44.89977" lon="5.31462">
        <ele>1556.51</ele>
        <time>2024-09-19T08:25:39Z</time>
      </trkpt>
      <trkpt lat="44.89976" lon="5.31461">
        <ele>1556.51</ele>
        <time>2024-09-19T08:25:40Z</time>
      </trkpt>
      <trkpt lat="44.89975" lon="5.31461">
        <ele>1556.99</ele>
        <time>2024-09-19T08:25:41Z</time>
      </trkpt>
      <trkpt lat="44.89974" lon="5.31459">
        <ele>1556.99</ele>
        <time>2024-09-19T08:25:42Z</time>
      </trkpt>
      <trkpt lat="44.89973" lon="5.31458">
        <ele>1557.47</ele>
        <time>2024-09-19T08:25:43Z</time>
      </trkpt>
      <trkpt lat="44.89972" lon="5.31457">
        <ele>1557.47</ele>
        <time>2024-09-19T08:25:44Z</time>
      </trkpt>
      <trkpt lat="44.89971" lon="5.31456">
        <ele>1557.47</ele>
        <time>2024-09-19T08:25:45Z</time>
      </trkpt>
      <trkpt lat="44.89962" lon="5.31438">
        <ele>1559.4</ele>
        <time>2024-09-19T08:25:57Z</time>
      </trkpt>
      <trkpt lat="44.89962" lon="5.31438">
        <ele>1559.88</ele>
        <time>2024-09-19T08:25:58Z</time>
      </trkpt>
      <trkpt lat="44.89961" lon="5.31434">
        <ele>1559.88</ele>
        <time>2024-09-19T08:26:00Z</time>
      </trkpt>
      <trkpt lat="44.89962" lon="5.31433">
        <ele>1559.88</ele>
        <time>2024-09-19T08:26:01Z</time>
      </trkpt>
      <trkpt lat="44.89972" lon="5.31414">
        <ele>1562.28</ele>
        <time>2024-09-19T08:26:15Z</time>
      </trkpt>
      <trkpt lat="44.8999" lon="5.314">
        <ele>1564.2</ele>
        <time>2024-09-19T08:26:32Z</time>
      </trkpt>
      <trkpt lat="44.90003" lon="5.31393">
        <ele>1564.68</ele>
        <time>2024-09-19T08:26:43Z</time>
      </trkpt>
      <trkpt lat="44.89997" lon="5.31369">
        <ele>1564.2</ele>
        <time>2024-09-19T08:26:59Z</time>
      </trkpt>
      <trkpt lat="44.89997" lon="5.31366">
        <ele>1564.68</ele>
        <time>2024-09-19T08:27:01Z</time>
      </trkpt>
      <trkpt lat="44.89996" lon="5.31365">
        <ele>1564.68</ele>
        <time>2024-09-19T08:27:02Z</time>
      </trkpt>
      <trkpt lat="44.89996" lon="5.31363">
        <ele>1564.68</ele>
        <time>2024-09-19T08:27:03Z</time>
      </trkpt>
      <trkpt lat="44.89996" lon="5.31361">
        <ele>1565.16</ele>
        <time>2024-09-19T08:27:04Z</time>
      </trkpt>
      <trkpt lat="44.89996" lon="5.31359">
        <ele>1565.16</ele>
        <time>2024-09-19T08:27:05Z</time>
      </trkpt>
      <trkpt lat="44.89995" lon="5.31358">
        <ele>1565.16</ele>
        <time>2024-09-19T08:27:06Z</time>
      </trkpt>
      <trkpt lat="44.89995" lon="5.31356">
        <ele>1565.16</ele>
        <time>2024-09-19T08:27:07Z</time>
      </trkpt>
      <trkpt lat="44.89995" lon="5.31354">
        <ele>1565.16</ele>
        <time>2024-09-19T08:27:08Z</time>
      </trkpt>
      <trkpt lat="44.89994" lon="5.31352">
        <ele>1565.16</ele>
        <time>2024-09-19T08:27:09Z</time>
      </trkpt>
      <trkpt lat="44.89989" lon="5.31341">
        <ele>1566.12</ele>
        <time>2024-09-19T08:27:19Z</time>
      </trkpt>
      <trkpt lat="44.89987" lon="5.31339">
        <ele>1566.61</ele>
        <time>2024-09-19T08:27:21Z</time>
      </trkpt>
      <trkpt lat="44.89987" lon="5.31338">
        <ele>1566.61</ele>
        <time>2024-09-19T08:27:22Z</time>
      </trkpt>
      <trkpt lat="44.89988" lon="5.31312">
        <ele>1568.05</ele>
        <time>2024-09-19T08:27:37Z</time>
      </trkpt>
      <trkpt lat="44.89995" lon="5.31281">
        <ele>1569.97</ele>
        <time>2024-09-19T08:27:53Z</time>
      </trkpt>
      <trkpt lat="44.89995" lon="5.3128">
        <ele>1569.97</ele>
        <time>2024-09-19T08:27:54Z</time>
      </trkpt>
      <trkpt lat="44.89996" lon="5.31278">
        <ele>1569.97</ele>
        <time>2024-09-19T08:27:55Z</time>
      </trkpt>
      <trkpt lat="44.89996" lon="5.31277">
        <ele>1569.97</ele>
        <time>2024-09-19T08:27:56Z</time>
      </trkpt>
      <trkpt lat="44.89997" lon="5.31275">
        <ele>1569.97</ele>
        <time>2024-09-19T08:27:57Z</time>
      </trkpt>
      <trkpt lat="44.90001" lon="5.31253">
        <ele>1571.41</ele>
        <time>2024-09-19T08:28:10Z</time>
      </trkpt>
      <trkpt lat="44.90007" lon="5.31225">
        <ele>1572.37</ele>
        <time>2024-09-19T08:28:27Z</time>
      </trkpt>
      <trkpt lat="44.90008" lon="5.31191">
        <ele>1573.82</ele>
        <time>2024-09-19T08:28:46Z</time>
      </trkpt>
      <trkpt lat="44.90009" lon="5.31188">
        <ele>1573.82</ele>
        <time>2024-09-19T08:28:48Z</time>
      </trkpt>
      <trkpt lat="44.90009" lon="5.31187">
        <ele>1573.82</ele>
        <time>2024-09-19T08:28:49Z</time>
      </trkpt>
      <trkpt lat="44.90009" lon="5.31185">
        <ele>1574.3</ele>
        <time>2024-09-19T08:28:50Z</time>
      </trkpt>
      <trkpt lat="44.9001" lon="5.31183">
        <ele>1574.3</ele>
        <time>2024-09-19T08:28:51Z</time>
      </trkpt>
      <trkpt lat="44.90011" lon="5.31181">
        <ele>1574.3</ele>
        <time>2024-09-19T08:28:52Z</time>
      </trkpt>
      <trkpt lat="44.90011" lon="5.31179">
        <ele>1574.3</ele>
        <time>2024-09-19T08:28:53Z</time>
      </trkpt>
      <trkpt lat="44.90012" lon="5.31178">
        <ele>1574.3</ele>
        <time>2024-09-19T08:28:54Z</time>
      </trkpt>
      <trkpt lat="44.90013" lon="5.31176">
        <ele>1574.78</ele>
        <time>2024-09-19T08:28:55Z</time>
      </trkpt>
      <trkpt lat="44.90014" lon="5.31175">
        <ele>1574.78</ele>
        <time>2024-09-19T08:28:56Z</time>
      </trkpt>
      <trkpt lat="44.90026" lon="5.31159">
        <ele>1577.66</ele>
        <time>2024-09-19T08:29:10Z</time>
      </trkpt>
      <trkpt lat="44.90034" lon="5.31137">
        <ele>1580.06</ele>
        <time>2024-09-19T08:29:25Z</time>
      </trkpt>
      <trkpt lat="44.90037" lon="5.31106">
        <ele>1581.99</ele>
        <time>2024-09-19T08:29:43Z</time>
      </trkpt>
      <trkpt lat="44.90042" lon="5.3107">
        <ele>1584.39</ele>
        <time>2024-09-19T08:30:04Z</time>
      </trkpt>
      <trkpt lat="44.90051" lon="5.31049">
        <ele>1585.35</ele>
        <time>2024-09-19T08:30:19Z</time>
      </trkpt>
      <trkpt lat="44.90064" lon="5.31032">
        <ele>1587.27</ele>
        <time>2024-09-19T08:30:34Z</time>
      </trkpt>
      <trkpt lat="44.90087" lon="5.31032">
        <ele>1589.2</ele>
        <time>2024-09-19T08:30:52Z</time>
      </trkpt>
      <trkpt lat="44.90111" lon="5.31039">
        <ele>1591.6</ele>
        <time>2024-09-19T08:31:09Z</time>
      </trkpt>
      <trkpt lat="44.90136" lon="5.31029">
        <ele>1597.85</ele>
        <time>2024-09-19T08:31:31Z</time>
      </trkpt>
      <trkpt lat="44.90152" lon="5.31019">
        <ele>1602.17</ele>
        <time>2024-09-19T08:31:46Z</time>
      </trkpt>
      <trkpt lat="44.90162" lon="5.31011">
        <ele>1602.66</ele>
        <time>2024-09-19T08:31:57Z</time>
      </trkpt>
      <trkpt lat="44.90168" lon="5.31003">
        <ele>1603.14</ele>
        <time>2024-09-19T08:32:04Z</time>
      </trkpt>
      <trkpt lat="44.90177" lon="5.3098">
        <ele>1606.02</ele>
        <time>2024-09-19T08:32:22Z</time>
      </trkpt>
      <trkpt lat="44.90182" lon="5.30951">
        <ele>1608.42</ele>
        <time>2024-09-19T08:32:42Z</time>
      </trkpt>
      <trkpt lat="44.90184" lon="5.30929">
        <ele>1610.35</ele>
        <time>2024-09-19T08:32:57Z</time>
      </trkpt>
      <trkpt lat="44.90188" lon="5.30924">
        <ele>1611.79</ele>
        <time>2024-09-19T08:33:03Z</time>
      </trkpt>
      <trkpt lat="44.90195" lon="5.30898">
        <ele>1616.11</ele>
        <time>2024-09-19T08:33:18Z</time>
      </trkpt>
      <trkpt lat="44.90193" lon="5.30873">
        <ele>1619.48</ele>
        <time>2024-09-19T08:33:33Z</time>
      </trkpt>
      <trkpt lat="44.90194" lon="5.3085">
        <ele>1620.92</ele>
        <time>2024-09-19T08:33:49Z</time>
      </trkpt>
      <trkpt lat="44.90202" lon="5.30823">
        <ele>1619.96</ele>
        <time>2024-09-19T08:34:05Z</time>
      </trkpt>
      <trkpt lat="44.90211" lon="5.30799">
        <ele>1620.44</ele>
        <time>2024-09-19T08:34:21Z</time>
      </trkpt>
      <trkpt lat="44.90224" lon="5.30782">
        <ele>1619.96</ele>
        <time>2024-09-19T08:34:35Z</time>
      </trkpt>
      <trkpt lat="44.90237" lon="5.30766">
        <ele>1620.92</ele>
        <time>2024-09-19T08:34:50Z</time>
      </trkpt>
      <trkpt lat="44.90253" lon="5.30742">
        <ele>1622.84</ele>
        <time>2024-09-19T08:35:10Z</time>
      </trkpt>
      <trkpt lat="44.90258" lon="5.30718">
        <ele>1624.28</ele>
        <time>2024-09-19T08:35:26Z</time>
      </trkpt>
      <trkpt lat="44.90259" lon="5.30712">
        <ele>1624.77</ele>
        <time>2024-09-19T08:35:30Z</time>
      </trkpt>
      <trkpt lat="44.90269" lon="5.30687">
        <ele>1623.8</ele>
        <time>2024-09-19T08:35:47Z</time>
      </trkpt>
      <trkpt lat="44.90277" lon="5.30666">
        <ele>1621.88</ele>
        <time>2024-09-19T08:36:03Z</time>
      </trkpt>
      <trkpt lat="44.90285" lon="5.30641">
        <ele>1622.36</ele>
        <time>2024-09-19T08:36:19Z</time>
      </trkpt>
      <trkpt lat="44.90289" lon="5.30633">
        <ele>1622.36</ele>
        <time>2024-09-19T08:36:24Z</time>
      </trkpt>
      <trkpt lat="44.90289" lon="5.30626">
        <ele>1622.36</ele>
        <time>2024-09-19T08:36:28Z</time>
      </trkpt>
      <trkpt lat="44.90297" lon="5.30596">
        <ele>1621.88</ele>
        <time>2024-09-19T08:36:47Z</time>
      </trkpt>
      <trkpt lat="44.90307" lon="5.30572">
        <ele>1621.88</ele>
        <time>2024-09-19T08:37:04Z</time>
      </trkpt>
      <trkpt lat="44.90315" lon="5.30549">
        <ele>1622.84</ele>
        <time>2024-09-19T08:37:21Z</time>
      </trkpt>
      <trkpt lat="44.90324" lon="5.30523">
        <ele>1625.25</ele>
        <time>2024-09-19T08:37:37Z</time>
      </trkpt>
      <trkpt lat="44.90334" lon="5.30497">
        <ele>1626.69</ele>
        <time>2024-09-19T08:37:55Z</time>
      </trkpt>
      <trkpt lat="44.90343" lon="5.30472">
        <ele>1628.13</ele>
        <time>2024-09-19T08:38:14Z</time>
      </trkpt>
      <trkpt lat="44.90348" lon="5.30467">
        <ele>1630.53</ele>
        <time>2024-09-19T08:38:29Z</time>
      </trkpt>
      <trkpt lat="44.90354" lon="5.30457">
        <ele>1631.01</ele>
        <time>2024-09-19T08:38:47Z</time>
      </trkpt>
      <trkpt lat="44.90355" lon="5.30462">
        <ele>1631.49</ele>
        <time>2024-09-19T08:39:00Z</time>
      </trkpt>
      <trkpt lat="44.90359" lon="5.30453">
        <ele>1631.98</ele>
        <time>2024-09-19T08:39:18Z</time>
      </trkpt>
      <trkpt lat="44.90359" lon="5.30446">
        <ele>1631.98</ele>
        <time>2024-09-19T08:39:34Z</time>
      </trkpt>
      <trkpt lat="44.9036" lon="5.30446">
        <ele>1633.42</ele>
        <time>2024-09-19T08:39:51Z</time>
      </trkpt>
      <trkpt lat="44.9036" lon="5.30448">
        <ele>1633.9</ele>
        <time>2024-09-19T08:39:53Z</time>
      </trkpt>
      <trkpt lat="44.90359" lon="5.30459">
        <ele>1633.9</ele>
        <time>2024-09-19T08:40:01Z</time>
      </trkpt>
      <trkpt lat="44.90359" lon="5.30465">
        <ele>1632.94</ele>
        <time>2024-09-19T08:40:05Z</time>
      </trkpt>
      <trkpt lat="44.90362" lon="5.30467">
        <ele>1630.53</ele>
        <time>2024-09-19T08:40:24Z</time>
      </trkpt>
      <trkpt lat="44.90365" lon="5.30466">
        <ele>1629.57</ele>
        <time>2024-09-19T08:40:53Z</time>
      </trkpt>
      <trkpt lat="44.90369" lon="5.3046">
        <ele>1630.53</ele>
        <time>2024-09-19T08:41:10Z</time>
      </trkpt>
      <trkpt lat="44.90381" lon="5.30455">
        <ele>1629.57</ele>
        <time>2024-09-19T08:41:27Z</time>
      </trkpt>
      <trkpt lat="44.90385" lon="5.30455">
        <ele>1629.57</ele>
        <time>2024-09-19T08:41:30Z</time>
      </trkpt>
      <trkpt lat="44.90403" lon="5.30439">
        <ele>1628.13</ele>
        <time>2024-09-19T08:41:48Z</time>
      </trkpt>
      <trkpt lat="44.90408" lon="5.30439">
        <ele>1628.13</ele>
        <time>2024-09-19T08:41:59Z</time>
      </trkpt>
      <trkpt lat="44.90409" lon="5.30452">
        <ele>1628.13</ele>
        <time>2024-09-19T08:42:07Z</time>
      </trkpt>
      <trkpt lat="44.9042" lon="5.30468">
        <ele>1624.77</ele>
        <time>2024-09-19T08:42:24Z</time>
      </trkpt>
      <trkpt lat="44.90421" lon="5.30468">
        <ele>1624.77</ele>
        <time>2024-09-19T08:42:25Z</time>
      </trkpt>
      <trkpt lat="44.90442" lon="5.30474">
        <ele>1624.28</ele>
        <time>2024-09-19T08:42:42Z</time>
      </trkpt>
      <trkpt lat="44.90462" lon="5.30471">
        <ele>1624.28</ele>
        <time>2024-09-19T08:42:58Z</time>
      </trkpt>
      <trkpt lat="44.90482" lon="5.30464">
        <ele>1624.77</ele>
        <time>2024-09-19T08:43:15Z</time>
      </trkpt>
      <trkpt lat="44.90488" lon="5.30462">
        <ele>1624.77</ele>
        <time>2024-09-19T08:43:20Z</time>
      </trkpt>
      <trkpt lat="44.90498" lon="5.3045">
        <ele>1626.21</ele>
        <time>2024-09-19T08:43:31Z</time>
      </trkpt>
      <trkpt lat="44.90504" lon="5.30447">
        <ele>1626.69</ele>
        <time>2024-09-19T08:43:36Z</time>
      </trkpt>
      <trkpt lat="44.90517" lon="5.3044">
        <ele>1627.65</ele>
        <time>2024-09-19T08:43:47Z</time>
      </trkpt>
      <trkpt lat="44.90537" lon="5.30433">
        <ele>1628.13</ele>
        <time>2024-09-19T08:44:04Z</time>
      </trkpt>
      <trkpt lat="44.90557" lon="5.30424">
        <ele>1628.61</ele>
        <time>2024-09-19T08:44:20Z</time>
      </trkpt>
      <trkpt lat="44.9056" lon="5.3042">
        <ele>1629.09</ele>
        <time>2024-09-19T08:44:23Z</time>
      </trkpt>
      <trkpt lat="44.90575" lon="5.30406">
        <ele>1631.98</ele>
        <time>2024-09-19T08:44:39Z</time>
      </trkpt>
      <trkpt lat="44.90587" lon="5.30391">
        <ele>1635.34</ele>
        <time>2024-09-19T08:44:53Z</time>
      </trkpt>
      <trkpt lat="44.90594" lon="5.30371">
        <ele>1639.67</ele>
        <time>2024-09-19T08:45:10Z</time>
      </trkpt>
      <trkpt lat="44.90593" lon="5.30356">
        <ele>1642.55</ele>
        <time>2024-09-19T08:45:23Z</time>
      </trkpt>
      <trkpt lat="44.90589" lon="5.30339">
        <ele>1645.91</ele>
        <time>2024-09-19T08:45:37Z</time>
      </trkpt>
      <trkpt lat="44.90592" lon="5.30323">
        <ele>1649.76</ele>
        <time>2024-09-19T08:45:49Z</time>
      </trkpt>
      <trkpt lat="44.90592" lon="5.30309">
        <ele>1653.12</ele>
        <time>2024-09-19T08:45:59Z</time>
      </trkpt>
      <trkpt lat="44.9059" lon="5.30303">
        <ele>1654.09</ele>
        <time>2024-09-19T08:46:03Z</time>
      </trkpt>
      <trkpt lat="44.90592" lon="5.30298">
        <ele>1654.09</ele>
        <time>2024-09-19T08:46:08Z</time>
      </trkpt>
      <trkpt lat="44.90592" lon="5.30288">
        <ele>1655.05</ele>
        <time>2024-09-19T08:46:17Z</time>
      </trkpt>
      <trkpt lat="44.9059" lon="5.30268">
        <ele>1656.49</ele>
        <time>2024-09-19T08:46:31Z</time>
      </trkpt>
      <trkpt lat="44.90584" lon="5.30247">
        <ele>1658.41</ele>
        <time>2024-09-19T08:46:46Z</time>
      </trkpt>
      <trkpt lat="44.90584" lon="5.30246">
        <ele>1658.89</ele>
        <time>2024-09-19T08:46:47Z</time>
      </trkpt>
      <trkpt lat="44.90585" lon="5.30243">
        <ele>1659.85</ele>
        <time>2024-09-19T08:46:49Z</time>
      </trkpt>
      <trkpt lat="44.90581" lon="5.30218">
        <ele>1663.7</ele>
        <time>2024-09-19T08:47:07Z</time>
      </trkpt>
      <trkpt lat="44.9058" lon="5.30213">
        <ele>1664.18</ele>
        <time>2024-09-19T08:47:10Z</time>
      </trkpt>
      <trkpt lat="44.9058" lon="5.30207">
        <ele>1664.66</ele>
        <time>2024-09-19T08:47:14Z</time>
      </trkpt>
      <trkpt lat="44.90578" lon="5.30195">
        <ele>1664.18</ele>
        <time>2024-09-19T08:47:27Z</time>
      </trkpt>
      <trkpt lat="44.90575" lon="5.3019">
        <ele>1664.18</ele>
        <time>2024-09-19T08:47:43Z</time>
      </trkpt>
      <trkpt lat="44.90576" lon="5.3018">
        <ele>1664.18</ele>
        <time>2024-09-19T08:47:59Z</time>
      </trkpt>
      <trkpt lat="44.90576" lon="5.30181">
        <ele>1664.66</ele>
        <time>2024-09-19T08:48:22Z</time>
      </trkpt>
      <trkpt lat="44.90573" lon="5.3017">
        <ele>1662.74</ele>
        <time>2024-09-19T08:48:35Z</time>
      </trkpt>
      <trkpt lat="44.90572" lon="5.3017">
        <ele>1662.26</ele>
        <time>2024-09-19T08:48:36Z</time>
      </trkpt>
      <trkpt lat="44.9056" lon="5.30159">
        <ele>1663.22</ele>
        <time>2024-09-19T08:48:52Z</time>
      </trkpt>
      <trkpt lat="44.90546" lon="5.30147">
        <ele>1662.74</ele>
        <time>2024-09-19T08:49:09Z</time>
      </trkpt>
      <trkpt lat="44.90537" lon="5.30136">
        <ele>1659.85</ele>
        <time>2024-09-19T08:49:23Z</time>
      </trkpt>
      <trkpt lat="44.90532" lon="5.3013">
        <ele>1659.85</ele>
        <time>2024-09-19T08:49:37Z</time>
      </trkpt>
      <trkpt lat="44.90525" lon="5.30122">
        <ele>1658.41</ele>
        <time>2024-09-19T08:49:48Z</time>
      </trkpt>
      <trkpt lat="44.90521" lon="5.3012">
        <ele>1658.41</ele>
        <time>2024-09-19T08:49:52Z</time>
      </trkpt>
      <trkpt lat="44.90515" lon="5.30113">
        <ele>1656.49</ele>
        <time>2024-09-19T08:50:04Z</time>
      </trkpt>
      <trkpt lat="44.90506" lon="5.30107">
        <ele>1656.01</ele>
        <time>2024-09-19T08:50:20Z</time>
      </trkpt>
      <trkpt lat="44.90506" lon="5.30107">
        <ele>1656.01</ele>
        <time>2024-09-19T08:50:21Z</time>
      </trkpt>
      <trkpt lat="44.90502" lon="5.30103">
        <ele>1656.01</ele>
        <time>2024-09-19T08:50:36Z</time>
      </trkpt>
      <trkpt lat="44.90494" lon="5.30097">
        <ele>1655.05</ele>
        <time>2024-09-19T08:50:50Z</time>
      </trkpt>
      <trkpt lat="44.90486" lon="5.3009">
        <ele>1653.6</ele>
        <time>2024-09-19T08:51:04Z</time>
      </trkpt>
      <trkpt lat="44.90482" lon="5.30086">
        <ele>1650.72</ele>
        <time>2024-09-19T08:51:21Z</time>
      </trkpt>
      <trkpt lat="44.90478" lon="5.30083">
        <ele>1650.24</ele>
        <time>2024-09-19T08:51:42Z</time>
      </trkpt>
      <trkpt lat="44.9047" lon="5.30078">
        <ele>1648.8</ele>
        <time>2024-09-19T08:51:54Z</time>
      </trkpt>
      <trkpt lat="44.90456" lon="5.30077">
        <ele>1646.88</ele>
        <time>2024-09-19T08:52:12Z</time>
      </trkpt>
      <trkpt lat="44.90449" lon="5.30073">
        <ele>1647.36</ele>
        <time>2024-09-19T08:52:25Z</time>
      </trkpt>
      <trkpt lat="44.90439" lon="5.30071">
        <ele>1647.36</ele>
        <time>2024-09-19T08:52:42Z</time>
      </trkpt>
      <trkpt lat="44.90433" lon="5.30068">
        <ele>1647.84</ele>
        <time>2024-09-19T08:52:52Z</time>
      </trkpt>
      <trkpt lat="44.90425" lon="5.30064">
        <ele>1647.84</ele>
        <time>2024-09-19T08:53:05Z</time>
      </trkpt>
      <trkpt lat="44.90417" lon="5.30061">
        <ele>1646.88</ele>
        <time>2024-09-19T08:53:20Z</time>
      </trkpt>
      <trkpt lat="44.90409" lon="5.30059">
        <ele>1646.4</ele>
        <time>2024-09-19T08:53:32Z</time>
      </trkpt>
      <trkpt lat="44.90402" lon="5.30058">
        <ele>1646.88</ele>
        <time>2024-09-19T08:53:45Z</time>
      </trkpt>
      <trkpt lat="44.90394" lon="5.30056">
        <ele>1645.91</ele>
        <time>2024-09-19T08:53:59Z</time>
      </trkpt>
      <trkpt lat="44.90384" lon="5.30054">
        <ele>1643.99</ele>
        <time>2024-09-19T08:54:11Z</time>
      </trkpt>
      <trkpt lat="44.90372" lon="5.30051">
        <ele>1643.51</ele>
        <time>2024-09-19T08:54:26Z</time>
      </trkpt>
      <trkpt lat="44.90361" lon="5.30046">
        <ele>1642.55</ele>
        <time>2024-09-19T08:54:42Z</time>
      </trkpt>
      <trkpt lat="44.90357" lon="5.30045">
        <ele>1641.59</ele>
        <time>2024-09-19T08:54:49Z</time>
      </trkpt>
      <trkpt lat="44.90348" lon="5.3004">
        <ele>1640.63</ele>
        <time>2024-09-19T08:55:02Z</time>
      </trkpt>
      <trkpt lat="44.9034" lon="5.30034">
        <ele>1639.67</ele>
        <time>2024-09-19T08:55:11Z</time>
      </trkpt>
      <trkpt lat="44.90336" lon="5.30031">
        <ele>1638.22</ele>
        <time>2024-09-19T08:55:22Z</time>
      </trkpt>
      <trkpt lat="44.90325" lon="5.30023">
        <ele>1637.26</ele>
        <time>2024-09-19T08:55:35Z</time>
      </trkpt>
      <trkpt lat="44.90314" lon="5.30015">
        <ele>1634.38</ele>
        <time>2024-09-19T08:55:50Z</time>
      </trkpt>
      <trkpt lat="44.90312" lon="5.30013">
        <ele>1634.38</ele>
        <time>2024-09-19T08:55:52Z</time>
      </trkpt>
      <trkpt lat="44.9031" lon="5.3001">
        <ele>1633.9</ele>
        <time>2024-09-19T08:55:55Z</time>
      </trkpt>
      <trkpt lat="44.90302" lon="5.30002">
        <ele>1631.01</ele>
        <time>2024-09-19T08:56:07Z</time>
      </trkpt>
      <trkpt lat="44.90295" lon="5.29999">
        <ele>1629.57</ele>
        <time>2024-09-19T08:56:20Z</time>
      </trkpt>
      <trkpt lat="44.90289" lon="5.29993">
        <ele>1627.17</ele>
        <time>2024-09-19T08:56:31Z</time>
      </trkpt>
      <trkpt lat="44.90283" lon="5.29981">
        <ele>1624.28</ele>
        <time>2024-09-19T08:56:44Z</time>
      </trkpt>
      <trkpt lat="44.90279" lon="5.29976">
        <ele>1622.36</ele>
        <time>2024-09-19T08:56:49Z</time>
      </trkpt>
      <trkpt lat="44.90277" lon="5.29971">
        <ele>1619.48</ele>
        <time>2024-09-19T08:57:02Z</time>
      </trkpt>
      <trkpt lat="44.90268" lon="5.29958">
        <ele>1620.44</ele>
        <time>2024-09-19T08:57:15Z</time>
      </trkpt>
      <trkpt lat="44.90251" lon="5.29936">
        <ele>1615.63</ele>
        <time>2024-09-19T08:57:33Z</time>
      </trkpt>
      <trkpt lat="44.90249" lon="5.29935">
        <ele>1615.15</ele>
        <time>2024-09-19T08:57:36Z</time>
      </trkpt>
      <trkpt lat="44.90247" lon="5.29932">
        <ele>1615.15</ele>
        <time>2024-09-19T08:57:39Z</time>
      </trkpt>
      <trkpt lat="44.90237" lon="5.2992">
        <ele>1618.04</ele>
        <time>2024-09-19T08:57:52Z</time>
      </trkpt>
      <trkpt lat="44.90233" lon="5.29915">
        <ele>1619.96</ele>
        <time>2024-09-19T08:58:05Z</time>
      </trkpt>
      <trkpt lat="44.9023" lon="5.29912">
        <ele>1619.48</ele>
        <time>2024-09-19T08:58:15Z</time>
      </trkpt>
      <trkpt lat="44.90229" lon="5.29907">
        <ele>1619</ele>
        <time>2024-09-19T08:58:29Z</time>
      </trkpt>
      <trkpt lat="44.90227" lon="5.29906">
        <ele>1617.56</ele>
        <time>2024-09-19T08:58:40Z</time>
      </trkpt>
      <trkpt lat="44.90225" lon="5.29898">
        <ele>1617.56</ele>
        <time>2024-09-19T08:58:54Z</time>
      </trkpt>
      <trkpt lat="44.90221" lon="5.29888">
        <ele>1615.15</ele>
        <time>2024-09-19T08:59:07Z</time>
      </trkpt>
      <trkpt lat="44.90218" lon="5.2988">
        <ele>1613.71</ele>
        <time>2024-09-19T08:59:13Z</time>
      </trkpt>
      <trkpt lat="44.90198" lon="5.29857">
        <ele>1608.42</ele>
        <time>2024-09-19T08:59:35Z</time>
      </trkpt>
      <trkpt lat="44.90186" lon="5.29843">
        <ele>1605.54</ele>
        <time>2024-09-19T08:59:50Z</time>
      </trkpt>
      <trkpt lat="44.90174" lon="5.29826">
        <ele>1603.14</ele>
        <time>2024-09-19T09:00:04Z</time>
      </trkpt>
      <trkpt lat="44.90164" lon="5.2981">
        <ele>1603.14</ele>
        <time>2024-09-19T09:00:18Z</time>
      </trkpt>
      <trkpt lat="44.90148" lon="5.29793">
        <ele>1599.77</ele>
        <time>2024-09-19T09:00:36Z</time>
      </trkpt>
      <trkpt lat="44.90134" lon="5.29776">
        <ele>1594.96</ele>
        <time>2024-09-19T09:00:50Z</time>
      </trkpt>
      <trkpt lat="44.90126" lon="5.29764">
        <ele>1593.52</ele>
        <time>2024-09-19T09:01:03Z</time>
      </trkpt>
      <trkpt lat="44.90115" lon="5.29749">
        <ele>1595.93</ele>
        <time>2024-09-19T09:01:18Z</time>
      </trkpt>
      <trkpt lat="44.90106" lon="5.29735">
        <ele>1595.93</ele>
        <time>2024-09-19T09:01:29Z</time>
      </trkpt>
      <trkpt lat="44.90104" lon="5.29734">
        <ele>1596.41</ele>
        <time>2024-09-19T09:01:31Z</time>
      </trkpt>
      <trkpt lat="44.90095" lon="5.29716">
        <ele>1595.45</ele>
        <time>2024-09-19T09:01:49Z</time>
      </trkpt>
      <trkpt lat="44.9008" lon="5.29701">
        <ele>1592.56</ele>
        <time>2024-09-19T09:02:06Z</time>
      </trkpt>
      <trkpt lat="44.90079" lon="5.297">
        <ele>1592.56</ele>
        <time>2024-09-19T09:02:17Z</time>
      </trkpt>
      <trkpt lat="44.90078" lon="5.297">
        <ele>1594</ele>
        <time>2024-09-19T09:02:31Z</time>
      </trkpt>
      <trkpt lat="44.90077" lon="5.29699">
        <ele>1594</ele>
        <time>2024-09-19T09:02:44Z</time>
      </trkpt>
      <trkpt lat="44.90076" lon="5.297">
        <ele>1594.96</ele>
        <time>2024-09-19T09:03:04Z</time>
      </trkpt>
      <trkpt lat="44.90078" lon="5.29699">
        <ele>1595.93</ele>
        <time>2024-09-19T09:03:27Z</time>
      </trkpt>
      <trkpt lat="44.90077" lon="5.29699">
        <ele>1594.96</ele>
        <time>2024-09-19T09:03:48Z</time>
      </trkpt>
      <trkpt lat="44.90077" lon="5.29699">
        <ele>1593.52</ele>
        <time>2024-09-19T09:04:15Z</time>
      </trkpt>
      <trkpt lat="44.90075" lon="5.29697">
        <ele>1593.04</ele>
        <time>2024-09-19T09:04:29Z</time>
      </trkpt>
      <trkpt lat="44.90066" lon="5.29683">
        <ele>1591.12</ele>
        <time>2024-09-19T09:04:43Z</time>
      </trkpt>
      <trkpt lat="44.90058" lon="5.29666">
        <ele>1587.27</ele>
        <time>2024-09-19T09:04:58Z</time>
      </trkpt>
      <trkpt lat="44.90052" lon="5.29656">
        <ele>1585.35</ele>
        <time>2024-09-19T09:05:10Z</time>
      </trkpt>
      <trkpt lat="44.90038" lon="5.29642">
        <ele>1583.43</ele>
        <time>2024-09-19T09:05:25Z</time>
      </trkpt>
      <trkpt lat="44.90036" lon="5.29639">
        <ele>1582.95</ele>
        <time>2024-09-19T09:05:28Z</time>
      </trkpt>
      <trkpt lat="44.9003" lon="5.29635">
        <ele>1582.95</ele>
        <time>2024-09-19T09:05:33Z</time>
      </trkpt>
      <trkpt lat="44.90019" lon="5.29623">
        <ele>1580.54</ele>
        <time>2024-09-19T09:05:46Z</time>
      </trkpt>
      <trkpt lat="44.90007" lon="5.29605">
        <ele>1577.66</ele>
        <time>2024-09-19T09:06:04Z</time>
      </trkpt>
      <trkpt lat="44.89993" lon="5.2959">
        <ele>1574.78</ele>
        <time>2024-09-19T09:06:19Z</time>
      </trkpt>
      <trkpt lat="44.89991" lon="5.29587">
        <ele>1574.78</ele>
        <time>2024-09-19T09:06:22Z</time>
      </trkpt>
      <trkpt lat="44.89981" lon="5.29577">
        <ele>1575.26</ele>
        <time>2024-09-19T09:06:33Z</time>
      </trkpt>
      <trkpt lat="44.89968" lon="5.29563">
        <ele>1574.3</ele>
        <time>2024-09-19T09:06:48Z</time>
      </trkpt>
      <trkpt lat="44.89952" lon="5.2955">
        <ele>1573.33</ele>
        <time>2024-09-19T09:07:06Z</time>
      </trkpt>
      <trkpt lat="44.89939" lon="5.29538">
        <ele>1572.85</ele>
        <time>2024-09-19T09:07:19Z</time>
      </trkpt>
      <trkpt lat="44.89931" lon="5.29529">
        <ele>1572.37</ele>
        <time>2024-09-19T09:07:33Z</time>
      </trkpt>
      <trkpt lat="44.89932" lon="5.29524">
        <ele>1569.97</ele>
        <time>2024-09-19T09:07:42Z</time>
      </trkpt>
      <trkpt lat="44.89942" lon="5.29527">
        <ele>1568.05</ele>
        <time>2024-09-19T09:07:56Z</time>
      </trkpt>
      <trkpt lat="44.89945" lon="5.29524">
        <ele>1566.61</ele>
        <time>2024-09-19T09:08:08Z</time>
      </trkpt>
      <trkpt lat="44.8994" lon="5.29514">
        <ele>1563.72</ele>
        <time>2024-09-19T09:08:24Z</time>
      </trkpt>
      <trkpt lat="44.8993" lon="5.29503">
        <ele>1561.8</ele>
        <time>2024-09-19T09:08:39Z</time>
      </trkpt>
      <trkpt lat="44.89927" lon="5.29501">
        <ele>1560.84</ele>
        <time>2024-09-19T09:08:54Z</time>
      </trkpt>
      <trkpt lat="44.89921" lon="5.29494">
        <ele>1558.43</ele>
        <time>2024-09-19T09:09:11Z</time>
      </trkpt>
      <trkpt lat="44.89911" lon="5.29487">
        <ele>1557.47</ele>
        <time>2024-09-19T09:09:28Z</time>
      </trkpt>
      <trkpt lat="44.89906" lon="5.29482">
        <ele>1556.51</ele>
        <time>2024-09-19T09:09:40Z</time>
      </trkpt>
      <trkpt lat="44.899" lon="5.29477">
        <ele>1556.51</ele>
        <time>2024-09-19T09:09:53Z</time>
      </trkpt>
      <trkpt lat="44.89896" lon="5.29473">
        <ele>1555.55</ele>
        <time>2024-09-19T09:10:12Z</time>
      </trkpt>
      <trkpt lat="44.89891" lon="5.29465">
        <ele>1553.63</ele>
        <time>2024-09-19T09:10:24Z</time>
      </trkpt>
      <trkpt lat="44.89887" lon="5.2946">
        <ele>1553.15</ele>
        <time>2024-09-19T09:10:38Z</time>
      </trkpt>
      <trkpt lat="44.89886" lon="5.29461">
        <ele>1553.63</ele>
        <time>2024-09-19T09:10:59Z</time>
      </trkpt>
      <trkpt lat="44.8988" lon="5.29453">
        <ele>1551.22</ele>
        <time>2024-09-19T09:11:14Z</time>
      </trkpt>
      <trkpt lat="44.8987" lon="5.29444">
        <ele>1549.3</ele>
        <time>2024-09-19T09:11:28Z</time>
      </trkpt>
      <trkpt lat="44.89852" lon="5.29431">
        <ele>1545.94</ele>
        <time>2024-09-19T09:11:47Z</time>
      </trkpt>
      <trkpt lat="44.89839" lon="5.29426">
        <ele>1542.57</ele>
        <time>2024-09-19T09:12:02Z</time>
      </trkpt>
      <trkpt lat="44.8983" lon="5.29417">
        <ele>1540.17</ele>
        <time>2024-09-19T09:12:18Z</time>
      </trkpt>
      <trkpt lat="44.89818" lon="5.2941">
        <ele>1538.73</ele>
        <time>2024-09-19T09:12:32Z</time>
      </trkpt>
      <trkpt lat="44.89803" lon="5.29404">
        <ele>1534.88</ele>
        <time>2024-09-19T09:12:49Z</time>
      </trkpt>
      <trkpt lat="44.89802" lon="5.29404">
        <ele>1532.48</ele>
        <time>2024-09-19T09:13:08Z</time>
      </trkpt>
      <trkpt lat="44.89803" lon="5.29403">
        <ele>1531.52</ele>
        <time>2024-09-19T09:13:33Z</time>
      </trkpt>
      <trkpt lat="44.89794" lon="5.294">
        <ele>1530.08</ele>
        <time>2024-09-19T09:13:51Z</time>
      </trkpt>
      <trkpt lat="44.89778" lon="5.29395">
        <ele>1528.63</ele>
        <time>2024-09-19T09:14:07Z</time>
      </trkpt>
      <trkpt lat="44.89773" lon="5.29395">
        <ele>1528.15</ele>
        <time>2024-09-19T09:14:12Z</time>
      </trkpt>
      <trkpt lat="44.89756" lon="5.29395">
        <ele>1528.63</ele>
        <time>2024-09-19T09:14:29Z</time>
      </trkpt>
      <trkpt lat="44.89752" lon="5.29397">
        <ele>1528.63</ele>
        <time>2024-09-19T09:14:47Z</time>
      </trkpt>
      <trkpt lat="44.89751" lon="5.29396">
        <ele>1529.11</ele>
        <time>2024-09-19T09:15:05Z</time>
      </trkpt>
      <trkpt lat="44.89748" lon="5.29395">
        <ele>1529.59</ele>
        <time>2024-09-19T09:15:22Z</time>
      </trkpt>
      <trkpt lat="44.89748" lon="5.29395">
        <ele>1529.59</ele>
        <time>2024-09-19T09:15:33Z</time>
      </trkpt>
      <trkpt lat="44.89745" lon="5.29395">
        <ele>1527.19</ele>
        <time>2024-09-19T09:15:48Z</time>
      </trkpt>
      <trkpt lat="44.89739" lon="5.29397">
        <ele>1526.71</ele>
        <time>2024-09-19T09:16:03Z</time>
      </trkpt>
      <trkpt lat="44.89725" lon="5.29395">
        <ele>1523.35</ele>
        <time>2024-09-19T09:16:18Z</time>
      </trkpt>
      <trkpt lat="44.89711" lon="5.29391">
        <ele>1521.42</ele>
        <time>2024-09-19T09:16:34Z</time>
      </trkpt>
      <trkpt lat="44.89706" lon="5.2939">
        <ele>1520.46</ele>
        <time>2024-09-19T09:16:50Z</time>
      </trkpt>
      <trkpt lat="44.89703" lon="5.29389">
        <ele>1520.94</ele>
        <time>2024-09-19T09:17:05Z</time>
      </trkpt>
      <trkpt lat="44.89701" lon="5.29388">
        <ele>1521.42</ele>
        <time>2024-09-19T09:17:19Z</time>
      </trkpt>
      <trkpt lat="44.89701" lon="5.29389">
        <ele>1520.94</ele>
        <time>2024-09-19T09:17:36Z</time>
      </trkpt>
      <trkpt lat="44.89701" lon="5.29388">
        <ele>1520.46</ele>
        <time>2024-09-19T09:17:56Z</time>
      </trkpt>
      <trkpt lat="44.89698" lon="5.2939">
        <ele>1519.02</ele>
        <time>2024-09-19T09:18:10Z</time>
      </trkpt>
      <trkpt lat="44.8969" lon="5.29389">
        <ele>1517.1</ele>
        <time>2024-09-19T09:18:26Z</time>
      </trkpt>
      <trkpt lat="44.89686" lon="5.29388">
        <ele>1514.69</ele>
        <time>2024-09-19T09:18:45Z</time>
      </trkpt>
      <trkpt lat="44.89679" lon="5.29383">
        <ele>1515.18</ele>
        <time>2024-09-19T09:19:00Z</time>
      </trkpt>
      <trkpt lat="44.89669" lon="5.29377">
        <ele>1514.69</ele>
        <time>2024-09-19T09:19:14Z</time>
      </trkpt>
      <trkpt lat="44.89663" lon="5.29376">
        <ele>1513.73</ele>
        <time>2024-09-19T09:19:22Z</time>
      </trkpt>
      <trkpt lat="44.89651" lon="5.29367">
        <ele>1509.41</ele>
        <time>2024-09-19T09:19:37Z</time>
      </trkpt>
      <trkpt lat="44.8964" lon="5.2936">
        <ele>1506.52</ele>
        <time>2024-09-19T09:19:49Z</time>
      </trkpt>
      <trkpt lat="44.89625" lon="5.29354">
        <ele>1504.12</ele>
        <time>2024-09-19T09:20:05Z</time>
      </trkpt>
      <trkpt lat="44.89611" lon="5.2935">
        <ele>1501.72</ele>
        <time>2024-09-19T09:20:21Z</time>
      </trkpt>
      <trkpt lat="44.89599" lon="5.29353">
        <ele>1500.76</ele>
        <time>2024-09-19T09:20:32Z</time>
      </trkpt>
      <trkpt lat="44.8958" lon="5.29356">
        <ele>1501.24</ele>
        <time>2024-09-19T09:20:49Z</time>
      </trkpt>
      <trkpt lat="44.89571" lon="5.29357">
        <ele>1499.79</ele>
        <time>2024-09-19T09:21:02Z</time>
      </trkpt>
      <trkpt lat="44.89561" lon="5.29358">
        <ele>1497.39</ele>
        <time>2024-09-19T09:21:14Z</time>
      </trkpt>
      <trkpt lat="44.89552" lon="5.29361">
        <ele>1494.03</ele>
        <time>2024-09-19T09:21:30Z</time>
      </trkpt>
      <trkpt lat="44.89546" lon="5.29359">
        <ele>1492.58</ele>
        <time>2024-09-19T09:21:41Z</time>
      </trkpt>
      <trkpt lat="44.89531" lon="5.29357">
        <ele>1490.66</ele>
        <time>2024-09-19T09:21:59Z</time>
      </trkpt>
      <trkpt lat="44.89525" lon="5.29354">
        <ele>1489.7</ele>
        <time>2024-09-19T09:22:12Z</time>
      </trkpt>
      <trkpt lat="44.89514" lon="5.2935">
        <ele>1488.74</ele>
        <time>2024-09-19T09:22:28Z</time>
      </trkpt>
      <trkpt lat="44.89506" lon="5.29346">
        <ele>1487.3</ele>
        <time>2024-09-19T09:22:41Z</time>
      </trkpt>
      <trkpt lat="44.89498" lon="5.29346">
        <ele>1485.85</ele>
        <time>2024-09-19T09:22:51Z</time>
      </trkpt>
      <trkpt lat="44.89492" lon="5.29347">
        <ele>1484.89</ele>
        <time>2024-09-19T09:22:56Z</time>
      </trkpt>
      <trkpt lat="44.8948" lon="5.29346">
        <ele>1483.93</ele>
        <time>2024-09-19T09:23:11Z</time>
      </trkpt>
      <trkpt lat="44.89472" lon="5.29345">
        <ele>1482.01</ele>
        <time>2024-09-19T09:23:21Z</time>
      </trkpt>
      <trkpt lat="44.89469" lon="5.29342">
        <ele>1479.13</ele>
        <time>2024-09-19T09:23:40Z</time>
      </trkpt>
      <trkpt lat="44.89468" lon="5.29339">
        <ele>1479.13</ele>
        <time>2024-09-19T09:24:08Z</time>
      </trkpt>
      <trkpt lat="44.89468" lon="5.29337">
        <ele>1477.2</ele>
        <time>2024-09-19T09:24:31Z</time>
      </trkpt>
      <trkpt lat="44.89461" lon="5.29329">
        <ele>1475.76</ele>
        <time>2024-09-19T09:24:48Z</time>
      </trkpt>
      <trkpt lat="44.89451" lon="5.29322">
        <ele>1473.36</ele>
        <time>2024-09-19T09:25:05Z</time>
      </trkpt>
      <trkpt lat="44.8945" lon="5.29321">
        <ele>1473.36</ele>
        <time>2024-09-19T09:25:25Z</time>
      </trkpt>
      <trkpt lat="44.89437" lon="5.2931">
        <ele>1468.55</ele>
        <time>2024-09-19T09:25:41Z</time>
      </trkpt>
      <trkpt lat="44.89437" lon="5.29306">
        <ele>1468.07</ele>
        <time>2024-09-19T09:25:54Z</time>
      </trkpt>
      <trkpt lat="44.89437" lon="5.29305">
        <ele>1467.59</ele>
        <time>2024-09-19T09:26:13Z</time>
      </trkpt>
      <trkpt lat="44.89435" lon="5.29305">
        <ele>1467.59</ele>
        <time>2024-09-19T09:26:21Z</time>
      </trkpt>
      <trkpt lat="44.89429" lon="5.29299">
        <ele>1466.15</ele>
        <time>2024-09-19T09:26:35Z</time>
      </trkpt>
      <trkpt lat="44.89429" lon="5.29297">
        <ele>1465.67</ele>
        <time>2024-09-19T09:26:53Z</time>
      </trkpt>
      <trkpt lat="44.89428" lon="5.29296">
        <ele>1465.19</ele>
        <time>2024-09-19T09:27:11Z</time>
      </trkpt>
      <trkpt lat="44.89426" lon="5.2929">
        <ele>1465.19</ele>
        <time>2024-09-19T09:27:25Z</time>
      </trkpt>
      <trkpt lat="44.89423" lon="5.29282">
        <ele>1464.71</ele>
        <time>2024-09-19T09:27:34Z</time>
      </trkpt>
      <trkpt lat="44.89424" lon="5.2926">
        <ele>1462.78</ele>
        <time>2024-09-19T09:27:49Z</time>
      </trkpt>
      <trkpt lat="44.89418" lon="5.29245">
        <ele>1463.74</ele>
        <time>2024-09-19T09:28:03Z</time>
      </trkpt>
      <trkpt lat="44.89418" lon="5.29243">
        <ele>1463.74</ele>
        <time>2024-09-19T09:28:04Z</time>
      </trkpt>
      <trkpt lat="44.89413" lon="5.29227">
        <ele>1462.3</ele>
        <time>2024-09-19T09:28:21Z</time>
      </trkpt>
      <trkpt lat="44.89408" lon="5.29221">
        <ele>1460.38</ele>
        <time>2024-09-19T09:28:34Z</time>
      </trkpt>
      <trkpt lat="44.89405" lon="5.29219">
        <ele>1460.38</ele>
        <time>2024-09-19T09:28:47Z</time>
      </trkpt>
      <trkpt lat="44.89406" lon="5.2922">
        <ele>1458.94</ele>
        <time>2024-09-19T09:29:04Z</time>
      </trkpt>
      <trkpt lat="44.89405" lon="5.29217">
        <ele>1458.46</ele>
        <time>2024-09-19T09:29:18Z</time>
      </trkpt>
      <trkpt lat="44.89394" lon="5.29202">
        <ele>1459.42</ele>
        <time>2024-09-19T09:29:35Z</time>
      </trkpt>
      <trkpt lat="44.89395" lon="5.292">
        <ele>1458.46</ele>
        <time>2024-09-19T09:29:50Z</time>
      </trkpt>
      <trkpt lat="44.89392" lon="5.29194">
        <ele>1457.02</ele>
        <time>2024-09-19T09:30:12Z</time>
      </trkpt>
      <trkpt lat="44.89391" lon="5.29193">
        <ele>1457.02</ele>
        <time>2024-09-19T09:30:13Z</time>
      </trkpt>
      <trkpt lat="44.89394" lon="5.29185">
        <ele>1456.05</ele>
        <time>2024-09-19T09:30:25Z</time>
      </trkpt>
      <trkpt lat="44.89396" lon="5.29186">
        <ele>1455.57</ele>
        <time>2024-09-19T09:30:48Z</time>
      </trkpt>
      <trkpt lat="44.89395" lon="5.29185">
        <ele>1456.53</ele>
        <time>2024-09-19T09:31:10Z</time>
      </trkpt>
      <trkpt lat="44.89395" lon="5.29186">
        <ele>1456.53</ele>
        <time>2024-09-19T09:31:27Z</time>
      </trkpt>
      <trkpt lat="44.89393" lon="5.2919">
        <ele>1454.61</ele>
        <time>2024-09-19T09:31:52Z</time>
      </trkpt>
      <trkpt lat="44.89393" lon="5.29198">
        <ele>1455.57</ele>
        <time>2024-09-19T09:32:05Z</time>
      </trkpt>
      <trkpt lat="44.89393" lon="5.29197">
        <ele>1457.02</ele>
        <time>2024-09-19T09:32:30Z</time>
      </trkpt>
      <trkpt lat="44.89392" lon="5.292">
        <ele>1457.02</ele>
        <time>2024-09-19T09:32:52Z</time>
      </trkpt>
      <trkpt lat="44.89392" lon="5.29199">
        <ele>1456.53</ele>
        <time>2024-09-19T09:33:17Z</time>
      </trkpt>
      <trkpt lat="44.89393" lon="5.29199">
        <ele>1457.98</ele>
        <time>2024-09-19T09:33:35Z</time>
      </trkpt>
      <trkpt lat="44.89394" lon="5.292">
        <ele>1457.98</ele>
        <time>2024-09-19T09:34:03Z</time>
      </trkpt>
      <trkpt lat="44.89394" lon="5.29201">
        <ele>1457.98</ele>
        <time>2024-09-19T09:34:32Z</time>
      </trkpt>
      <trkpt lat="44.89393" lon="5.29201">
        <ele>1458.94</ele>
        <time>2024-09-19T09:35:05Z</time>
      </trkpt>
      <trkpt lat="44.89393" lon="5.29199">
        <ele>1458.94</ele>
        <time>2024-09-19T09:35:35Z</time>
      </trkpt>
      <trkpt lat="44.89393" lon="5.29199">
        <ele>1457.5</ele>
        <time>2024-09-19T09:35:57Z</time>
      </trkpt>
      <trkpt lat="44.89392" lon="5.29198">
        <ele>1457.02</ele>
        <time>2024-09-19T09:36:15Z</time>
      </trkpt>
      <trkpt lat="44.89393" lon="5.29198">
        <ele>1454.61</ele>
        <time>2024-09-19T09:36:44Z</time>
      </trkpt>
      <trkpt lat="44.8939" lon="5.292">
        <ele>1456.53</ele>
        <time>2024-09-19T09:37:09Z</time>
      </trkpt>
      <trkpt lat="44.8939" lon="5.29201">
        <ele>1457.5</ele>
        <time>2024-09-19T09:37:30Z</time>
      </trkpt>
      <trkpt lat="44.89394" lon="5.29202">
        <ele>1458.46</ele>
        <time>2024-09-19T09:37:48Z</time>
      </trkpt>
      <trkpt lat="44.89393" lon="5.29199">
        <ele>1456.53</ele>
        <time>2024-09-19T09:38:08Z</time>
      </trkpt>
      <trkpt lat="44.89393" lon="5.29198">
        <ele>1457.02</ele>
        <time>2024-09-19T09:38:28Z</time>
      </trkpt>
      <trkpt lat="44.89392" lon="5.29198">
        <ele>1457.02</ele>
        <time>2024-09-19T09:38:45Z</time>
      </trkpt>
      <trkpt lat="44.89393" lon="5.29199">
        <ele>1456.05</ele>
        <time>2024-09-19T09:39:04Z</time>
      </trkpt>
      <trkpt lat="44.89394" lon="5.292">
        <ele>1457.5</ele>
        <time>2024-09-19T09:39:29Z</time>
      </trkpt>
      <trkpt lat="44.89394" lon="5.29199">
        <ele>1458.94</ele>
        <time>2024-09-19T09:39:48Z</time>
      </trkpt>
      <trkpt lat="44.89393" lon="5.29193">
        <ele>1459.42</ele>
        <time>2024-09-19T09:40:07Z</time>
      </trkpt>
      <trkpt lat="44.89392" lon="5.2919">
        <ele>1457.98</ele>
        <time>2024-09-19T09:40:27Z</time>
      </trkpt>
      <trkpt lat="44.89387" lon="5.29173">
        <ele>1456.05</ele>
        <time>2024-09-19T09:40:43Z</time>
      </trkpt>
      <trkpt lat="44.8937" lon="5.2916">
        <ele>1453.65</ele>
        <time>2024-09-19T09:40:58Z</time>
      </trkpt>
      <trkpt lat="44.89355" lon="5.29166">
        <ele>1455.57</ele>
        <time>2024-09-19T09:41:11Z</time>
      </trkpt>
      <trkpt lat="44.89348" lon="5.29157">
        <ele>1456.53</ele>
        <time>2024-09-19T09:41:20Z</time>
      </trkpt>
      <trkpt lat="44.89342" lon="5.29155">
        <ele>1457.02</ele>
        <time>2024-09-19T09:41:25Z</time>
      </trkpt>
      <trkpt lat="44.8932" lon="5.29136">
        <ele>1460.38</ele>
        <time>2024-09-19T09:41:46Z</time>
      </trkpt>
      <trkpt lat="44.89305" lon="5.29116">
        <ele>1461.82</ele>
        <time>2024-09-19T09:42:03Z</time>
      </trkpt>
      <trkpt lat="44.89291" lon="5.29095">
        <ele>1463.26</ele>
        <time>2024-09-19T09:42:18Z</time>
      </trkpt>
      <trkpt lat="44.8928" lon="5.29074">
        <ele>1462.3</ele>
        <time>2024-09-19T09:42:30Z</time>
      </trkpt>
      <trkpt lat="44.89268" lon="5.29048">
        <ele>1462.3</ele>
        <time>2024-09-19T09:42:46Z</time>
      </trkpt>
      <trkpt lat="44.89251" lon="5.29029">
        <ele>1463.74</ele>
        <time>2024-09-19T09:43:02Z</time>
      </trkpt>
      <trkpt lat="44.89231" lon="5.29015">
        <ele>1464.23</ele>
        <time>2024-09-19T09:43:19Z</time>
      </trkpt>
      <trkpt lat="44.89211" lon="5.29006">
        <ele>1465.19</ele>
        <time>2024-09-19T09:43:35Z</time>
      </trkpt>
      <trkpt lat="44.89192" lon="5.29004">
        <ele>1466.15</ele>
        <time>2024-09-19T09:43:49Z</time>
      </trkpt>
      <trkpt lat="44.89171" lon="5.29005">
        <ele>1467.59</ele>
        <time>2024-09-19T09:44:05Z</time>
      </trkpt>
      <trkpt lat="44.89151" lon="5.29009">
        <ele>1469.99</ele>
        <time>2024-09-19T09:44:20Z</time>
      </trkpt>
      <trkpt lat="44.89147" lon="5.29008">
        <ele>1469.99</ele>
        <time>2024-09-19T09:44:23Z</time>
      </trkpt>
      <trkpt lat="44.89146" lon="5.29007">
        <ele>1469.51</ele>
        <time>2024-09-19T09:44:24Z</time>
      </trkpt>
      <trkpt lat="44.89145" lon="5.29007">
        <ele>1469.51</ele>
        <time>2024-09-19T09:44:25Z</time>
      </trkpt>
      <trkpt lat="44.89144" lon="5.29007">
        <ele>1469.03</ele>
        <time>2024-09-19T09:44:26Z</time>
      </trkpt>
      <trkpt lat="44.89143" lon="5.29007">
        <ele>1469.03</ele>
        <time>2024-09-19T09:44:27Z</time>
      </trkpt>
      <trkpt lat="44.89121" lon="5.29006">
        <ele>1467.11</ele>
        <time>2024-09-19T09:44:43Z</time>
      </trkpt>
      <trkpt lat="44.89099" lon="5.29004">
        <ele>1466.15</ele>
        <time>2024-09-19T09:44:58Z</time>
      </trkpt>
      <trkpt lat="44.89096" lon="5.29002">
        <ele>1466.15</ele>
        <time>2024-09-19T09:45:00Z</time>
      </trkpt>
      <trkpt lat="44.89095" lon="5.29001">
        <ele>1465.67</ele>
        <time>2024-09-19T09:45:01Z</time>
      </trkpt>
      <trkpt lat="44.89094" lon="5.29">
        <ele>1465.67</ele>
        <time>2024-09-19T09:45:02Z</time>
      </trkpt>
      <trkpt lat="44.89079" lon="5.28983">
        <ele>1462.78</ele>
        <time>2024-09-19T09:45:16Z</time>
      </trkpt>
      <trkpt lat="44.89059" lon="5.28958">
        <ele>1459.42</ele>
        <time>2024-09-19T09:45:31Z</time>
      </trkpt>
      <trkpt lat="44.89039" lon="5.2894">
        <ele>1457.5</ele>
        <time>2024-09-19T09:45:47Z</time>
      </trkpt>
      <trkpt lat="44.89038" lon="5.28938">
        <ele>1457.5</ele>
        <time>2024-09-19T09:45:49Z</time>
      </trkpt>
      <trkpt lat="44.89025" lon="5.28915">
        <ele>1457.98</ele>
        <time>2024-09-19T09:46:04Z</time>
      </trkpt>
      <trkpt lat="44.89015" lon="5.28889">
        <ele>1459.42</ele>
        <time>2024-09-19T09:46:20Z</time>
      </trkpt>
      <trkpt lat="44.8901" lon="5.28879">
        <ele>1460.38</ele>
        <time>2024-09-19T09:46:28Z</time>
      </trkpt>
      <trkpt lat="44.89009" lon="5.28878">
        <ele>1460.38</ele>
        <time>2024-09-19T09:46:29Z</time>
      </trkpt>
      <trkpt lat="44.88998" lon="5.28845">
        <ele>1460.38</ele>
        <time>2024-09-19T09:46:49Z</time>
      </trkpt>
      <trkpt lat="44.88992" lon="5.28819">
        <ele>1460.38</ele>
        <time>2024-09-19T09:47:06Z</time>
      </trkpt>
      <trkpt lat="44.88984" lon="5.28791">
        <ele>1458.94</ele>
        <time>2024-09-19T09:47:23Z</time>
      </trkpt>
      <trkpt lat="44.88971" lon="5.28767">
        <ele>1458.94</ele>
        <time>2024-09-19T09:47:40Z</time>
      </trkpt>
      <trkpt lat="44.88955" lon="5.28746">
        <ele>1460.38</ele>
        <time>2024-09-19T09:47:58Z</time>
      </trkpt>
      <trkpt lat="44.8894" lon="5.28726">
        <ele>1461.34</ele>
        <time>2024-09-19T09:48:15Z</time>
      </trkpt>
      <trkpt lat="44.88925" lon="5.28705">
        <ele>1460.86</ele>
        <time>2024-09-19T09:48:32Z</time>
      </trkpt>
      <trkpt lat="44.88909" lon="5.28683">
        <ele>1459.9</ele>
        <time>2024-09-19T09:48:49Z</time>
      </trkpt>
      <trkpt lat="44.88891" lon="5.28659">
        <ele>1459.42</ele>
        <time>2024-09-19T09:49:08Z</time>
      </trkpt>
      <trkpt lat="44.88875" lon="5.28639">
        <ele>1459.42</ele>
        <time>2024-09-19T09:49:24Z</time>
      </trkpt>
      <trkpt lat="44.8886" lon="5.28619">
        <ele>1458.94</ele>
        <time>2024-09-19T09:49:39Z</time>
      </trkpt>
      <trkpt lat="44.88844" lon="5.28594">
        <ele>1458.46</ele>
        <time>2024-09-19T09:49:56Z</time>
      </trkpt>
      <trkpt lat="44.88828" lon="5.28574">
        <ele>1458.46</ele>
        <time>2024-09-19T09:50:12Z</time>
      </trkpt>
      <trkpt lat="44.88815" lon="5.28558">
        <ele>1458.46</ele>
        <time>2024-09-19T09:50:24Z</time>
      </trkpt>
      <trkpt lat="44.88794" lon="5.28532">
        <ele>1458.94</ele>
        <time>2024-09-19T09:50:45Z</time>
      </trkpt>
      <trkpt lat="44.88778" lon="5.28508">
        <ele>1457.98</ele>
        <time>2024-09-19T09:51:02Z</time>
      </trkpt>
      <trkpt lat="44.88762" lon="5.28487">
        <ele>1458.46</ele>
        <time>2024-09-19T09:51:18Z</time>
      </trkpt>
      <trkpt lat="44.88742" lon="5.28467">
        <ele>1457.02</ele>
        <time>2024-09-19T09:51:35Z</time>
      </trkpt>
      <trkpt lat="44.8872" lon="5.2845">
        <ele>1456.53</ele>
        <time>2024-09-19T09:51:53Z</time>
      </trkpt>
      <trkpt lat="44.88699" lon="5.28435">
        <ele>1455.57</ele>
        <time>2024-09-19T09:52:09Z</time>
      </trkpt>
      <trkpt lat="44.8868" lon="5.28421">
        <ele>1454.61</ele>
        <time>2024-09-19T09:52:24Z</time>
      </trkpt>
      <trkpt lat="44.88658" lon="5.28406">
        <ele>1454.13</ele>
        <time>2024-09-19T09:52:41Z</time>
      </trkpt>
      <trkpt lat="44.88634" lon="5.28393">
        <ele>1453.17</ele>
        <time>2024-09-19T09:52:59Z</time>
      </trkpt>
      <trkpt lat="44.88612" lon="5.28383">
        <ele>1450.29</ele>
        <time>2024-09-19T09:53:14Z</time>
      </trkpt>
      <trkpt lat="44.88611" lon="5.28382">
        <ele>1450.29</ele>
        <time>2024-09-19T09:53:15Z</time>
      </trkpt>
      <trkpt lat="44.8861" lon="5.28381">
        <ele>1450.29</ele>
        <time>2024-09-19T09:53:16Z</time>
      </trkpt>
      <trkpt lat="44.8861" lon="5.2838">
        <ele>1450.29</ele>
        <time>2024-09-19T09:53:17Z</time>
      </trkpt>
      <trkpt lat="44.88609" lon="5.28378">
        <ele>1450.29</ele>
        <time>2024-09-19T09:53:18Z</time>
      </trkpt>
      <trkpt lat="44.88608" lon="5.28377">
        <ele>1450.29</ele>
        <time>2024-09-19T09:53:19Z</time>
      </trkpt>
      <trkpt lat="44.8859" lon="5.28367">
        <ele>1452.69</ele>
        <time>2024-09-19T09:53:34Z</time>
      </trkpt>
      <trkpt lat="44.88574" lon="5.28353">
        <ele>1453.65</ele>
        <time>2024-09-19T09:53:50Z</time>
      </trkpt>
      <trkpt lat="44.88559" lon="5.2835">
        <ele>1453.65</ele>
        <time>2024-09-19T09:54:01Z</time>
      </trkpt>
      <trkpt lat="44.8853" lon="5.28332">
        <ele>1453.65</ele>
        <time>2024-09-19T09:54:24Z</time>
      </trkpt>
      <trkpt lat="44.88506" lon="5.28316">
        <ele>1452.69</ele>
        <time>2024-09-19T09:54:44Z</time>
      </trkpt>
      <trkpt lat="44.88486" lon="5.28301">
        <ele>1450.77</ele>
        <time>2024-09-19T09:55:00Z</time>
      </trkpt>
      <trkpt lat="44.88461" lon="5.2828">
        <ele>1449.32</ele>
        <time>2024-09-19T09:55:20Z</time>
      </trkpt>
      <trkpt lat="44.88438" lon="5.28257">
        <ele>1447.88</ele>
        <time>2024-09-19T09:55:40Z</time>
      </trkpt>
      <trkpt lat="44.88413" lon="5.28232">
        <ele>1446.44</ele>
        <time>2024-09-19T09:56:00Z</time>
      </trkpt>
      <trkpt lat="44.88387" lon="5.28206">
        <ele>1445</ele>
        <time>2024-09-19T09:56:21Z</time>
      </trkpt>
      <trkpt lat="44.88361" lon="5.28189">
        <ele>1445</ele>
        <time>2024-09-19T09:56:42Z</time>
      </trkpt>
      <trkpt lat="44.8833" lon="5.28176">
        <ele>1441.15</ele>
        <time>2024-09-19T09:57:03Z</time>
      </trkpt>
      <trkpt lat="44.88321" lon="5.28174">
        <ele>1440.67</ele>
        <time>2024-09-19T09:57:20Z</time>
      </trkpt>
      <trkpt lat="44.88313" lon="5.28172">
        <ele>1440.67</ele>
        <time>2024-09-19T09:57:45Z</time>
      </trkpt>
      <trkpt lat="44.88308" lon="5.28175">
        <ele>1441.15</ele>
        <time>2024-09-19T09:57:59Z</time>
      </trkpt>
      <trkpt lat="44.88307" lon="5.28179">
        <ele>1441.15</ele>
        <time>2024-09-19T09:58:15Z</time>
      </trkpt>
      <trkpt lat="44.88308" lon="5.28177">
        <ele>1441.15</ele>
        <time>2024-09-19T09:58:32Z</time>
      </trkpt>
      <trkpt lat="44.88308" lon="5.2817">
        <ele>1439.71</ele>
        <time>2024-09-19T09:58:44Z</time>
      </trkpt>
      <trkpt lat="44.88295" lon="5.28168">
        <ele>1438.27</ele>
        <time>2024-09-19T09:58:53Z</time>
      </trkpt>
      <trkpt lat="44.88273" lon="5.28168">
        <ele>1436.83</ele>
        <time>2024-09-19T09:59:07Z</time>
      </trkpt>
      <trkpt lat="44.88247" lon="5.28167">
        <ele>1433.46</ele>
        <time>2024-09-19T09:59:26Z</time>
      </trkpt>
      <trkpt lat="44.8822" lon="5.28157">
        <ele>1430.58</ele>
        <time>2024-09-19T09:59:45Z</time>
      </trkpt>
      <trkpt lat="44.88195" lon="5.28152">
        <ele>1429.14</ele>
        <time>2024-09-19T10:00:02Z</time>
      </trkpt>
      <trkpt lat="44.88176" lon="5.28145">
        <ele>1429.14</ele>
        <time>2024-09-19T10:00:19Z</time>
      </trkpt>
      <trkpt lat="44.88166" lon="5.2814">
        <ele>1428.66</ele>
        <time>2024-09-19T10:00:32Z</time>
      </trkpt>
      <trkpt lat="44.88144" lon="5.28121">
        <ele>1428.18</ele>
        <time>2024-09-19T10:00:52Z</time>
      </trkpt>
      <trkpt lat="44.88124" lon="5.28104">
        <ele>1429.62</ele>
        <time>2024-09-19T10:01:09Z</time>
      </trkpt>
      <trkpt lat="44.88105" lon="5.2808">
        <ele>1429.62</ele>
        <time>2024-09-19T10:01:28Z</time>
      </trkpt>
      <trkpt lat="44.88081" lon="5.28058">
        <ele>1430.58</ele>
        <time>2024-09-19T10:01:49Z</time>
      </trkpt>
      <trkpt lat="44.8806" lon="5.28043">
        <ele>1429.14</ele>
        <time>2024-09-19T10:02:07Z</time>
      </trkpt>
      <trkpt lat="44.88023" lon="5.28014">
        <ele>1427.21</ele>
        <time>2024-09-19T10:02:41Z</time>
      </trkpt>
      <trkpt lat="44.87974" lon="5.27972">
        <ele>1431.54</ele>
        <time>2024-09-19T10:03:25Z</time>
      </trkpt>
      <trkpt lat="44.8794" lon="5.2796">
        <ele>1433.94</ele>
        <time>2024-09-19T10:03:53Z</time>
      </trkpt>
      <trkpt lat="44.87908" lon="5.27946">
        <ele>1433.46</ele>
        <time>2024-09-19T10:04:18Z</time>
      </trkpt>
      <trkpt lat="44.87853" lon="5.27915">
        <ele>1432.5</ele>
        <time>2024-09-19T10:05:00Z</time>
      </trkpt>
      <trkpt lat="44.87808" lon="5.27894">
        <ele>1434.42</ele>
        <time>2024-09-19T10:05:35Z</time>
      </trkpt>
      <trkpt lat="44.87796" lon="5.27889">
        <ele>1432.98</ele>
        <time>2024-09-19T10:05:44Z</time>
      </trkpt>
      <trkpt lat="44.87579" lon="5.27693">
        <ele>1420.97</ele>
        <time>2024-09-19T10:08:40Z</time>
      </trkpt>
      <trkpt lat="44.87538" lon="5.27648">
        <ele>1420.49</ele>
        <time>2024-09-19T10:09:16Z</time>
      </trkpt>
      <trkpt lat="44.87516" lon="5.27636">
        <ele>1418.08</ele>
        <time>2024-09-19T10:09:32Z</time>
      </trkpt>
      <trkpt lat="44.87496" lon="5.27636">
        <ele>1420.97</ele>
        <time>2024-09-19T10:09:47Z</time>
      </trkpt>
      <trkpt lat="44.87474" lon="5.2763">
        <ele>1420.97</ele>
        <time>2024-09-19T10:09:58Z</time>
      </trkpt>
      <trkpt lat="44.87448" lon="5.27622">
        <ele>1422.89</ele>
        <time>2024-09-19T10:10:15Z</time>
      </trkpt>
      <trkpt lat="44.87426" lon="5.27613">
        <ele>1424.81</ele>
        <time>2024-09-19T10:10:30Z</time>
      </trkpt>
      <trkpt lat="44.87402" lon="5.27603">
        <ele>1424.33</ele>
        <time>2024-09-19T10:10:45Z</time>
      </trkpt>
      <trkpt lat="44.87378" lon="5.27598">
        <ele>1423.85</ele>
        <time>2024-09-19T10:11:01Z</time>
      </trkpt>
      <trkpt lat="44.87358" lon="5.27599">
        <ele>1422.41</ele>
        <time>2024-09-19T10:11:16Z</time>
      </trkpt>
      <trkpt lat="44.87341" lon="5.27608">
        <ele>1420.97</ele>
        <time>2024-09-19T10:11:29Z</time>
      </trkpt>
      <trkpt lat="44.87322" lon="5.27617">
        <ele>1419.52</ele>
        <time>2024-09-19T10:11:44Z</time>
      </trkpt>
      <trkpt lat="44.87298" lon="5.27627">
        <ele>1415.2</ele>
        <time>2024-09-19T10:12:01Z</time>
      </trkpt>
      <trkpt lat="44.87276" lon="5.27632">
        <ele>1410.87</ele>
        <time>2024-09-19T10:12:16Z</time>
      </trkpt>
      <trkpt lat="44.87252" lon="5.27623">
        <ele>1408.47</ele>
        <time>2024-09-19T10:12:33Z</time>
      </trkpt>
      <trkpt lat="44.87249" lon="5.2762">
        <ele>1408.47</ele>
        <time>2024-09-19T10:12:36Z</time>
      </trkpt>
      <trkpt lat="44.87248" lon="5.27619">
        <ele>1407.99</ele>
        <time>2024-09-19T10:12:37Z</time>
      </trkpt>
      <trkpt lat="44.87246" lon="5.27618">
        <ele>1407.99</ele>
        <time>2024-09-19T10:12:38Z</time>
      </trkpt>
      <trkpt lat="44.87245" lon="5.27617">
        <ele>1407.99</ele>
        <time>2024-09-19T10:12:39Z</time>
      </trkpt>
      <trkpt lat="44.87244" lon="5.27617">
        <ele>1407.99</ele>
        <time>2024-09-19T10:12:40Z</time>
      </trkpt>
      <trkpt lat="44.87242" lon="5.27615">
        <ele>1407.51</ele>
        <time>2024-09-19T10:12:42Z</time>
      </trkpt>
      <trkpt lat="44.8724" lon="5.27615">
        <ele>1407.51</ele>
        <time>2024-09-19T10:12:43Z</time>
      </trkpt>
      <trkpt lat="44.87239" lon="5.27614">
        <ele>1407.03</ele>
        <time>2024-09-19T10:12:44Z</time>
      </trkpt>
      <trkpt lat="44.87237" lon="5.27613">
        <ele>1407.03</ele>
        <time>2024-09-19T10:12:45Z</time>
      </trkpt>
      <trkpt lat="44.87236" lon="5.27613">
        <ele>1407.03</ele>
        <time>2024-09-19T10:12:46Z</time>
      </trkpt>
      <trkpt lat="44.87234" lon="5.2761">
        <ele>1407.03</ele>
        <time>2024-09-19T10:12:49Z</time>
      </trkpt>
      <trkpt lat="44.87233" lon="5.27609">
        <ele>1406.55</ele>
        <time>2024-09-19T10:12:50Z</time>
      </trkpt>
      <trkpt lat="44.87232" lon="5.27608">
        <ele>1406.55</ele>
        <time>2024-09-19T10:12:51Z</time>
      </trkpt>
      <trkpt lat="44.87219" lon="5.27598">
        <ele>1401.74</ele>
        <time>2024-09-19T10:13:04Z</time>
      </trkpt>
      <trkpt lat="44.87202" lon="5.27587">
        <ele>1397.89</ele>
        <time>2024-09-19T10:13:16Z</time>
      </trkpt>
      <trkpt lat="44.87186" lon="5.27571">
        <ele>1396.45</ele>
        <time>2024-09-19T10:13:31Z</time>
      </trkpt>
      <trkpt lat="44.87184" lon="5.27568">
        <ele>1396.45</ele>
        <time>2024-09-19T10:13:38Z</time>
      </trkpt>
      <trkpt lat="44.8718" lon="5.27556">
        <ele>1395.01</ele>
        <time>2024-09-19T10:13:45Z</time>
      </trkpt>
      <trkpt lat="44.87168" lon="5.27528">
        <ele>1390.2</ele>
        <time>2024-09-19T10:14:01Z</time>
      </trkpt>
      <trkpt lat="44.87157" lon="5.27507">
        <ele>1388.28</ele>
        <time>2024-09-19T10:14:13Z</time>
      </trkpt>
      <trkpt lat="44.87155" lon="5.27507">
        <ele>1388.28</ele>
        <time>2024-09-19T10:14:14Z</time>
      </trkpt>
      <trkpt lat="44.87135" lon="5.27513">
        <ele>1389.24</ele>
        <time>2024-09-19T10:14:29Z</time>
      </trkpt>
      <trkpt lat="44.87133" lon="5.27514">
        <ele>1389.72</ele>
        <time>2024-09-19T10:14:30Z</time>
      </trkpt>
      <trkpt lat="44.87114" lon="5.27514">
        <ele>1391.65</ele>
        <time>2024-09-19T10:14:39Z</time>
      </trkpt>
      <trkpt lat="44.87091" lon="5.27498">
        <ele>1391.65</ele>
        <time>2024-09-19T10:14:56Z</time>
      </trkpt>
      <trkpt lat="44.87072" lon="5.27487">
        <ele>1389.72</ele>
        <time>2024-09-19T10:15:10Z</time>
      </trkpt>
      <trkpt lat="44.87053" lon="5.2747">
        <ele>1387.32</ele>
        <time>2024-09-19T10:15:23Z</time>
      </trkpt>
      <trkpt lat="44.87028" lon="5.2745">
        <ele>1385.88</ele>
        <time>2024-09-19T10:15:43Z</time>
      </trkpt>
      <trkpt lat="44.87005" lon="5.27433">
        <ele>1385.88</ele>
        <time>2024-09-19T10:15:54Z</time>
      </trkpt>
      <trkpt lat="44.86981" lon="5.27414">
        <ele>1386.84</ele>
        <time>2024-09-19T10:16:12Z</time>
      </trkpt>
      <trkpt lat="44.86958" lon="5.27396">
        <ele>1388.28</ele>
        <time>2024-09-19T10:16:30Z</time>
      </trkpt>
      <trkpt lat="44.86938" lon="5.2738">
        <ele>1387.8</ele>
        <time>2024-09-19T10:16:45Z</time>
      </trkpt>
      <trkpt lat="44.86914" lon="5.27363">
        <ele>1385.88</ele>
        <time>2024-09-19T10:17:01Z</time>
      </trkpt>
      <trkpt lat="44.86901" lon="5.27351">
        <ele>1384.44</ele>
        <time>2024-09-19T10:17:08Z</time>
      </trkpt>
      <trkpt lat="44.86899" lon="5.2735">
        <ele>1384.44</ele>
        <time>2024-09-19T10:17:09Z</time>
      </trkpt>
      <trkpt lat="44.86876" lon="5.27334">
        <ele>1382.03</ele>
        <time>2024-09-19T10:17:26Z</time>
      </trkpt>
      <trkpt lat="44.86854" lon="5.27316">
        <ele>1381.07</ele>
        <time>2024-09-19T10:17:42Z</time>
      </trkpt>
      <trkpt lat="44.8683" lon="5.27298">
        <ele>1382.99</ele>
        <time>2024-09-19T10:18:00Z</time>
      </trkpt>
      <trkpt lat="44.8681" lon="5.27286">
        <ele>1382.03</ele>
        <time>2024-09-19T10:18:13Z</time>
      </trkpt>
      <trkpt lat="44.8679" lon="5.27272">
        <ele>1382.99</ele>
        <time>2024-09-19T10:18:26Z</time>
      </trkpt>
      <trkpt lat="44.86772" lon="5.27257">
        <ele>1386.36</ele>
        <time>2024-09-19T10:18:39Z</time>
      </trkpt>
      <trkpt lat="44.86751" lon="5.27237">
        <ele>1388.76</ele>
        <time>2024-09-19T10:18:54Z</time>
      </trkpt>
      <trkpt lat="44.86729" lon="5.27222">
        <ele>1391.65</ele>
        <time>2024-09-19T10:19:09Z</time>
      </trkpt>
      <trkpt lat="44.86707" lon="5.27208">
        <ele>1396.93</ele>
        <time>2024-09-19T10:19:24Z</time>
      </trkpt>
      <trkpt lat="44.8668" lon="5.27198">
        <ele>1399.34</ele>
        <time>2024-09-19T10:19:43Z</time>
      </trkpt>
      <trkpt lat="44.86655" lon="5.27193">
        <ele>1400.3</ele>
        <time>2024-09-19T10:19:58Z</time>
      </trkpt>
      <trkpt lat="44.86632" lon="5.27191">
        <ele>1399.82</ele>
        <time>2024-09-19T10:20:11Z</time>
      </trkpt>
      <trkpt lat="44.86608" lon="5.27188">
        <ele>1401.74</ele>
        <time>2024-09-19T10:20:29Z</time>
      </trkpt>
      <trkpt lat="44.8658" lon="5.27185">
        <ele>1404.62</ele>
        <time>2024-09-19T10:20:44Z</time>
      </trkpt>
      <trkpt lat="44.86559" lon="5.27183">
        <ele>1406.07</ele>
        <time>2024-09-19T10:20:58Z</time>
      </trkpt>
      <trkpt lat="44.86539" lon="5.27179">
        <ele>1407.03</ele>
        <time>2024-09-19T10:21:15Z</time>
      </trkpt>
      <trkpt lat="44.86525" lon="5.27169">
        <ele>1407.51</ele>
        <time>2024-09-19T10:21:27Z</time>
      </trkpt>
      <trkpt lat="44.86525" lon="5.27167">
        <ele>1407.51</ele>
        <time>2024-09-19T10:21:28Z</time>
      </trkpt>
      <trkpt lat="44.86519" lon="5.27152">
        <ele>1406.55</ele>
        <time>2024-09-19T10:21:40Z</time>
      </trkpt>
      <trkpt lat="44.86522" lon="5.27122">
        <ele>1404.14</ele>
        <time>2024-09-19T10:21:59Z</time>
      </trkpt>
      <trkpt lat="44.86522" lon="5.27115">
        <ele>1403.18</ele>
        <time>2024-09-19T10:22:03Z</time>
      </trkpt>
      <trkpt lat="44.86494" lon="5.27105">
        <ele>1402.22</ele>
        <time>2024-09-19T10:22:24Z</time>
      </trkpt>
      <trkpt lat="44.8647" lon="5.27095">
        <ele>1402.7</ele>
        <time>2024-09-19T10:22:40Z</time>
      </trkpt>
      <trkpt lat="44.86445" lon="5.27085">
        <ele>1404.14</ele>
        <time>2024-09-19T10:22:56Z</time>
      </trkpt>
      <trkpt lat="44.86421" lon="5.27072">
        <ele>1405.58</ele>
        <time>2024-09-19T10:23:12Z</time>
      </trkpt>
      <trkpt lat="44.86409" lon="5.27067">
        <ele>1407.03</ele>
        <time>2024-09-19T10:23:23Z</time>
      </trkpt>
      <trkpt lat="44.86407" lon="5.27066">
        <ele>1407.03</ele>
        <time>2024-09-19T10:23:24Z</time>
      </trkpt>
      <trkpt lat="44.86388" lon="5.27074">
        <ele>1410.39</ele>
        <time>2024-09-19T10:23:37Z</time>
      </trkpt>
      <trkpt lat="44.86387" lon="5.27074">
        <ele>1410.87</ele>
        <time>2024-09-19T10:23:38Z</time>
      </trkpt>
      <trkpt lat="44.86386" lon="5.27073">
        <ele>1410.87</ele>
        <time>2024-09-19T10:23:39Z</time>
      </trkpt>
      <trkpt lat="44.86385" lon="5.27072">
        <ele>1410.87</ele>
        <time>2024-09-19T10:23:40Z</time>
      </trkpt>
      <trkpt lat="44.86384" lon="5.27071">
        <ele>1410.87</ele>
        <time>2024-09-19T10:23:41Z</time>
      </trkpt>
      <trkpt lat="44.86383" lon="5.27071">
        <ele>1410.87</ele>
        <time>2024-09-19T10:23:42Z</time>
      </trkpt>
      <trkpt lat="44.86382" lon="5.2707">
        <ele>1410.87</ele>
        <time>2024-09-19T10:23:43Z</time>
      </trkpt>
      <trkpt lat="44.86357" lon="5.27047">
        <ele>1411.83</ele>
        <time>2024-09-19T10:24:04Z</time>
      </trkpt>
      <trkpt lat="44.8634" lon="5.27024">
        <ele>1411.83</ele>
        <time>2024-09-19T10:24:19Z</time>
      </trkpt>
      <trkpt lat="44.86318" lon="5.27004">
        <ele>1410.87</ele>
        <time>2024-09-19T10:24:34Z</time>
      </trkpt>
      <trkpt lat="44.86296" lon="5.26985">
        <ele>1411.35</ele>
        <time>2024-09-19T10:24:51Z</time>
      </trkpt>
      <trkpt lat="44.86272" lon="5.26964">
        <ele>1411.35</ele>
        <time>2024-09-19T10:25:04Z</time>
      </trkpt>
      <trkpt lat="44.86248" lon="5.26949">
        <ele>1411.83</ele>
        <time>2024-09-19T10:25:24Z</time>
      </trkpt>
      <trkpt lat="44.86224" lon="5.26936">
        <ele>1413.28</ele>
        <time>2024-09-19T10:25:39Z</time>
      </trkpt>
      <trkpt lat="44.86197" lon="5.26912">
        <ele>1416.16</ele>
        <time>2024-09-19T10:26:02Z</time>
      </trkpt>
      <trkpt lat="44.86175" lon="5.26888">
        <ele>1418.08</ele>
        <time>2024-09-19T10:26:17Z</time>
      </trkpt>
      <trkpt lat="44.86161" lon="5.26856">
        <ele>1418.08</ele>
        <time>2024-09-19T10:26:35Z</time>
      </trkpt>
      <trkpt lat="44.8614" lon="5.26829">
        <ele>1417.12</ele>
        <time>2024-09-19T10:26:49Z</time>
      </trkpt>
      <trkpt lat="44.86119" lon="5.26806">
        <ele>1418.56</ele>
        <time>2024-09-19T10:27:07Z</time>
      </trkpt>
      <trkpt lat="44.86102" lon="5.2678">
        <ele>1420</ele>
        <time>2024-09-19T10:27:25Z</time>
      </trkpt>
      <trkpt lat="44.86083" lon="5.26742">
        <ele>1419.52</ele>
        <time>2024-09-19T10:27:42Z</time>
      </trkpt>
      <trkpt lat="44.86066" lon="5.26713">
        <ele>1417.6</ele>
        <time>2024-09-19T10:27:57Z</time>
      </trkpt>
      <trkpt lat="44.86047" lon="5.26684">
        <ele>1416.64</ele>
        <time>2024-09-19T10:28:16Z</time>
      </trkpt>
      <trkpt lat="44.86026" lon="5.26657">
        <ele>1418.08</ele>
        <time>2024-09-19T10:28:35Z</time>
      </trkpt>
      <trkpt lat="44.86002" lon="5.26632">
        <ele>1418.08</ele>
        <time>2024-09-19T10:28:54Z</time>
      </trkpt>
      <trkpt lat="44.85982" lon="5.26613">
        <ele>1418.56</ele>
        <time>2024-09-19T10:29:09Z</time>
      </trkpt>
      <trkpt lat="44.85959" lon="5.26591">
        <ele>1418.56</ele>
        <time>2024-09-19T10:29:28Z</time>
      </trkpt>
      <trkpt lat="44.85933" lon="5.2657">
        <ele>1419.52</ele>
        <time>2024-09-19T10:29:46Z</time>
      </trkpt>
      <trkpt lat="44.85903" lon="5.2655">
        <ele>1419.04</ele>
        <time>2024-09-19T10:30:07Z</time>
      </trkpt>
      <trkpt lat="44.85879" lon="5.26528">
        <ele>1419.52</ele>
        <time>2024-09-19T10:30:24Z</time>
      </trkpt>
      <trkpt lat="44.85855" lon="5.26505">
        <ele>1417.6</ele>
        <time>2024-09-19T10:30:42Z</time>
      </trkpt>
      <trkpt lat="44.85833" lon="5.26485">
        <ele>1416.16</ele>
        <time>2024-09-19T10:30:55Z</time>
      </trkpt>
      <trkpt lat="44.85805" lon="5.26464">
        <ele>1415.68</ele>
        <time>2024-09-19T10:31:16Z</time>
      </trkpt>
      <trkpt lat="44.85779" lon="5.26448">
        <ele>1416.64</ele>
        <time>2024-09-19T10:31:35Z</time>
      </trkpt>
      <trkpt lat="44.85756" lon="5.26424">
        <ele>1416.64</ele>
        <time>2024-09-19T10:31:54Z</time>
      </trkpt>
      <trkpt lat="44.85744" lon="5.26392">
        <ele>1414.24</ele>
        <time>2024-09-19T10:32:11Z</time>
      </trkpt>
      <trkpt lat="44.85735" lon="5.2636">
        <ele>1411.35</ele>
        <time>2024-09-19T10:32:26Z</time>
      </trkpt>
      <trkpt lat="44.85723" lon="5.26323">
        <ele>1407.99</ele>
        <time>2024-09-19T10:32:41Z</time>
      </trkpt>
      <trkpt lat="44.85717" lon="5.26288">
        <ele>1407.03</ele>
        <time>2024-09-19T10:32:59Z</time>
      </trkpt>
      <trkpt lat="44.85713" lon="5.26254">
        <ele>1407.51</ele>
        <time>2024-09-19T10:33:15Z</time>
      </trkpt>
      <trkpt lat="44.85707" lon="5.26222">
        <ele>1407.51</ele>
        <time>2024-09-19T10:33:29Z</time>
      </trkpt>
      <trkpt lat="44.85699" lon="5.26188">
        <ele>1406.55</ele>
        <time>2024-09-19T10:33:46Z</time>
      </trkpt>
      <trkpt lat="44.85689" lon="5.26156">
        <ele>1404.14</ele>
        <time>2024-09-19T10:33:59Z</time>
      </trkpt>
      <trkpt lat="44.85679" lon="5.26128">
        <ele>1402.22</ele>
        <time>2024-09-19T10:34:11Z</time>
      </trkpt>
      <trkpt lat="44.85667" lon="5.26094">
        <ele>1400.78</ele>
        <time>2024-09-19T10:34:25Z</time>
      </trkpt>
      <trkpt lat="44.85657" lon="5.26055">
        <ele>1400.3</ele>
        <time>2024-09-19T10:34:44Z</time>
      </trkpt>
      <trkpt lat="44.85643" lon="5.26029">
        <ele>1402.22</ele>
        <time>2024-09-19T10:35:00Z</time>
      </trkpt>
      <trkpt lat="44.85622" lon="5.26014">
        <ele>1403.18</ele>
        <time>2024-09-19T10:35:15Z</time>
      </trkpt>
      <trkpt lat="44.85599" lon="5.26003">
        <ele>1403.66</ele>
        <time>2024-09-19T10:35:30Z</time>
      </trkpt>
      <trkpt lat="44.85574" lon="5.25988">
        <ele>1407.03</ele>
        <time>2024-09-19T10:35:47Z</time>
      </trkpt>
      <trkpt lat="44.8556" lon="5.25982">
        <ele>1407.03</ele>
        <time>2024-09-19T10:35:54Z</time>
      </trkpt>
      <trkpt lat="44.85559" lon="5.25982">
        <ele>1407.03</ele>
        <time>2024-09-19T10:35:55Z</time>
      </trkpt>
      <trkpt lat="44.85553" lon="5.25986">
        <ele>1405.58</ele>
        <time>2024-09-19T10:36:10Z</time>
      </trkpt>
      <trkpt lat="44.85552" lon="5.25989">
        <ele>1406.07</ele>
        <time>2024-09-19T10:36:25Z</time>
      </trkpt>
      <trkpt lat="44.85549" lon="5.25994">
        <ele>1407.03</ele>
        <time>2024-09-19T10:36:39Z</time>
      </trkpt>
      <trkpt lat="44.85545" lon="5.25988">
        <ele>1406.55</ele>
        <time>2024-09-19T10:36:45Z</time>
      </trkpt>
      <trkpt lat="44.85544" lon="5.25986">
        <ele>1406.55</ele>
        <time>2024-09-19T10:36:46Z</time>
      </trkpt>
      <trkpt lat="44.85525" lon="5.25972">
        <ele>1406.07</ele>
        <time>2024-09-19T10:36:59Z</time>
      </trkpt>
      <trkpt lat="44.85503" lon="5.25956">
        <ele>1407.99</ele>
        <time>2024-09-19T10:37:13Z</time>
      </trkpt>
      <trkpt lat="44.85478" lon="5.25937">
        <ele>1408.47</ele>
        <time>2024-09-19T10:37:29Z</time>
      </trkpt>
      <trkpt lat="44.85458" lon="5.25922">
        <ele>1408.95</ele>
        <time>2024-09-19T10:37:42Z</time>
      </trkpt>
      <trkpt lat="44.85435" lon="5.25903">
        <ele>1410.39</ele>
        <time>2024-09-19T10:38:02Z</time>
      </trkpt>
      <trkpt lat="44.8541" lon="5.25882">
        <ele>1411.83</ele>
        <time>2024-09-19T10:38:21Z</time>
      </trkpt>
      <trkpt lat="44.85395" lon="5.25863">
        <ele>1413.76</ele>
        <time>2024-09-19T10:38:34Z</time>
      </trkpt>
      <trkpt lat="44.85379" lon="5.25829">
        <ele>1418.56</ele>
        <time>2024-09-19T10:38:51Z</time>
      </trkpt>
      <trkpt lat="44.85365" lon="5.25801">
        <ele>1422.89</ele>
        <time>2024-09-19T10:39:08Z</time>
      </trkpt>
      <trkpt lat="44.85349" lon="5.25768">
        <ele>1430.58</ele>
        <time>2024-09-19T10:39:25Z</time>
      </trkpt>
      <trkpt lat="44.85343" lon="5.25753">
        <ele>1434.91</ele>
        <time>2024-09-19T10:39:37Z</time>
      </trkpt>
      <trkpt lat="44.85343" lon="5.25744">
        <ele>1436.83</ele>
        <time>2024-09-19T10:39:43Z</time>
      </trkpt>
      <trkpt lat="44.85346" lon="5.25741">
        <ele>1437.79</ele>
        <time>2024-09-19T10:39:48Z</time>
      </trkpt>
      <trkpt lat="44.85347" lon="5.25739">
        <ele>1438.27</ele>
        <time>2024-09-19T10:39:49Z</time>
      </trkpt>
      <trkpt lat="44.85367" lon="5.25715">
        <ele>1440.19</ele>
        <time>2024-09-19T10:40:10Z</time>
      </trkpt>
      <trkpt lat="44.85388" lon="5.25691">
        <ele>1439.71</ele>
        <time>2024-09-19T10:40:29Z</time>
      </trkpt>
      <trkpt lat="44.85405" lon="5.25671">
        <ele>1440.19</ele>
        <time>2024-09-19T10:40:44Z</time>
      </trkpt>
      <trkpt lat="44.85432" lon="5.25638">
        <ele>1443.56</ele>
        <time>2024-09-19T10:41:05Z</time>
      </trkpt>
      <trkpt lat="44.85447" lon="5.25616">
        <ele>1446.44</ele>
        <time>2024-09-19T10:41:22Z</time>
      </trkpt>
      <trkpt lat="44.85465" lon="5.25597">
        <ele>1450.29</ele>
        <time>2024-09-19T10:41:34Z</time>
      </trkpt>
      <trkpt lat="44.85471" lon="5.25594">
        <ele>1452.21</ele>
        <time>2024-09-19T10:41:41Z</time>
      </trkpt>
      <trkpt lat="44.8549" lon="5.25587">
        <ele>1455.57</ele>
        <time>2024-09-19T10:41:53Z</time>
      </trkpt>
      <trkpt lat="44.8551" lon="5.25574">
        <ele>1461.82</ele>
        <time>2024-09-19T10:42:13Z</time>
      </trkpt>
      <trkpt lat="44.85527" lon="5.25565">
        <ele>1466.63</ele>
        <time>2024-09-19T10:42:29Z</time>
      </trkpt>
      <trkpt lat="44.85543" lon="5.25545">
        <ele>1473.36</ele>
        <time>2024-09-19T10:42:48Z</time>
      </trkpt>
      <trkpt lat="44.8555" lon="5.25538">
        <ele>1475.28</ele>
        <time>2024-09-19T10:42:55Z</time>
      </trkpt>
      <trkpt lat="44.8555" lon="5.25536">
        <ele>1475.76</ele>
        <time>2024-09-19T10:42:56Z</time>
      </trkpt>
      <trkpt lat="44.85551" lon="5.25535">
        <ele>1475.76</ele>
        <time>2024-09-19T10:42:57Z</time>
      </trkpt>
      <trkpt lat="44.85552" lon="5.25533">
        <ele>1476.24</ele>
        <time>2024-09-19T10:42:58Z</time>
      </trkpt>
      <trkpt lat="44.85553" lon="5.25532">
        <ele>1476.72</ele>
        <time>2024-09-19T10:42:59Z</time>
      </trkpt>
      <trkpt lat="44.85554" lon="5.25531">
        <ele>1477.2</ele>
        <time>2024-09-19T10:43:00Z</time>
      </trkpt>
      <trkpt lat="44.85555" lon="5.2553">
        <ele>1477.68</ele>
        <time>2024-09-19T10:43:01Z</time>
      </trkpt>
      <trkpt lat="44.85555" lon="5.25528">
        <ele>1478.16</ele>
        <time>2024-09-19T10:43:02Z</time>
      </trkpt>
      <trkpt lat="44.8557" lon="5.25503">
        <ele>1482.49</ele>
        <time>2024-09-19T10:43:21Z</time>
      </trkpt>
      <trkpt lat="44.85583" lon="5.25474">
        <ele>1488.26</ele>
        <time>2024-09-19T10:43:41Z</time>
      </trkpt>
      <trkpt lat="44.85598" lon="5.25443">
        <ele>1493.55</ele>
        <time>2024-09-19T10:43:56Z</time>
      </trkpt>
      <trkpt lat="44.85611" lon="5.25422">
        <ele>1495.95</ele>
        <time>2024-09-19T10:44:13Z</time>
      </trkpt>
      <trkpt lat="44.85631" lon="5.25403">
        <ele>1498.35</ele>
        <time>2024-09-19T10:44:33Z</time>
      </trkpt>
      <trkpt lat="44.85653" lon="5.25376">
        <ele>1501.72</ele>
        <time>2024-09-19T10:44:54Z</time>
      </trkpt>
      <trkpt lat="44.85664" lon="5.25358">
        <ele>1503.16</ele>
        <time>2024-09-19T10:45:12Z</time>
      </trkpt>
      <trkpt lat="44.85675" lon="5.25351">
        <ele>1503.16</ele>
        <time>2024-09-19T10:45:31Z</time>
      </trkpt>
      <trkpt lat="44.85696" lon="5.2533">
        <ele>1503.16</ele>
        <time>2024-09-19T10:45:52Z</time>
      </trkpt>
      <trkpt lat="44.85722" lon="5.25322">
        <ele>1505.08</ele>
        <time>2024-09-19T10:46:12Z</time>
      </trkpt>
      <trkpt lat="44.8575" lon="5.25322">
        <ele>1506.04</ele>
        <time>2024-09-19T10:46:34Z</time>
      </trkpt>
      <trkpt lat="44.85764" lon="5.25317">
        <ele>1504.6</ele>
        <time>2024-09-19T10:46:51Z</time>
      </trkpt>
      <trkpt lat="44.85765" lon="5.25315">
        <ele>1503.16</ele>
        <time>2024-09-19T10:47:24Z</time>
      </trkpt>
      <trkpt lat="44.85765" lon="5.25315">
        <ele>1506.52</ele>
        <time>2024-09-19T10:48:00Z</time>
      </trkpt>
      <trkpt lat="44.85764" lon="5.25317">
        <ele>1503.64</ele>
        <time>2024-09-19T10:48:28Z</time>
      </trkpt>
      <trkpt lat="44.85764" lon="5.25319">
        <ele>1502.2</ele>
        <time>2024-09-19T10:49:02Z</time>
      </trkpt>
      <trkpt lat="44.85763" lon="5.25317">
        <ele>1506.04</ele>
        <time>2024-09-19T10:49:27Z</time>
      </trkpt>
      <trkpt lat="44.85763" lon="5.25315">
        <ele>1506.52</ele>
        <time>2024-09-19T10:49:53Z</time>
      </trkpt>
      <trkpt lat="44.85779" lon="5.25314">
        <ele>1505.08</ele>
        <time>2024-09-19T10:50:09Z</time>
      </trkpt>
      <trkpt lat="44.858" lon="5.25311">
        <ele>1502.2</ele>
        <time>2024-09-19T10:50:27Z</time>
      </trkpt>
      <trkpt lat="44.85822" lon="5.25304">
        <ele>1498.83</ele>
        <time>2024-09-19T10:50:44Z</time>
      </trkpt>
      <trkpt lat="44.85849" lon="5.25296">
        <ele>1494.03</ele>
        <time>2024-09-19T10:51:04Z</time>
      </trkpt>
      <trkpt lat="44.85861" lon="5.25289">
        <ele>1492.58</ele>
        <time>2024-09-19T10:51:13Z</time>
      </trkpt>
      <trkpt lat="44.85887" lon="5.25281">
        <ele>1487.78</ele>
        <time>2024-09-19T10:51:31Z</time>
      </trkpt>
      <trkpt lat="44.85915" lon="5.25272">
        <ele>1483.93</ele>
        <time>2024-09-19T10:51:50Z</time>
      </trkpt>
      <trkpt lat="44.85937" lon="5.25267">
        <ele>1484.89</ele>
        <time>2024-09-19T10:52:07Z</time>
      </trkpt>
      <trkpt lat="44.85962" lon="5.25265">
        <ele>1485.85</ele>
        <time>2024-09-19T10:52:25Z</time>
      </trkpt>
      <trkpt lat="44.85986" lon="5.25262">
        <ele>1486.34</ele>
        <time>2024-09-19T10:52:42Z</time>
      </trkpt>
      <trkpt lat="44.86009" lon="5.25259">
        <ele>1485.85</ele>
        <time>2024-09-19T10:52:58Z</time>
      </trkpt>
      <trkpt lat="44.86032" lon="5.2525">
        <ele>1483.93</ele>
        <time>2024-09-19T10:53:15Z</time>
      </trkpt>
      <trkpt lat="44.86054" lon="5.25235">
        <ele>1483.45</ele>
        <time>2024-09-19T10:53:32Z</time>
      </trkpt>
      <trkpt lat="44.86075" lon="5.25207">
        <ele>1482.97</ele>
        <time>2024-09-19T10:53:53Z</time>
      </trkpt>
      <trkpt lat="44.86094" lon="5.25179">
        <ele>1482.01</ele>
        <time>2024-09-19T10:54:12Z</time>
      </trkpt>
      <trkpt lat="44.86114" lon="5.25145">
        <ele>1478.65</ele>
        <time>2024-09-19T10:54:33Z</time>
      </trkpt>
      <trkpt lat="44.86127" lon="5.2511">
        <ele>1477.68</ele>
        <time>2024-09-19T10:54:53Z</time>
      </trkpt>
      <trkpt lat="44.8613" lon="5.25077">
        <ele>1479.13</ele>
        <time>2024-09-19T10:55:12Z</time>
      </trkpt>
      <trkpt lat="44.8613" lon="5.25075">
        <ele>1481.05</ele>
        <time>2024-09-19T10:55:32Z</time>
      </trkpt>
      <trkpt lat="44.8613" lon="5.25074">
        <ele>1482.01</ele>
        <time>2024-09-19T10:55:51Z</time>
      </trkpt>
      <trkpt lat="44.86131" lon="5.25072">
        <ele>1481.53</ele>
        <time>2024-09-19T10:56:03Z</time>
      </trkpt>
      <trkpt lat="44.86132" lon="5.25058">
        <ele>1479.61</ele>
        <time>2024-09-19T10:56:16Z</time>
      </trkpt>
      <trkpt lat="44.86132" lon="5.25049">
        <ele>1477.68</ele>
        <time>2024-09-19T10:56:33Z</time>
      </trkpt>
      <trkpt lat="44.86133" lon="5.25036">
        <ele>1475.76</ele>
        <time>2024-09-19T10:56:51Z</time>
      </trkpt>
      <trkpt lat="44.86138" lon="5.25028">
        <ele>1474.32</ele>
        <time>2024-09-19T10:57:04Z</time>
      </trkpt>
      <trkpt lat="44.86142" lon="5.25021">
        <ele>1472.4</ele>
        <time>2024-09-19T10:57:12Z</time>
      </trkpt>
      <trkpt lat="44.86152" lon="5.25005">
        <ele>1468.55</ele>
        <time>2024-09-19T10:57:28Z</time>
      </trkpt>
      <trkpt lat="44.86161" lon="5.24993">
        <ele>1465.19</ele>
        <time>2024-09-19T10:57:42Z</time>
      </trkpt>
      <trkpt lat="44.8617" lon="5.2498">
        <ele>1461.34</ele>
        <time>2024-09-19T10:57:58Z</time>
      </trkpt>
      <trkpt lat="44.86177" lon="5.24972">
        <ele>1459.9</ele>
        <time>2024-09-19T10:58:10Z</time>
      </trkpt>
      <trkpt lat="44.86178" lon="5.24972">
        <ele>1459.9</ele>
        <time>2024-09-19T10:58:11Z</time>
      </trkpt>
      <trkpt lat="44.86189" lon="5.2496">
        <ele>1456.05</ele>
        <time>2024-09-19T10:58:26Z</time>
      </trkpt>
      <trkpt lat="44.86203" lon="5.24947">
        <ele>1451.73</ele>
        <time>2024-09-19T10:58:43Z</time>
      </trkpt>
      <trkpt lat="44.86215" lon="5.24938">
        <ele>1446.92</ele>
        <time>2024-09-19T10:58:57Z</time>
      </trkpt>
      <trkpt lat="44.86224" lon="5.24926">
        <ele>1443.56</ele>
        <time>2024-09-19T10:59:12Z</time>
      </trkpt>
      <trkpt lat="44.86234" lon="5.24914">
        <ele>1440.67</ele>
        <time>2024-09-19T10:59:28Z</time>
      </trkpt>
      <trkpt lat="44.8624" lon="5.24907">
        <ele>1438.27</ele>
        <time>2024-09-19T10:59:37Z</time>
      </trkpt>
      <trkpt lat="44.8624" lon="5.24907">
        <ele>1437.79</ele>
        <time>2024-09-19T10:59:38Z</time>
      </trkpt>
      <trkpt lat="44.86253" lon="5.24895">
        <ele>1433.46</ele>
        <time>2024-09-19T10:59:55Z</time>
      </trkpt>
      <trkpt lat="44.86256" lon="5.24891">
        <ele>1432.98</ele>
        <time>2024-09-19T11:00:12Z</time>
      </trkpt>
      <trkpt lat="44.86265" lon="5.24882">
        <ele>1429.62</ele>
        <time>2024-09-19T11:00:28Z</time>
      </trkpt>
      <trkpt lat="44.86275" lon="5.24873">
        <ele>1426.25</ele>
        <time>2024-09-19T11:00:42Z</time>
      </trkpt>
      <trkpt lat="44.8628" lon="5.24867">
        <ele>1424.33</ele>
        <time>2024-09-19T11:00:55Z</time>
      </trkpt>
      <trkpt lat="44.86289" lon="5.24861">
        <ele>1424.33</ele>
        <time>2024-09-19T11:01:08Z</time>
      </trkpt>
      <trkpt lat="44.86293" lon="5.24852">
        <ele>1422.41</ele>
        <time>2024-09-19T11:01:19Z</time>
      </trkpt>
      <trkpt lat="44.86294" lon="5.24851">
        <ele>1421.93</ele>
        <time>2024-09-19T11:01:20Z</time>
      </trkpt>
      <trkpt lat="44.86302" lon="5.24846">
        <ele>1419.52</ele>
        <time>2024-09-19T11:01:30Z</time>
      </trkpt>
      <trkpt lat="44.86302" lon="5.24845">
        <ele>1419.04</ele>
        <time>2024-09-19T11:01:31Z</time>
      </trkpt>
      <trkpt lat="44.86303" lon="5.24844">
        <ele>1419.04</ele>
        <time>2024-09-19T11:01:32Z</time>
      </trkpt>
      <trkpt lat="44.86305" lon="5.2484">
        <ele>1417.6</ele>
        <time>2024-09-19T11:01:37Z</time>
      </trkpt>
      <trkpt lat="44.86306" lon="5.2484">
        <ele>1417.6</ele>
        <time>2024-09-19T11:01:38Z</time>
      </trkpt>
      <trkpt lat="44.86319" lon="5.24829">
        <ele>1412.79</ele>
        <time>2024-09-19T11:01:54Z</time>
      </trkpt>
      <trkpt lat="44.86331" lon="5.24824">
        <ele>1411.83</ele>
        <time>2024-09-19T11:02:13Z</time>
      </trkpt>
      <trkpt lat="44.86333" lon="5.24824">
        <ele>1412.79</ele>
        <time>2024-09-19T11:02:28Z</time>
      </trkpt>
      <trkpt lat="44.86349" lon="5.24818">
        <ele>1409.43</ele>
        <time>2024-09-19T11:02:43Z</time>
      </trkpt>
      <trkpt lat="44.86366" lon="5.24813">
        <ele>1408.95</ele>
        <time>2024-09-19T11:02:57Z</time>
      </trkpt>
      <trkpt lat="44.86383" lon="5.24807">
        <ele>1408.47</ele>
        <time>2024-09-19T11:03:11Z</time>
      </trkpt>
      <trkpt lat="44.86397" lon="5.24793">
        <ele>1406.07</ele>
        <time>2024-09-19T11:03:27Z</time>
      </trkpt>
      <trkpt lat="44.86398" lon="5.24793">
        <ele>1405.58</ele>
        <time>2024-09-19T11:03:28Z</time>
      </trkpt>
      <trkpt lat="44.86418" lon="5.24782">
        <ele>1403.18</ele>
        <time>2024-09-19T11:03:44Z</time>
      </trkpt>
      <trkpt lat="44.86428" lon="5.24767">
        <ele>1401.74</ele>
        <time>2024-09-19T11:03:56Z</time>
      </trkpt>
      <trkpt lat="44.86437" lon="5.24756">
        <ele>1398.37</ele>
        <time>2024-09-19T11:04:05Z</time>
      </trkpt>
      <trkpt lat="44.86438" lon="5.24755">
        <ele>1397.89</ele>
        <time>2024-09-19T11:04:06Z</time>
      </trkpt>
      <trkpt lat="44.86439" lon="5.24754">
        <ele>1397.41</ele>
        <time>2024-09-19T11:04:07Z</time>
      </trkpt>
      <trkpt lat="44.8644" lon="5.24753">
        <ele>1397.41</ele>
        <time>2024-09-19T11:04:08Z</time>
      </trkpt>
      <trkpt lat="44.86441" lon="5.24752">
        <ele>1396.93</ele>
        <time>2024-09-19T11:04:09Z</time>
      </trkpt>
      <trkpt lat="44.86457" lon="5.24733">
        <ele>1396.45</ele>
        <time>2024-09-19T11:04:25Z</time>
      </trkpt>
      <trkpt lat="44.86461" lon="5.24725">
        <ele>1395.49</ele>
        <time>2024-09-19T11:04:31Z</time>
      </trkpt>
      <trkpt lat="44.86472" lon="5.247">
        <ele>1394.05</ele>
        <time>2024-09-19T11:04:48Z</time>
      </trkpt>
      <trkpt lat="44.86484" lon="5.24673">
        <ele>1393.57</ele>
        <time>2024-09-19T11:05:05Z</time>
      </trkpt>
      <trkpt lat="44.86489" lon="5.24659">
        <ele>1394.05</ele>
        <time>2024-09-19T11:05:15Z</time>
      </trkpt>
      <trkpt lat="44.86497" lon="5.24637">
        <ele>1393.57</ele>
        <time>2024-09-19T11:05:32Z</time>
      </trkpt>
      <trkpt lat="44.86501" lon="5.24627">
        <ele>1394.53</ele>
        <time>2024-09-19T11:05:53Z</time>
      </trkpt>
      <trkpt lat="44.86509" lon="5.24603">
        <ele>1393.09</ele>
        <time>2024-09-19T11:06:09Z</time>
      </trkpt>
      <trkpt lat="44.86523" lon="5.24571">
        <ele>1391.17</ele>
        <time>2024-09-19T11:06:29Z</time>
      </trkpt>
      <trkpt lat="44.86533" lon="5.24549">
        <ele>1388.76</ele>
        <time>2024-09-19T11:06:44Z</time>
      </trkpt>
      <trkpt lat="44.86543" lon="5.24531">
        <ele>1387.8</ele>
        <time>2024-09-19T11:06:58Z</time>
      </trkpt>
      <trkpt lat="44.86545" lon="5.24526">
        <ele>1387.32</ele>
        <time>2024-09-19T11:07:01Z</time>
      </trkpt>
      <trkpt lat="44.86556" lon="5.24497">
        <ele>1383.47</ele>
        <time>2024-09-19T11:07:19Z</time>
      </trkpt>
      <trkpt lat="44.86565" lon="5.24472">
        <ele>1385.4</ele>
        <time>2024-09-19T11:07:34Z</time>
      </trkpt>
      <trkpt lat="44.86575" lon="5.24448">
        <ele>1384.44</ele>
        <time>2024-09-19T11:07:50Z</time>
      </trkpt>
      <trkpt lat="44.86581" lon="5.24436">
        <ele>1383.96</ele>
        <time>2024-09-19T11:07:59Z</time>
      </trkpt>
      <trkpt lat="44.86582" lon="5.24433">
        <ele>1386.36</ele>
        <time>2024-09-19T11:08:13Z</time>
      </trkpt>
      <trkpt lat="44.86584" lon="5.24428">
        <ele>1386.84</ele>
        <time>2024-09-19T11:08:27Z</time>
      </trkpt>
      <trkpt lat="44.86586" lon="5.24424">
        <ele>1386.36</ele>
        <time>2024-09-19T11:08:41Z</time>
      </trkpt>
      <trkpt lat="44.86586" lon="5.24423">
        <ele>1386.36</ele>
        <time>2024-09-19T11:09:00Z</time>
      </trkpt>
      <trkpt lat="44.86586" lon="5.24421">
        <ele>1387.32</ele>
        <time>2024-09-19T11:09:21Z</time>
      </trkpt>
      <trkpt lat="44.86589" lon="5.24416">
        <ele>1387.8</ele>
        <time>2024-09-19T11:09:31Z</time>
      </trkpt>
      <trkpt lat="44.86597" lon="5.24403">
        <ele>1389.24</ele>
        <time>2024-09-19T11:09:44Z</time>
      </trkpt>
      <trkpt lat="44.86596" lon="5.24394">
        <ele>1391.17</ele>
        <time>2024-09-19T11:09:56Z</time>
      </trkpt>
      <trkpt lat="44.86596" lon="5.24396">
        <ele>1391.17</ele>
        <time>2024-09-19T11:10:13Z</time>
      </trkpt>
      <trkpt lat="44.86595" lon="5.24395">
        <ele>1390.68</ele>
        <time>2024-09-19T11:10:29Z</time>
      </trkpt>
      <trkpt lat="44.86596" lon="5.24394">
        <ele>1391.17</ele>
        <time>2024-09-19T11:10:45Z</time>
      </trkpt>
      <trkpt lat="44.866" lon="5.24391">
        <ele>1391.65</ele>
        <time>2024-09-19T11:10:59Z</time>
      </trkpt>
      <trkpt lat="44.866" lon="5.2439">
        <ele>1391.65</ele>
        <time>2024-09-19T11:11:14Z</time>
      </trkpt>
      <trkpt lat="44.86602" lon="5.24387">
        <ele>1392.61</ele>
        <time>2024-09-19T11:11:33Z</time>
      </trkpt>
      <trkpt lat="44.86614" lon="5.24366">
        <ele>1390.2</ele>
        <time>2024-09-19T11:11:48Z</time>
      </trkpt>
      <trkpt lat="44.8663" lon="5.24344">
        <ele>1388.76</ele>
        <time>2024-09-19T11:12:03Z</time>
      </trkpt>
      <trkpt lat="44.86648" lon="5.24321">
        <ele>1388.76</ele>
        <time>2024-09-19T11:12:17Z</time>
      </trkpt>
      <trkpt lat="44.86672" lon="5.24293">
        <ele>1386.84</ele>
        <time>2024-09-19T11:12:36Z</time>
      </trkpt>
      <trkpt lat="44.86689" lon="5.24271">
        <ele>1385.4</ele>
        <time>2024-09-19T11:12:51Z</time>
      </trkpt>
      <trkpt lat="44.86707" lon="5.24246">
        <ele>1384.92</ele>
        <time>2024-09-19T11:13:08Z</time>
      </trkpt>
      <trkpt lat="44.86725" lon="5.24233">
        <ele>1383.47</ele>
        <time>2024-09-19T11:13:22Z</time>
      </trkpt>
      <trkpt lat="44.86752" lon="5.24225">
        <ele>1381.55</ele>
        <time>2024-09-19T11:13:35Z</time>
      </trkpt>
      <trkpt lat="44.86777" lon="5.24238">
        <ele>1375.3</ele>
        <time>2024-09-19T11:13:55Z</time>
      </trkpt>
      <trkpt lat="44.86796" lon="5.24241">
        <ele>1370.5</ele>
        <time>2024-09-19T11:14:06Z</time>
      </trkpt>
      <trkpt lat="44.86817" lon="5.2424">
        <ele>1366.65</ele>
        <time>2024-09-19T11:14:22Z</time>
      </trkpt>
      <trkpt lat="44.86836" lon="5.2424">
        <ele>1360.88</ele>
        <time>2024-09-19T11:14:37Z</time>
      </trkpt>
      <trkpt lat="44.86856" lon="5.24232">
        <ele>1355.6</ele>
        <time>2024-09-19T11:14:52Z</time>
      </trkpt>
      <trkpt lat="44.86883" lon="5.24219">
        <ele>1354.15</ele>
        <time>2024-09-19T11:15:12Z</time>
      </trkpt>
      <trkpt lat="44.86886" lon="5.24218">
        <ele>1354.63</ele>
        <time>2024-09-19T11:15:14Z</time>
      </trkpt>
      <trkpt lat="44.86887" lon="5.24216">
        <ele>1354.63</ele>
        <time>2024-09-19T11:15:15Z</time>
      </trkpt>
      <trkpt lat="44.86888" lon="5.24215">
        <ele>1354.63</ele>
        <time>2024-09-19T11:15:16Z</time>
      </trkpt>
      <trkpt lat="44.86913" lon="5.242">
        <ele>1356.08</ele>
        <time>2024-09-19T11:15:34Z</time>
      </trkpt>
      <trkpt lat="44.86938" lon="5.2419">
        <ele>1356.08</ele>
        <time>2024-09-19T11:15:52Z</time>
      </trkpt>
      <trkpt lat="44.86958" lon="5.2418">
        <ele>1355.12</ele>
        <time>2024-09-19T11:16:08Z</time>
      </trkpt>
      <trkpt lat="44.86983" lon="5.24171">
        <ele>1351.27</ele>
        <time>2024-09-19T11:16:25Z</time>
      </trkpt>
      <trkpt lat="44.87005" lon="5.24168">
        <ele>1347.91</ele>
        <time>2024-09-19T11:16:42Z</time>
      </trkpt>
      <trkpt lat="44.87007" lon="5.24167">
        <ele>1347.91</ele>
        <time>2024-09-19T11:16:43Z</time>
      </trkpt>
      <trkpt lat="44.87031" lon="5.24167">
        <ele>1345.5</ele>
        <time>2024-09-19T11:17:00Z</time>
      </trkpt>
      <trkpt lat="44.87053" lon="5.24164">
        <ele>1344.54</ele>
        <time>2024-09-19T11:17:16Z</time>
      </trkpt>
      <trkpt lat="44.87078" lon="5.24164">
        <ele>1341.18</ele>
        <time>2024-09-19T11:17:33Z</time>
      </trkpt>
      <trkpt lat="44.871" lon="5.24161">
        <ele>1337.81</ele>
        <time>2024-09-19T11:17:49Z</time>
      </trkpt>
      <trkpt lat="44.87117" lon="5.2416">
        <ele>1333.97</ele>
        <time>2024-09-19T11:18:03Z</time>
      </trkpt>
      <trkpt lat="44.87134" lon="5.24157">
        <ele>1331.56</ele>
        <time>2024-09-19T11:18:19Z</time>
      </trkpt>
      <trkpt lat="44.8714" lon="5.24155">
        <ele>1330.6</ele>
        <time>2024-09-19T11:18:25Z</time>
      </trkpt>
      <trkpt lat="44.87151" lon="5.24154">
        <ele>1327.72</ele>
        <time>2024-09-19T11:18:37Z</time>
      </trkpt>
      <trkpt lat="44.87167" lon="5.24145">
        <ele>1323.39</ele>
        <time>2024-09-19T11:18:53Z</time>
      </trkpt>
      <trkpt lat="44.87179" lon="5.2414">
        <ele>1320.03</ele>
        <time>2024-09-19T11:19:04Z</time>
      </trkpt>
      <trkpt lat="44.87184" lon="5.24137">
        <ele>1319.55</ele>
        <time>2024-09-19T11:19:10Z</time>
      </trkpt>
      <trkpt lat="44.8719" lon="5.24135">
        <ele>1317.14</ele>
        <time>2024-09-19T11:19:15Z</time>
      </trkpt>
      <trkpt lat="44.87191" lon="5.24134">
        <ele>1316.66</ele>
        <time>2024-09-19T11:19:16Z</time>
      </trkpt>
      <trkpt lat="44.87192" lon="5.24133">
        <ele>1316.66</ele>
        <time>2024-09-19T11:19:17Z</time>
      </trkpt>
      <trkpt lat="44.87193" lon="5.24133">
        <ele>1316.18</ele>
        <time>2024-09-19T11:19:18Z</time>
      </trkpt>
      <trkpt lat="44.87194" lon="5.24132">
        <ele>1316.18</ele>
        <time>2024-09-19T11:19:19Z</time>
      </trkpt>
      <trkpt lat="44.87195" lon="5.24132">
        <ele>1315.7</ele>
        <time>2024-09-19T11:19:20Z</time>
      </trkpt>
      <trkpt lat="44.87197" lon="5.24131">
        <ele>1315.7</ele>
        <time>2024-09-19T11:19:21Z</time>
      </trkpt>
      <trkpt lat="44.87198" lon="5.24131">
        <ele>1315.22</ele>
        <time>2024-09-19T11:19:22Z</time>
      </trkpt>
      <trkpt lat="44.87199" lon="5.24131">
        <ele>1315.22</ele>
        <time>2024-09-19T11:19:23Z</time>
      </trkpt>
      <trkpt lat="44.872" lon="5.24131">
        <ele>1314.74</ele>
        <time>2024-09-19T11:19:24Z</time>
      </trkpt>
      <trkpt lat="44.87201" lon="5.2413">
        <ele>1314.74</ele>
        <time>2024-09-19T11:19:25Z</time>
      </trkpt>
      <trkpt lat="44.87202" lon="5.24129">
        <ele>1315.22</ele>
        <time>2024-09-19T11:19:26Z</time>
      </trkpt>
      <trkpt lat="44.87218" lon="5.24123">
        <ele>1312.34</ele>
        <time>2024-09-19T11:19:39Z</time>
      </trkpt>
      <trkpt lat="44.87237" lon="5.24113">
        <ele>1307.05</ele>
        <time>2024-09-19T11:19:55Z</time>
      </trkpt>
      <trkpt lat="44.87263" lon="5.24097">
        <ele>1304.17</ele>
        <time>2024-09-19T11:20:15Z</time>
      </trkpt>
      <trkpt lat="44.87286" lon="5.24097">
        <ele>1305.13</ele>
        <time>2024-09-19T11:20:32Z</time>
      </trkpt>
      <trkpt lat="44.87312" lon="5.24094">
        <ele>1307.05</ele>
        <time>2024-09-19T11:20:52Z</time>
      </trkpt>
      <trkpt lat="44.87334" lon="5.24108">
        <ele>1308.49</ele>
        <time>2024-09-19T11:21:10Z</time>
      </trkpt>
      <trkpt lat="44.87361" lon="5.24111">
        <ele>1309.93</ele>
        <time>2024-09-19T11:21:25Z</time>
      </trkpt>
      <trkpt lat="44.87381" lon="5.24115">
        <ele>1310.41</ele>
        <time>2024-09-19T11:21:41Z</time>
      </trkpt>
      <trkpt lat="44.87396" lon="5.24114">
        <ele>1311.38</ele>
        <time>2024-09-19T11:21:53Z</time>
      </trkpt>
      <trkpt lat="44.87398" lon="5.24115">
        <ele>1310.9</ele>
        <time>2024-09-19T11:21:54Z</time>
      </trkpt>
      <trkpt lat="44.87422" lon="5.24102">
        <ele>1315.7</ele>
        <time>2024-09-19T11:22:14Z</time>
      </trkpt>
      <trkpt lat="44.8744" lon="5.24091">
        <ele>1319.55</ele>
        <time>2024-09-19T11:22:30Z</time>
      </trkpt>
      <trkpt lat="44.87464" lon="5.24075">
        <ele>1322.43</ele>
        <time>2024-09-19T11:22:43Z</time>
      </trkpt>
      <trkpt lat="44.8748" lon="5.24064">
        <ele>1324.83</ele>
        <time>2024-09-19T11:22:57Z</time>
      </trkpt>
      <trkpt lat="44.87489" lon="5.24059">
        <ele>1326.28</ele>
        <time>2024-09-19T11:23:05Z</time>
      </trkpt>
      <trkpt lat="44.8749" lon="5.24058">
        <ele>1326.76</ele>
        <time>2024-09-19T11:23:06Z</time>
      </trkpt>
      <trkpt lat="44.87497" lon="5.24053">
        <ele>1327.24</ele>
        <time>2024-09-19T11:23:13Z</time>
      </trkpt>
      <trkpt lat="44.87498" lon="5.24052">
        <ele>1327.72</ele>
        <time>2024-09-19T11:23:14Z</time>
      </trkpt>
      <trkpt lat="44.87499" lon="5.24051">
        <ele>1327.72</ele>
        <time>2024-09-19T11:23:15Z</time>
      </trkpt>
      <trkpt lat="44.875" lon="5.2405">
        <ele>1328.2</ele>
        <time>2024-09-19T11:23:16Z</time>
      </trkpt>
      <trkpt lat="44.87501" lon="5.24049">
        <ele>1328.2</ele>
        <time>2024-09-19T11:23:17Z</time>
      </trkpt>
      <trkpt lat="44.87503" lon="5.24049">
        <ele>1328.68</ele>
        <time>2024-09-19T11:23:18Z</time>
      </trkpt>
      <trkpt lat="44.87526" lon="5.24033">
        <ele>1332.04</ele>
        <time>2024-09-19T11:23:37Z</time>
      </trkpt>
      <trkpt lat="44.87553" lon="5.24019">
        <ele>1332.52</ele>
        <time>2024-09-19T11:23:52Z</time>
      </trkpt>
      <trkpt lat="44.87569" lon="5.24011">
        <ele>1332.52</ele>
        <time>2024-09-19T11:24:04Z</time>
      </trkpt>
      <trkpt lat="44.87589" lon="5.24005">
        <ele>1333.01</ele>
        <time>2024-09-19T11:24:19Z</time>
      </trkpt>
      <trkpt lat="44.8761" lon="5.24004">
        <ele>1333.01</ele>
        <time>2024-09-19T11:24:31Z</time>
      </trkpt>
      <trkpt lat="44.87636" lon="5.24005">
        <ele>1333.01</ele>
        <time>2024-09-19T11:24:51Z</time>
      </trkpt>
      <trkpt lat="44.87661" lon="5.24005">
        <ele>1333.01</ele>
        <time>2024-09-19T11:25:05Z</time>
      </trkpt>
      <trkpt lat="44.87677" lon="5.24003">
        <ele>1334.45</ele>
        <time>2024-09-19T11:25:19Z</time>
      </trkpt>
      <trkpt lat="44.87695" lon="5.23999">
        <ele>1337.33</ele>
        <time>2024-09-19T11:25:33Z</time>
      </trkpt>
      <trkpt lat="44.87696" lon="5.23999">
        <ele>1337.33</ele>
        <time>2024-09-19T11:25:34Z</time>
      </trkpt>
      <trkpt lat="44.87717" lon="5.23997">
        <ele>1339.73</ele>
        <time>2024-09-19T11:25:51Z</time>
      </trkpt>
      <trkpt lat="44.87725" lon="5.23996">
        <ele>1340.7</ele>
        <time>2024-09-19T11:25:58Z</time>
      </trkpt>
      <trkpt lat="44.87727" lon="5.23997">
        <ele>1340.7</ele>
        <time>2024-09-19T11:25:59Z</time>
      </trkpt>
      <trkpt lat="44.87747" lon="5.23999">
        <ele>1338.29</ele>
        <time>2024-09-19T11:26:14Z</time>
      </trkpt>
      <trkpt lat="44.87753" lon="5.23997">
        <ele>1338.29</ele>
        <time>2024-09-19T11:26:18Z</time>
      </trkpt>
      <trkpt lat="44.87754" lon="5.23997">
        <ele>1338.29</ele>
        <time>2024-09-19T11:26:19Z</time>
      </trkpt>
      <trkpt lat="44.87755" lon="5.23998">
        <ele>1338.29</ele>
        <time>2024-09-19T11:26:20Z</time>
      </trkpt>
      <trkpt lat="44.87756" lon="5.23998">
        <ele>1338.29</ele>
        <time>2024-09-19T11:26:21Z</time>
      </trkpt>
      <trkpt lat="44.87757" lon="5.23998">
        <ele>1337.81</ele>
        <time>2024-09-19T11:26:22Z</time>
      </trkpt>
      <trkpt lat="44.87759" lon="5.23998">
        <ele>1337.81</ele>
        <time>2024-09-19T11:26:23Z</time>
      </trkpt>
      <trkpt lat="44.8776" lon="5.23998">
        <ele>1337.81</ele>
        <time>2024-09-19T11:26:24Z</time>
      </trkpt>
      <trkpt lat="44.87765" lon="5.23999">
        <ele>1337.33</ele>
        <time>2024-09-19T11:26:29Z</time>
      </trkpt>
      <trkpt lat="44.8777" lon="5.24">
        <ele>1335.89</ele>
        <time>2024-09-19T11:26:34Z</time>
      </trkpt>
      <trkpt lat="44.87771" lon="5.23999">
        <ele>1335.41</ele>
        <time>2024-09-19T11:26:35Z</time>
      </trkpt>
      <trkpt lat="44.87772" lon="5.23998">
        <ele>1334.93</ele>
        <time>2024-09-19T11:26:36Z</time>
      </trkpt>
      <trkpt lat="44.87773" lon="5.23998">
        <ele>1334.93</ele>
        <time>2024-09-19T11:26:37Z</time>
      </trkpt>
      <trkpt lat="44.87775" lon="5.23997">
        <ele>1334.45</ele>
        <time>2024-09-19T11:26:38Z</time>
      </trkpt>
      <trkpt lat="44.878" lon="5.23995">
        <ele>1333.49</ele>
        <time>2024-09-19T11:26:52Z</time>
      </trkpt>
      <trkpt lat="44.87815" lon="5.23995">
        <ele>1334.45</ele>
        <time>2024-09-19T11:27:02Z</time>
      </trkpt>
      <trkpt lat="44.87822" lon="5.24009">
        <ele>1334.93</ele>
        <time>2024-09-19T11:27:10Z</time>
      </trkpt>
      <trkpt lat="44.87834" lon="5.24032">
        <ele>1334.93</ele>
        <time>2024-09-19T11:27:24Z</time>
      </trkpt>
      <trkpt lat="44.87841" lon="5.24063">
        <ele>1332.52</ele>
        <time>2024-09-19T11:27:37Z</time>
      </trkpt>
      <trkpt lat="44.87846" lon="5.24075">
        <ele>1331.08</ele>
        <time>2024-09-19T11:27:49Z</time>
      </trkpt>
      <trkpt lat="44.87856" lon="5.24096">
        <ele>1331.08</ele>
        <time>2024-09-19T11:28:02Z</time>
      </trkpt>
      <trkpt lat="44.87867" lon="5.24108">
        <ele>1330.6</ele>
        <time>2024-09-19T11:28:17Z</time>
      </trkpt>
      <trkpt lat="44.87884" lon="5.24124">
        <ele>1329.64</ele>
        <time>2024-09-19T11:28:33Z</time>
      </trkpt>
      <trkpt lat="44.87898" lon="5.24134">
        <ele>1332.04</ele>
        <time>2024-09-19T11:28:46Z</time>
      </trkpt>
      <trkpt lat="44.87909" lon="5.24143">
        <ele>1331.56</ele>
        <time>2024-09-19T11:28:54Z</time>
      </trkpt>
      <trkpt lat="44.87918" lon="5.24151">
        <ele>1328.68</ele>
        <time>2024-09-19T11:29:00Z</time>
      </trkpt>
      <trkpt lat="44.87938" lon="5.24154">
        <ele>1326.28</ele>
        <time>2024-09-19T11:29:18Z</time>
      </trkpt>
      <trkpt lat="44.87957" lon="5.24161">
        <ele>1326.28</ele>
        <time>2024-09-19T11:29:34Z</time>
      </trkpt>
      <trkpt lat="44.87973" lon="5.24172">
        <ele>1326.28</ele>
        <time>2024-09-19T11:29:48Z</time>
      </trkpt>
      <trkpt lat="44.87987" lon="5.24183">
        <ele>1326.76</ele>
        <time>2024-09-19T11:30:01Z</time>
      </trkpt>
      <trkpt lat="44.88007" lon="5.24192">
        <ele>1328.2</ele>
        <time>2024-09-19T11:30:16Z</time>
      </trkpt>
      <trkpt lat="44.88021" lon="5.24192">
        <ele>1330.12</ele>
        <time>2024-09-19T11:30:29Z</time>
      </trkpt>
      <trkpt lat="44.88034" lon="5.24197">
        <ele>1332.04</ele>
        <time>2024-09-19T11:30:41Z</time>
      </trkpt>
      <trkpt lat="44.88035" lon="5.24197">
        <ele>1332.04</ele>
        <time>2024-09-19T11:30:42Z</time>
      </trkpt>
      <trkpt lat="44.8805" lon="5.24211">
        <ele>1330.12</ele>
        <time>2024-09-19T11:30:55Z</time>
      </trkpt>
      <trkpt lat="44.88073" lon="5.24225">
        <ele>1328.2</ele>
        <time>2024-09-19T11:31:12Z</time>
      </trkpt>
      <trkpt lat="44.88091" lon="5.24237">
        <ele>1331.56</ele>
        <time>2024-09-19T11:31:29Z</time>
      </trkpt>
      <trkpt lat="44.88108" lon="5.2424">
        <ele>1333.01</ele>
        <time>2024-09-19T11:31:44Z</time>
      </trkpt>
      <trkpt lat="44.88113" lon="5.24246">
        <ele>1331.08</ele>
        <time>2024-09-19T11:32:02Z</time>
      </trkpt>
      <trkpt lat="44.88114" lon="5.24259">
        <ele>1331.08</ele>
        <time>2024-09-19T11:32:31Z</time>
      </trkpt>
      <trkpt lat="44.88117" lon="5.24251">
        <ele>1324.83</ele>
        <time>2024-09-19T11:32:53Z</time>
      </trkpt>
      <trkpt lat="44.88112" lon="5.24247">
        <ele>1325.31</ele>
        <time>2024-09-19T11:33:11Z</time>
      </trkpt>
      <trkpt lat="44.88121" lon="5.24246">
        <ele>1323.87</ele>
        <time>2024-09-19T11:33:25Z</time>
      </trkpt>
      <trkpt lat="44.88138" lon="5.24247">
        <ele>1328.2</ele>
        <time>2024-09-19T11:33:40Z</time>
      </trkpt>
      <trkpt lat="44.88153" lon="5.2425">
        <ele>1330.12</ele>
        <time>2024-09-19T11:33:53Z</time>
      </trkpt>
      <trkpt lat="44.88166" lon="5.24259">
        <ele>1334.93</ele>
        <time>2024-09-19T11:34:08Z</time>
      </trkpt>
      <trkpt lat="44.88179" lon="5.24259">
        <ele>1338.77</ele>
        <time>2024-09-19T11:34:20Z</time>
      </trkpt>
      <trkpt lat="44.88193" lon="5.24261">
        <ele>1341.18</ele>
        <time>2024-09-19T11:34:33Z</time>
      </trkpt>
      <trkpt lat="44.8821" lon="5.24263">
        <ele>1342.14</ele>
        <time>2024-09-19T11:34:47Z</time>
      </trkpt>
      <trkpt lat="44.8823" lon="5.24276">
        <ele>1343.58</ele>
        <time>2024-09-19T11:35:00Z</time>
      </trkpt>
      <trkpt lat="44.88235" lon="5.24278">
        <ele>1345.5</ele>
        <time>2024-09-19T11:35:04Z</time>
      </trkpt>
      <trkpt lat="44.88261" lon="5.24275">
        <ele>1338.77</ele>
        <time>2024-09-19T11:35:16Z</time>
      </trkpt>
      <trkpt lat="44.88283" lon="5.24279">
        <ele>1323.87</ele>
        <time>2024-09-19T11:35:29Z</time>
      </trkpt>
      <trkpt lat="44.88301" lon="5.2428">
        <ele>1314.74</ele>
        <time>2024-09-19T11:35:40Z</time>
      </trkpt>
      <trkpt lat="44.8831" lon="5.24288">
        <ele>1310.9</ele>
        <time>2024-09-19T11:35:53Z</time>
      </trkpt>
      <trkpt lat="44.88311" lon="5.24289">
        <ele>1310.9</ele>
        <time>2024-09-19T11:35:54Z</time>
      </trkpt>
      <trkpt lat="44.88322" lon="5.24293">
        <ele>1314.26</ele>
        <time>2024-09-19T11:36:00Z</time>
      </trkpt>
      <trkpt lat="44.88338" lon="5.24309">
        <ele>1316.66</ele>
        <time>2024-09-19T11:36:15Z</time>
      </trkpt>
      <trkpt lat="44.88342" lon="5.24332">
        <ele>1315.22</ele>
        <time>2024-09-19T11:36:31Z</time>
      </trkpt>
      <trkpt lat="44.8834" lon="5.24354">
        <ele>1308.97</ele>
        <time>2024-09-19T11:36:50Z</time>
      </trkpt>
      <trkpt lat="44.88346" lon="5.24379">
        <ele>1298.88</ele>
        <time>2024-09-19T11:37:08Z</time>
      </trkpt>
      <trkpt lat="44.88332" lon="5.24413">
        <ele>1280.61</ele>
        <time>2024-09-19T11:37:31Z</time>
      </trkpt>
      <trkpt lat="44.88333" lon="5.24416">
        <ele>1270.52</ele>
        <time>2024-09-19T11:37:54Z</time>
      </trkpt>
      <trkpt lat="44.8833" lon="5.24421">
        <ele>1267.16</ele>
        <time>2024-09-19T11:38:14Z</time>
      </trkpt>
      <trkpt lat="44.8832" lon="5.24429">
        <ele>1258.98</ele>
        <time>2024-09-19T11:38:36Z</time>
      </trkpt>
      <trkpt lat="44.88319" lon="5.24439">
        <ele>1249.37</ele>
        <time>2024-09-19T11:39:00Z</time>
      </trkpt>
      <trkpt lat="44.88318" lon="5.24458">
        <ele>1243.6</ele>
        <time>2024-09-19T11:39:18Z</time>
      </trkpt>
      <trkpt lat="44.88315" lon="5.24491">
        <ele>1236.39</ele>
        <time>2024-09-19T11:39:34Z</time>
      </trkpt>
      <trkpt lat="44.8831" lon="5.245">
        <ele>1233.99</ele>
        <time>2024-09-19T11:39:40Z</time>
      </trkpt>
      <trkpt lat="44.8831" lon="5.24502">
        <ele>1233.51</ele>
        <time>2024-09-19T11:39:41Z</time>
      </trkpt>
      <trkpt lat="44.88307" lon="5.24527">
        <ele>1231.11</ele>
        <time>2024-09-19T11:39:58Z</time>
      </trkpt>
      <trkpt lat="44.88301" lon="5.2453">
        <ele>1231.11</ele>
        <time>2024-09-19T11:40:13Z</time>
      </trkpt>
      <trkpt lat="44.88299" lon="5.24533">
        <ele>1233.51</ele>
        <time>2024-09-19T11:40:41Z</time>
      </trkpt>
      <trkpt lat="44.88297" lon="5.24532">
        <ele>1236.39</ele>
        <time>2024-09-19T11:40:55Z</time>
      </trkpt>
      <trkpt lat="44.88297" lon="5.24531">
        <ele>1236.87</ele>
        <time>2024-09-19T11:40:57Z</time>
      </trkpt>
      <trkpt lat="44.88297" lon="5.2453">
        <ele>1235.43</ele>
        <time>2024-09-19T11:41:08Z</time>
      </trkpt>
      <trkpt lat="44.88297" lon="5.24529">
        <ele>1234.47</ele>
        <time>2024-09-19T11:41:18Z</time>
      </trkpt>
      <trkpt lat="44.88293" lon="5.24534">
        <ele>1234.95</ele>
        <time>2024-09-19T11:41:25Z</time>
      </trkpt>
      <trkpt lat="44.88283" lon="5.24539">
        <ele>1237.35</ele>
        <time>2024-09-19T11:41:36Z</time>
      </trkpt>
      <trkpt lat="44.88277" lon="5.24534">
        <ele>1236.87</ele>
        <time>2024-09-19T11:41:43Z</time>
      </trkpt>
      <trkpt lat="44.88276" lon="5.2453">
        <ele>1236.87</ele>
        <time>2024-09-19T11:41:55Z</time>
      </trkpt>
      <trkpt lat="44.88278" lon="5.2453">
        <ele>1235.91</ele>
        <time>2024-09-19T11:42:09Z</time>
      </trkpt>
      <trkpt lat="44.88278" lon="5.24528">
        <ele>1233.03</ele>
        <time>2024-09-19T11:42:26Z</time>
      </trkpt>
      <trkpt lat="44.88277" lon="5.24525">
        <ele>1234.47</ele>
        <time>2024-09-19T11:42:43Z</time>
      </trkpt>
      <trkpt lat="44.88278" lon="5.24525">
        <ele>1235.43</ele>
        <time>2024-09-19T11:43:03Z</time>
      </trkpt>
      <trkpt lat="44.88276" lon="5.24524">
        <ele>1236.39</ele>
        <time>2024-09-19T11:43:16Z</time>
      </trkpt>
      <trkpt lat="44.88276" lon="5.24527">
        <ele>1236.39</ele>
        <time>2024-09-19T11:43:35Z</time>
      </trkpt>
      <trkpt lat="44.88278" lon="5.24528">
        <ele>1236.39</ele>
        <time>2024-09-19T11:43:51Z</time>
      </trkpt>
      <trkpt lat="44.88281" lon="5.2453">
        <ele>1236.39</ele>
        <time>2024-09-19T11:44:14Z</time>
      </trkpt>
      <trkpt lat="44.88279" lon="5.24528">
        <ele>1237.83</ele>
        <time>2024-09-19T11:44:30Z</time>
      </trkpt>
      <trkpt lat="44.88278" lon="5.24527">
        <ele>1239.76</ele>
        <time>2024-09-19T11:44:53Z</time>
      </trkpt>
      <trkpt lat="44.88276" lon="5.2453">
        <ele>1239.28</ele>
        <time>2024-09-19T11:45:12Z</time>
      </trkpt>
      <trkpt lat="44.88275" lon="5.24529">
        <ele>1239.76</ele>
        <time>2024-09-19T11:45:33Z</time>
      </trkpt>
      <trkpt lat="44.88274" lon="5.24529">
        <ele>1239.76</ele>
        <time>2024-09-19T11:45:45Z</time>
      </trkpt>
      <trkpt lat="44.88274" lon="5.24529">
        <ele>1239.76</ele>
        <time>2024-09-19T11:45:50Z</time>
      </trkpt>
      <trkpt lat="44.88309" lon="5.246">
        <ele>1223.9</ele>
        <time>2024-09-19T13:28:43Z</time>
      </trkpt>
      <trkpt lat="44.88303" lon="5.24618">
        <ele>1224.86</ele>
        <time>2024-09-19T13:28:54Z</time>
      </trkpt>
      <trkpt lat="44.88304" lon="5.24642">
        <ele>1209.48</ele>
        <time>2024-09-19T13:29:09Z</time>
      </trkpt>
      <trkpt lat="44.88298" lon="5.24662">
        <ele>1205.15</ele>
        <time>2024-09-19T13:29:23Z</time>
      </trkpt>
      <trkpt lat="44.8828" lon="5.24678">
        <ele>1200.82</ele>
        <time>2024-09-19T13:29:39Z</time>
      </trkpt>
      <trkpt lat="44.8826" lon="5.24699">
        <ele>1200.34</ele>
        <time>2024-09-19T13:29:55Z</time>
      </trkpt>
      <trkpt lat="44.88236" lon="5.24726">
        <ele>1199.38</ele>
        <time>2024-09-19T13:30:13Z</time>
      </trkpt>
      <trkpt lat="44.8821" lon="5.24734">
        <ele>1206.11</ele>
        <time>2024-09-19T13:30:31Z</time>
      </trkpt>
      <trkpt lat="44.8819" lon="5.24752">
        <ele>1205.63</ele>
        <time>2024-09-19T13:30:49Z</time>
      </trkpt>
      <trkpt lat="44.88169" lon="5.24774">
        <ele>1203.71</ele>
        <time>2024-09-19T13:31:06Z</time>
      </trkpt>
      <trkpt lat="44.88149" lon="5.24795">
        <ele>1200.34</ele>
        <time>2024-09-19T13:31:23Z</time>
      </trkpt>
      <trkpt lat="44.88124" lon="5.2483">
        <ele>1198.42</ele>
        <time>2024-09-19T13:31:43Z</time>
      </trkpt>
      <trkpt lat="44.88113" lon="5.24868">
        <ele>1195.54</ele>
        <time>2024-09-19T13:32:02Z</time>
      </trkpt>
      <trkpt lat="44.88102" lon="5.24903">
        <ele>1195.06</ele>
        <time>2024-09-19T13:32:21Z</time>
      </trkpt>
      <trkpt lat="44.8809" lon="5.24942">
        <ele>1194.58</ele>
        <time>2024-09-19T13:32:41Z</time>
      </trkpt>
      <trkpt lat="44.88075" lon="5.24973">
        <ele>1196.5</ele>
        <time>2024-09-19T13:32:59Z</time>
      </trkpt>
      <trkpt lat="44.88069" lon="5.25003">
        <ele>1197.46</ele>
        <time>2024-09-19T13:33:14Z</time>
      </trkpt>
      <trkpt lat="44.8806" lon="5.25039">
        <ele>1197.46</ele>
        <time>2024-09-19T13:33:33Z</time>
      </trkpt>
      <trkpt lat="44.88055" lon="5.25072">
        <ele>1197.46</ele>
        <time>2024-09-19T13:33:50Z</time>
      </trkpt>
      <trkpt lat="44.8805" lon="5.25104">
        <ele>1200.82</ele>
        <time>2024-09-19T13:34:10Z</time>
      </trkpt>
      <trkpt lat="44.88053" lon="5.25134">
        <ele>1202.75</ele>
        <time>2024-09-19T13:34:31Z</time>
      </trkpt>
      <trkpt lat="44.88055" lon="5.25162">
        <ele>1204.19</ele>
        <time>2024-09-19T13:34:49Z</time>
      </trkpt>
      <trkpt lat="44.88059" lon="5.25181">
        <ele>1204.67</ele>
        <time>2024-09-19T13:35:09Z</time>
      </trkpt>
      <trkpt lat="44.88053" lon="5.25189">
        <ele>1205.63</ele>
        <time>2024-09-19T13:35:28Z</time>
      </trkpt>
      <trkpt lat="44.88055" lon="5.25191">
        <ele>1205.15</ele>
        <time>2024-09-19T13:35:44Z</time>
      </trkpt>
      <trkpt lat="44.8806" lon="5.25199">
        <ele>1207.55</ele>
        <time>2024-09-19T13:36:04Z</time>
      </trkpt>
      <trkpt lat="44.88069" lon="5.25224">
        <ele>1207.55</ele>
        <time>2024-09-19T13:36:21Z</time>
      </trkpt>
      <trkpt lat="44.88077" lon="5.25254">
        <ele>1208.03</ele>
        <time>2024-09-19T13:36:43Z</time>
      </trkpt>
      <trkpt lat="44.88094" lon="5.25292">
        <ele>1207.07</ele>
        <time>2024-09-19T13:37:06Z</time>
      </trkpt>
      <trkpt lat="44.88106" lon="5.25324">
        <ele>1207.55</ele>
        <time>2024-09-19T13:37:28Z</time>
      </trkpt>
      <trkpt lat="44.88117" lon="5.25356">
        <ele>1206.59</ele>
        <time>2024-09-19T13:37:48Z</time>
      </trkpt>
      <trkpt lat="44.88128" lon="5.25373">
        <ele>1206.59</ele>
        <time>2024-09-19T13:37:58Z</time>
      </trkpt>
      <trkpt lat="44.88149" lon="5.25399">
        <ele>1206.59</ele>
        <time>2024-09-19T13:38:18Z</time>
      </trkpt>
      <trkpt lat="44.88163" lon="5.25412">
        <ele>1212.36</ele>
        <time>2024-09-19T13:38:35Z</time>
      </trkpt>
      <trkpt lat="44.88165" lon="5.2542">
        <ele>1214.76</ele>
        <time>2024-09-19T13:38:42Z</time>
      </trkpt>
      <trkpt lat="44.88183" lon="5.25437">
        <ele>1223.9</ele>
        <time>2024-09-19T13:39:00Z</time>
      </trkpt>
      <trkpt lat="44.882" lon="5.25461">
        <ele>1227.74</ele>
        <time>2024-09-19T13:39:19Z</time>
      </trkpt>
      <trkpt lat="44.88206" lon="5.25489">
        <ele>1230.62</ele>
        <time>2024-09-19T13:39:37Z</time>
      </trkpt>
      <trkpt lat="44.88211" lon="5.2553">
        <ele>1233.99</ele>
        <time>2024-09-19T13:40:02Z</time>
      </trkpt>
      <trkpt lat="44.8822" lon="5.25548">
        <ele>1241.68</ele>
        <time>2024-09-19T13:40:16Z</time>
      </trkpt>
      <trkpt lat="44.88222" lon="5.25568">
        <ele>1244.08</ele>
        <time>2024-09-19T13:40:30Z</time>
      </trkpt>
      <trkpt lat="44.8823" lon="5.25587">
        <ele>1247.93</ele>
        <time>2024-09-19T13:40:43Z</time>
      </trkpt>
      <trkpt lat="44.8823" lon="5.25599">
        <ele>1251.29</ele>
        <time>2024-09-19T13:40:51Z</time>
      </trkpt>
      <trkpt lat="44.88219" lon="5.25626">
        <ele>1256.1</ele>
        <time>2024-09-19T13:41:09Z</time>
      </trkpt>
      <trkpt lat="44.88208" lon="5.25644">
        <ele>1253.7</ele>
        <time>2024-09-19T13:41:25Z</time>
      </trkpt>
      <trkpt lat="44.88187" lon="5.25651">
        <ele>1255.14</ele>
        <time>2024-09-19T13:41:42Z</time>
      </trkpt>
      <trkpt lat="44.88178" lon="5.25662">
        <ele>1251.29</ele>
        <time>2024-09-19T13:41:58Z</time>
      </trkpt>
      <trkpt lat="44.88171" lon="5.25683">
        <ele>1252.25</ele>
        <time>2024-09-19T13:42:11Z</time>
      </trkpt>
      <trkpt lat="44.88171" lon="5.25695">
        <ele>1253.7</ele>
        <time>2024-09-19T13:42:16Z</time>
      </trkpt>
      <trkpt lat="44.88175" lon="5.25719">
        <ele>1254.66</ele>
        <time>2024-09-19T13:42:30Z</time>
      </trkpt>
      <trkpt lat="44.88183" lon="5.25734">
        <ele>1254.66</ele>
        <time>2024-09-19T13:42:44Z</time>
      </trkpt>
      <trkpt lat="44.88195" lon="5.25743">
        <ele>1256.1</ele>
        <time>2024-09-19T13:42:58Z</time>
      </trkpt>
      <trkpt lat="44.88202" lon="5.25755">
        <ele>1256.58</ele>
        <time>2024-09-19T13:43:10Z</time>
      </trkpt>
      <trkpt lat="44.8821" lon="5.25777">
        <ele>1256.58</ele>
        <time>2024-09-19T13:43:25Z</time>
      </trkpt>
      <trkpt lat="44.8822" lon="5.25795">
        <ele>1257.54</ele>
        <time>2024-09-19T13:43:41Z</time>
      </trkpt>
      <trkpt lat="44.88234" lon="5.25798">
        <ele>1260.91</ele>
        <time>2024-09-19T13:43:56Z</time>
      </trkpt>
      <trkpt lat="44.88247" lon="5.25802">
        <ele>1266.19</ele>
        <time>2024-09-19T13:44:07Z</time>
      </trkpt>
      <trkpt lat="44.88249" lon="5.25802">
        <ele>1267.64</ele>
        <time>2024-09-19T13:44:09Z</time>
      </trkpt>
      <trkpt lat="44.88261" lon="5.25817">
        <ele>1270.52</ele>
        <time>2024-09-19T13:44:27Z</time>
      </trkpt>
      <trkpt lat="44.88268" lon="5.25838">
        <ele>1271</ele>
        <time>2024-09-19T13:44:47Z</time>
      </trkpt>
      <trkpt lat="44.88274" lon="5.25862">
        <ele>1272.44</ele>
        <time>2024-09-19T13:45:04Z</time>
      </trkpt>
      <trkpt lat="44.88287" lon="5.25892">
        <ele>1273.4</ele>
        <time>2024-09-19T13:45:22Z</time>
      </trkpt>
      <trkpt lat="44.883" lon="5.25912">
        <ele>1275.33</ele>
        <time>2024-09-19T13:45:36Z</time>
      </trkpt>
      <trkpt lat="44.88314" lon="5.25933">
        <ele>1276.29</ele>
        <time>2024-09-19T13:45:52Z</time>
      </trkpt>
      <trkpt lat="44.88323" lon="5.25949">
        <ele>1276.77</ele>
        <time>2024-09-19T13:46:06Z</time>
      </trkpt>
      <trkpt lat="44.8833" lon="5.25957">
        <ele>1277.25</ele>
        <time>2024-09-19T13:46:12Z</time>
      </trkpt>
      <trkpt lat="44.88352" lon="5.25975">
        <ele>1280.61</ele>
        <time>2024-09-19T13:46:28Z</time>
      </trkpt>
      <trkpt lat="44.88366" lon="5.25984">
        <ele>1281.57</ele>
        <time>2024-09-19T13:46:44Z</time>
      </trkpt>
      <trkpt lat="44.88389" lon="5.26002">
        <ele>1286.86</ele>
        <time>2024-09-19T13:47:04Z</time>
      </trkpt>
      <trkpt lat="44.884" lon="5.26017">
        <ele>1289.75</ele>
        <time>2024-09-19T13:47:19Z</time>
      </trkpt>
      <trkpt lat="44.8841" lon="5.26031">
        <ele>1290.71</ele>
        <time>2024-09-19T13:47:34Z</time>
      </trkpt>
      <trkpt lat="44.88422" lon="5.26051">
        <ele>1288.78</ele>
        <time>2024-09-19T13:47:51Z</time>
      </trkpt>
      <trkpt lat="44.88431" lon="5.26076">
        <ele>1288.3</ele>
        <time>2024-09-19T13:48:06Z</time>
      </trkpt>
      <trkpt lat="44.88446" lon="5.2609">
        <ele>1294.07</ele>
        <time>2024-09-19T13:48:20Z</time>
      </trkpt>
      <trkpt lat="44.88451" lon="5.26095">
        <ele>1295.99</ele>
        <time>2024-09-19T13:48:24Z</time>
      </trkpt>
      <trkpt lat="44.88462" lon="5.26119">
        <ele>1297.92</ele>
        <time>2024-09-19T13:48:39Z</time>
      </trkpt>
      <trkpt lat="44.88474" lon="5.26137">
        <ele>1298.88</ele>
        <time>2024-09-19T13:48:54Z</time>
      </trkpt>
      <trkpt lat="44.88474" lon="5.26139">
        <ele>1298.4</ele>
        <time>2024-09-19T13:48:55Z</time>
      </trkpt>
      <trkpt lat="44.88479" lon="5.26156">
        <ele>1297.92</ele>
        <time>2024-09-19T13:49:08Z</time>
      </trkpt>
      <trkpt lat="44.8848" lon="5.26163">
        <ele>1297.92</ele>
        <time>2024-09-19T13:49:15Z</time>
      </trkpt>
      <trkpt lat="44.88485" lon="5.26174">
        <ele>1298.88</ele>
        <time>2024-09-19T13:49:21Z</time>
      </trkpt>
      <trkpt lat="44.8849" lon="5.2619">
        <ele>1299.36</ele>
        <time>2024-09-19T13:49:34Z</time>
      </trkpt>
      <trkpt lat="44.88506" lon="5.26234">
        <ele>1303.2</ele>
        <time>2024-09-19T13:49:52Z</time>
      </trkpt>
      <trkpt lat="44.88515" lon="5.26257">
        <ele>1307.05</ele>
        <time>2024-09-19T13:50:08Z</time>
      </trkpt>
      <trkpt lat="44.88524" lon="5.26284">
        <ele>1308.49</ele>
        <time>2024-09-19T13:50:28Z</time>
      </trkpt>
      <trkpt lat="44.8854" lon="5.26329">
        <ele>1308.01</ele>
        <time>2024-09-19T13:50:48Z</time>
      </trkpt>
      <trkpt lat="44.88547" lon="5.26355">
        <ele>1306.57</ele>
        <time>2024-09-19T13:51:05Z</time>
      </trkpt>
      <trkpt lat="44.8855" lon="5.26379">
        <ele>1305.13</ele>
        <time>2024-09-19T13:51:21Z</time>
      </trkpt>
      <trkpt lat="44.88566" lon="5.2641">
        <ele>1302.24</ele>
        <time>2024-09-19T13:51:40Z</time>
      </trkpt>
      <trkpt lat="44.88577" lon="5.26437">
        <ele>1303.2</ele>
        <time>2024-09-19T13:51:59Z</time>
      </trkpt>
      <trkpt lat="44.88572" lon="5.26468">
        <ele>1304.65</ele>
        <time>2024-09-19T13:52:19Z</time>
      </trkpt>
      <trkpt lat="44.88575" lon="5.26492">
        <ele>1305.13</ele>
        <time>2024-09-19T13:52:33Z</time>
      </trkpt>
      <trkpt lat="44.88577" lon="5.26517">
        <ele>1304.17</ele>
        <time>2024-09-19T13:52:48Z</time>
      </trkpt>
      <trkpt lat="44.88577" lon="5.26554">
        <ele>1301.76</ele>
        <time>2024-09-19T13:53:08Z</time>
      </trkpt>
      <trkpt lat="44.88575" lon="5.26586">
        <ele>1301.28</ele>
        <time>2024-09-19T13:53:26Z</time>
      </trkpt>
      <trkpt lat="44.88577" lon="5.26606">
        <ele>1301.76</ele>
        <time>2024-09-19T13:53:41Z</time>
      </trkpt>
      <trkpt lat="44.88597" lon="5.26624">
        <ele>1298.4</ele>
        <time>2024-09-19T13:54:01Z</time>
      </trkpt>
      <trkpt lat="44.88614" lon="5.26641">
        <ele>1295.03</ele>
        <time>2024-09-19T13:54:17Z</time>
      </trkpt>
      <trkpt lat="44.88635" lon="5.26648">
        <ele>1292.15</ele>
        <time>2024-09-19T13:54:34Z</time>
      </trkpt>
      <trkpt lat="44.88645" lon="5.26656">
        <ele>1291.67</ele>
        <time>2024-09-19T13:54:40Z</time>
      </trkpt>
      <trkpt lat="44.88655" lon="5.26687">
        <ele>1285.42</ele>
        <time>2024-09-19T13:54:58Z</time>
      </trkpt>
      <trkpt lat="44.8866" lon="5.26709">
        <ele>1281.09</ele>
        <time>2024-09-19T13:55:12Z</time>
      </trkpt>
      <trkpt lat="44.88666" lon="5.26735">
        <ele>1275.81</ele>
        <time>2024-09-19T13:55:27Z</time>
      </trkpt>
      <trkpt lat="44.88674" lon="5.26743">
        <ele>1272.92</ele>
        <time>2024-09-19T13:55:34Z</time>
      </trkpt>
      <trkpt lat="44.88691" lon="5.26769">
        <ele>1269.56</ele>
        <time>2024-09-19T13:55:51Z</time>
      </trkpt>
      <trkpt lat="44.88696" lon="5.2678">
        <ele>1268.6</ele>
        <time>2024-09-19T13:55:57Z</time>
      </trkpt>
      <trkpt lat="44.88702" lon="5.26812">
        <ele>1261.87</ele>
        <time>2024-09-19T13:56:13Z</time>
      </trkpt>
      <trkpt lat="44.88699" lon="5.26863">
        <ele>1265.71</ele>
        <time>2024-09-19T13:56:33Z</time>
      </trkpt>
      <trkpt lat="44.88703" lon="5.26898">
        <ele>1268.6</ele>
        <time>2024-09-19T13:56:49Z</time>
      </trkpt>
      <trkpt lat="44.88715" lon="5.26931">
        <ele>1266.67</ele>
        <time>2024-09-19T13:57:07Z</time>
      </trkpt>
      <trkpt lat="44.88723" lon="5.26963">
        <ele>1264.27</ele>
        <time>2024-09-19T13:57:23Z</time>
      </trkpt>
      <trkpt lat="44.88724" lon="5.26993">
        <ele>1264.75</ele>
        <time>2024-09-19T13:57:35Z</time>
      </trkpt>
      <trkpt lat="44.88723" lon="5.27017">
        <ele>1270.04</ele>
        <time>2024-09-19T13:57:47Z</time>
      </trkpt>
      <trkpt lat="44.88714" lon="5.27053">
        <ele>1275.81</ele>
        <time>2024-09-19T13:58:08Z</time>
      </trkpt>
      <trkpt lat="44.88708" lon="5.27079">
        <ele>1279.17</ele>
        <time>2024-09-19T13:58:26Z</time>
      </trkpt>
      <trkpt lat="44.88701" lon="5.27109">
        <ele>1282.06</ele>
        <time>2024-09-19T13:58:45Z</time>
      </trkpt>
      <trkpt lat="44.88694" lon="5.27144">
        <ele>1287.82</ele>
        <time>2024-09-19T13:59:04Z</time>
      </trkpt>
      <trkpt lat="44.88689" lon="5.27171">
        <ele>1292.63</ele>
        <time>2024-09-19T13:59:21Z</time>
      </trkpt>
      <trkpt lat="44.88686" lon="5.27193">
        <ele>1298.88</ele>
        <time>2024-09-19T13:59:35Z</time>
      </trkpt>
      <trkpt lat="44.88686" lon="5.27194">
        <ele>1299.36</ele>
        <time>2024-09-19T13:59:36Z</time>
      </trkpt>
      <trkpt lat="44.88685" lon="5.27197">
        <ele>1299.36</ele>
        <time>2024-09-19T13:59:38Z</time>
      </trkpt>
      <trkpt lat="44.88685" lon="5.27198">
        <ele>1299.36</ele>
        <time>2024-09-19T13:59:39Z</time>
      </trkpt>
      <trkpt lat="44.88685" lon="5.272">
        <ele>1299.84</ele>
        <time>2024-09-19T13:59:40Z</time>
      </trkpt>
      <trkpt lat="44.88685" lon="5.27202">
        <ele>1299.84</ele>
        <time>2024-09-19T13:59:41Z</time>
      </trkpt>
      <trkpt lat="44.88685" lon="5.27203">
        <ele>1299.84</ele>
        <time>2024-09-19T13:59:42Z</time>
      </trkpt>
      <trkpt lat="44.88685" lon="5.27205">
        <ele>1300.32</ele>
        <time>2024-09-19T13:59:43Z</time>
      </trkpt>
      <trkpt lat="44.88684" lon="5.27207">
        <ele>1300.32</ele>
        <time>2024-09-19T13:59:44Z</time>
      </trkpt>
      <trkpt lat="44.88684" lon="5.27209">
        <ele>1300.8</ele>
        <time>2024-09-19T13:59:45Z</time>
      </trkpt>
      <trkpt lat="44.88683" lon="5.2721">
        <ele>1301.28</ele>
        <time>2024-09-19T13:59:46Z</time>
      </trkpt>
      <trkpt lat="44.88678" lon="5.27219">
        <ele>1302.72</ele>
        <time>2024-09-19T13:59:59Z</time>
      </trkpt>
      <trkpt lat="44.8868" lon="5.27222">
        <ele>1304.65</ele>
        <time>2024-09-19T14:00:10Z</time>
      </trkpt>
      <trkpt lat="44.88677" lon="5.27222">
        <ele>1303.2</ele>
        <time>2024-09-19T14:00:23Z</time>
      </trkpt>
      <trkpt lat="44.88679" lon="5.27222">
        <ele>1302.24</ele>
        <time>2024-09-19T14:00:34Z</time>
      </trkpt>
      <trkpt lat="44.88688" lon="5.27233">
        <ele>1302.72</ele>
        <time>2024-09-19T14:00:47Z</time>
      </trkpt>
      <trkpt lat="44.88691" lon="5.27232">
        <ele>1302.72</ele>
        <time>2024-09-19T14:01:04Z</time>
      </trkpt>
      <trkpt lat="44.88692" lon="5.27233">
        <ele>1302.72</ele>
        <time>2024-09-19T14:01:05Z</time>
      </trkpt>
      <trkpt lat="44.88702" lon="5.27247">
        <ele>1302.24</ele>
        <time>2024-09-19T14:01:16Z</time>
      </trkpt>
      <trkpt lat="44.88719" lon="5.27263">
        <ele>1303.69</ele>
        <time>2024-09-19T14:01:36Z</time>
      </trkpt>
      <trkpt lat="44.88735" lon="5.27286">
        <ele>1306.09</ele>
        <time>2024-09-19T14:01:56Z</time>
      </trkpt>
      <trkpt lat="44.88753" lon="5.27317">
        <ele>1306.09</ele>
        <time>2024-09-19T14:02:15Z</time>
      </trkpt>
      <trkpt lat="44.88754" lon="5.27318">
        <ele>1306.57</ele>
        <time>2024-09-19T14:02:16Z</time>
      </trkpt>
      <trkpt lat="44.8876" lon="5.2733">
        <ele>1308.97</ele>
        <time>2024-09-19T14:02:31Z</time>
      </trkpt>
      <trkpt lat="44.8876" lon="5.27356">
        <ele>1311.38</ele>
        <time>2024-09-19T14:02:48Z</time>
      </trkpt>
      <trkpt lat="44.88748" lon="5.27378">
        <ele>1311.38</ele>
        <time>2024-09-19T14:03:05Z</time>
      </trkpt>
      <trkpt lat="44.88734" lon="5.27396">
        <ele>1310.41</ele>
        <time>2024-09-19T14:03:22Z</time>
      </trkpt>
      <trkpt lat="44.88734" lon="5.27397">
        <ele>1310.41</ele>
        <time>2024-09-19T14:03:23Z</time>
      </trkpt>
      <trkpt lat="44.88726" lon="5.27429">
        <ele>1312.34</ele>
        <time>2024-09-19T14:03:41Z</time>
      </trkpt>
      <trkpt lat="44.88724" lon="5.27436">
        <ele>1314.74</ele>
        <time>2024-09-19T14:03:47Z</time>
      </trkpt>
      <trkpt lat="44.88717" lon="5.27459">
        <ele>1313.78</ele>
        <time>2024-09-19T14:04:03Z</time>
      </trkpt>
      <trkpt lat="44.8871" lon="5.27482">
        <ele>1313.78</ele>
        <time>2024-09-19T14:04:17Z</time>
      </trkpt>
      <trkpt lat="44.88701" lon="5.27498">
        <ele>1316.18</ele>
        <time>2024-09-19T14:04:27Z</time>
      </trkpt>
      <trkpt lat="44.88687" lon="5.27528">
        <ele>1320.03</ele>
        <time>2024-09-19T14:04:43Z</time>
      </trkpt>
      <trkpt lat="44.8869" lon="5.2756">
        <ele>1320.99</ele>
        <time>2024-09-19T14:05:01Z</time>
      </trkpt>
      <trkpt lat="44.88695" lon="5.27583">
        <ele>1319.55</ele>
        <time>2024-09-19T14:05:15Z</time>
      </trkpt>
      <trkpt lat="44.88709" lon="5.27608">
        <ele>1320.03</ele>
        <time>2024-09-19T14:05:33Z</time>
      </trkpt>
      <trkpt lat="44.88726" lon="5.2763">
        <ele>1321.47</ele>
        <time>2024-09-19T14:05:53Z</time>
      </trkpt>
      <trkpt lat="44.88741" lon="5.27658">
        <ele>1321.95</ele>
        <time>2024-09-19T14:06:11Z</time>
      </trkpt>
      <trkpt lat="44.88755" lon="5.27684">
        <ele>1322.91</ele>
        <time>2024-09-19T14:06:30Z</time>
      </trkpt>
      <trkpt lat="44.88769" lon="5.27701">
        <ele>1323.39</ele>
        <time>2024-09-19T14:06:46Z</time>
      </trkpt>
      <trkpt lat="44.8877" lon="5.27723">
        <ele>1323.87</ele>
        <time>2024-09-19T14:07:00Z</time>
      </trkpt>
      <trkpt lat="44.88773" lon="5.27736">
        <ele>1324.35</ele>
        <time>2024-09-19T14:07:10Z</time>
      </trkpt>
      <trkpt lat="44.88779" lon="5.27736">
        <ele>1324.83</ele>
        <time>2024-09-19T14:07:15Z</time>
      </trkpt>
      <trkpt lat="44.88801" lon="5.27722">
        <ele>1326.28</ele>
        <time>2024-09-19T14:07:33Z</time>
      </trkpt>
      <trkpt lat="44.8882" lon="5.27719">
        <ele>1327.24</ele>
        <time>2024-09-19T14:07:48Z</time>
      </trkpt>
      <trkpt lat="44.88821" lon="5.27724">
        <ele>1327.24</ele>
        <time>2024-09-19T14:07:52Z</time>
      </trkpt>
      <trkpt lat="44.88818" lon="5.27731">
        <ele>1327.24</ele>
        <time>2024-09-19T14:08:03Z</time>
      </trkpt>
      <trkpt lat="44.88831" lon="5.27725">
        <ele>1326.76</ele>
        <time>2024-09-19T14:08:13Z</time>
      </trkpt>
      <trkpt lat="44.88837" lon="5.27728">
        <ele>1327.72</ele>
        <time>2024-09-19T14:08:17Z</time>
      </trkpt>
      <trkpt lat="44.8884" lon="5.27731">
        <ele>1328.68</ele>
        <time>2024-09-19T14:08:30Z</time>
      </trkpt>
      <trkpt lat="44.88838" lon="5.27733">
        <ele>1329.16</ele>
        <time>2024-09-19T14:08:33Z</time>
      </trkpt>
      <trkpt lat="44.88832" lon="5.2776">
        <ele>1333.97</ele>
        <time>2024-09-19T14:08:50Z</time>
      </trkpt>
      <trkpt lat="44.88833" lon="5.27761">
        <ele>1334.93</ele>
        <time>2024-09-19T14:08:55Z</time>
      </trkpt>
      <trkpt lat="44.88845" lon="5.27775">
        <ele>1340.22</ele>
        <time>2024-09-19T14:09:09Z</time>
      </trkpt>
      <trkpt lat="44.88849" lon="5.27782">
        <ele>1343.1</ele>
        <time>2024-09-19T14:09:15Z</time>
      </trkpt>
      <trkpt lat="44.8885" lon="5.27791">
        <ele>1345.5</ele>
        <time>2024-09-19T14:09:20Z</time>
      </trkpt>
      <trkpt lat="44.88847" lon="5.27809">
        <ele>1345.98</ele>
        <time>2024-09-19T14:09:33Z</time>
      </trkpt>
      <trkpt lat="44.88844" lon="5.27821">
        <ele>1353.19</ele>
        <time>2024-09-19T14:09:47Z</time>
      </trkpt>
      <trkpt lat="44.88835" lon="5.27826">
        <ele>1356.56</ele>
        <time>2024-09-19T14:09:56Z</time>
      </trkpt>
      <trkpt lat="44.88838" lon="5.27839">
        <ele>1354.15</ele>
        <time>2024-09-19T14:10:06Z</time>
      </trkpt>
      <trkpt lat="44.88842" lon="5.27851">
        <ele>1353.19</ele>
        <time>2024-09-19T14:10:10Z</time>
      </trkpt>
      <trkpt lat="44.88842" lon="5.27859">
        <ele>1353.19</ele>
        <time>2024-09-19T14:10:13Z</time>
      </trkpt>
      <trkpt lat="44.88843" lon="5.27862">
        <ele>1353.67</ele>
        <time>2024-09-19T14:10:15Z</time>
      </trkpt>
      <trkpt lat="44.88847" lon="5.27871">
        <ele>1356.08</ele>
        <time>2024-09-19T14:10:22Z</time>
      </trkpt>
      <trkpt lat="44.88861" lon="5.27876">
        <ele>1359.44</ele>
        <time>2024-09-19T14:10:40Z</time>
      </trkpt>
      <trkpt lat="44.88864" lon="5.27876">
        <ele>1359.92</ele>
        <time>2024-09-19T14:10:42Z</time>
      </trkpt>
      <trkpt lat="44.88885" lon="5.2787">
        <ele>1363.77</ele>
        <time>2024-09-19T14:10:58Z</time>
      </trkpt>
      <trkpt lat="44.88902" lon="5.27869">
        <ele>1362.33</ele>
        <time>2024-09-19T14:11:12Z</time>
      </trkpt>
      <trkpt lat="44.88921" lon="5.2787">
        <ele>1363.77</ele>
        <time>2024-09-19T14:11:27Z</time>
      </trkpt>
      <trkpt lat="44.88946" lon="5.27872">
        <ele>1367.61</ele>
        <time>2024-09-19T14:11:41Z</time>
      </trkpt>
      <trkpt lat="44.88967" lon="5.27882">
        <ele>1368.57</ele>
        <time>2024-09-19T14:11:55Z</time>
      </trkpt>
      <trkpt lat="44.88984" lon="5.27892">
        <ele>1369.54</ele>
        <time>2024-09-19T14:12:08Z</time>
      </trkpt>
      <trkpt lat="44.88987" lon="5.27895">
        <ele>1369.54</ele>
        <time>2024-09-19T14:12:11Z</time>
      </trkpt>
      <trkpt lat="44.88997" lon="5.27904">
        <ele>1369.54</ele>
        <time>2024-09-19T14:12:18Z</time>
      </trkpt>
      <trkpt lat="44.89016" lon="5.27919">
        <ele>1368.09</ele>
        <time>2024-09-19T14:12:34Z</time>
      </trkpt>
      <trkpt lat="44.8904" lon="5.27936">
        <ele>1367.13</ele>
        <time>2024-09-19T14:12:54Z</time>
      </trkpt>
      <trkpt lat="44.89065" lon="5.27959">
        <ele>1364.73</ele>
        <time>2024-09-19T14:13:11Z</time>
      </trkpt>
      <trkpt lat="44.89086" lon="5.27977">
        <ele>1364.25</ele>
        <time>2024-09-19T14:13:31Z</time>
      </trkpt>
      <trkpt lat="44.89103" lon="5.28003">
        <ele>1363.77</ele>
        <time>2024-09-19T14:13:43Z</time>
      </trkpt>
      <trkpt lat="44.89114" lon="5.28038">
        <ele>1363.29</ele>
        <time>2024-09-19T14:14:01Z</time>
      </trkpt>
      <trkpt lat="44.89125" lon="5.2806">
        <ele>1365.69</ele>
        <time>2024-09-19T14:14:17Z</time>
      </trkpt>
      <trkpt lat="44.89141" lon="5.28091">
        <ele>1363.29</ele>
        <time>2024-09-19T14:14:36Z</time>
      </trkpt>
      <trkpt lat="44.89159" lon="5.28118">
        <ele>1358.48</ele>
        <time>2024-09-19T14:14:55Z</time>
      </trkpt>
      <trkpt lat="44.89178" lon="5.28148">
        <ele>1354.63</ele>
        <time>2024-09-19T14:15:11Z</time>
      </trkpt>
      <trkpt lat="44.89192" lon="5.28173">
        <ele>1352.23</ele>
        <time>2024-09-19T14:15:29Z</time>
      </trkpt>
      <trkpt lat="44.89203" lon="5.28181">
        <ele>1352.23</ele>
        <time>2024-09-19T14:15:37Z</time>
      </trkpt>
      <trkpt lat="44.89224" lon="5.28199">
        <ele>1351.75</ele>
        <time>2024-09-19T14:15:56Z</time>
      </trkpt>
      <trkpt lat="44.89242" lon="5.2821">
        <ele>1348.87</ele>
        <time>2024-09-19T14:16:15Z</time>
      </trkpt>
      <trkpt lat="44.89271" lon="5.28229">
        <ele>1348.39</ele>
        <time>2024-09-19T14:16:32Z</time>
      </trkpt>
      <trkpt lat="44.89284" lon="5.28254">
        <ele>1346.94</ele>
        <time>2024-09-19T14:16:47Z</time>
      </trkpt>
      <trkpt lat="44.89287" lon="5.28263">
        <ele>1345.5</ele>
        <time>2024-09-19T14:16:53Z</time>
      </trkpt>
      <trkpt lat="44.8929" lon="5.28273">
        <ele>1344.54</ele>
        <time>2024-09-19T14:16:58Z</time>
      </trkpt>
      <trkpt lat="44.89308" lon="5.28309">
        <ele>1344.06</ele>
        <time>2024-09-19T14:17:14Z</time>
      </trkpt>
      <trkpt lat="44.89322" lon="5.2833">
        <ele>1345.02</ele>
        <time>2024-09-19T14:17:31Z</time>
      </trkpt>
      <trkpt lat="44.89342" lon="5.28357">
        <ele>1345.02</ele>
        <time>2024-09-19T14:17:51Z</time>
      </trkpt>
      <trkpt lat="44.8936" lon="5.28379">
        <ele>1346.46</ele>
        <time>2024-09-19T14:18:05Z</time>
      </trkpt>
      <trkpt lat="44.89375" lon="5.28399">
        <ele>1348.87</ele>
        <time>2024-09-19T14:18:19Z</time>
      </trkpt>
      <trkpt lat="44.8939" lon="5.28422">
        <ele>1349.83</ele>
        <time>2024-09-19T14:18:34Z</time>
      </trkpt>
      <trkpt lat="44.89408" lon="5.28449">
        <ele>1348.39</ele>
        <time>2024-09-19T14:18:52Z</time>
      </trkpt>
      <trkpt lat="44.89426" lon="5.28476">
        <ele>1345.5</ele>
        <time>2024-09-19T14:19:08Z</time>
      </trkpt>
      <trkpt lat="44.89441" lon="5.28503">
        <ele>1344.06</ele>
        <time>2024-09-19T14:19:26Z</time>
      </trkpt>
      <trkpt lat="44.89459" lon="5.28525">
        <ele>1344.54</ele>
        <time>2024-09-19T14:19:44Z</time>
      </trkpt>
      <trkpt lat="44.8948" lon="5.28543">
        <ele>1343.1</ele>
        <time>2024-09-19T14:20:01Z</time>
      </trkpt>
      <trkpt lat="44.8949" lon="5.28555">
        <ele>1343.58</ele>
        <time>2024-09-19T14:20:11Z</time>
      </trkpt>
      <trkpt lat="44.89508" lon="5.28571">
        <ele>1342.62</ele>
        <time>2024-09-19T14:20:28Z</time>
      </trkpt>
      <trkpt lat="44.89524" lon="5.28583">
        <ele>1342.62</ele>
        <time>2024-09-19T14:20:36Z</time>
      </trkpt>
      <trkpt lat="44.89525" lon="5.28584">
        <ele>1342.62</ele>
        <time>2024-09-19T14:20:37Z</time>
      </trkpt>
      <trkpt lat="44.89526" lon="5.28585">
        <ele>1342.62</ele>
        <time>2024-09-19T14:20:38Z</time>
      </trkpt>
      <trkpt lat="44.89528" lon="5.28586">
        <ele>1342.62</ele>
        <time>2024-09-19T14:20:39Z</time>
      </trkpt>
      <trkpt lat="44.89529" lon="5.28587">
        <ele>1342.62</ele>
        <time>2024-09-19T14:20:40Z</time>
      </trkpt>
      <trkpt lat="44.89555" lon="5.28603">
        <ele>1341.66</ele>
        <time>2024-09-19T14:21:00Z</time>
      </trkpt>
      <trkpt lat="44.89575" lon="5.2861">
        <ele>1341.18</ele>
        <time>2024-09-19T14:21:14Z</time>
      </trkpt>
      <trkpt lat="44.89581" lon="5.28611">
        <ele>1340.7</ele>
        <time>2024-09-19T14:21:19Z</time>
      </trkpt>
      <trkpt lat="44.89582" lon="5.28612">
        <ele>1340.7</ele>
        <time>2024-09-19T14:21:20Z</time>
      </trkpt>
      <trkpt lat="44.896" lon="5.28616">
        <ele>1339.73</ele>
        <time>2024-09-19T14:21:34Z</time>
      </trkpt>
      <trkpt lat="44.89603" lon="5.28617">
        <ele>1339.73</ele>
        <time>2024-09-19T14:21:36Z</time>
      </trkpt>
      <trkpt lat="44.89604" lon="5.28617">
        <ele>1339.73</ele>
        <time>2024-09-19T14:21:37Z</time>
      </trkpt>
      <trkpt lat="44.89605" lon="5.28617">
        <ele>1339.25</ele>
        <time>2024-09-19T14:21:38Z</time>
      </trkpt>
      <trkpt lat="44.89609" lon="5.28617">
        <ele>1339.25</ele>
        <time>2024-09-19T14:21:42Z</time>
      </trkpt>
      <trkpt lat="44.89617" lon="5.28623">
        <ele>1337.33</ele>
        <time>2024-09-19T14:21:56Z</time>
      </trkpt>
      <trkpt lat="44.89618" lon="5.28623">
        <ele>1337.33</ele>
        <time>2024-09-19T14:21:57Z</time>
      </trkpt>
      <trkpt lat="44.89619" lon="5.28622">
        <ele>1337.33</ele>
        <time>2024-09-19T14:21:58Z</time>
      </trkpt>
      <trkpt lat="44.89621" lon="5.28621">
        <ele>1337.33</ele>
        <time>2024-09-19T14:21:59Z</time>
      </trkpt>
      <trkpt lat="44.89622" lon="5.2862">
        <ele>1337.33</ele>
        <time>2024-09-19T14:22:00Z</time>
      </trkpt>
      <trkpt lat="44.89624" lon="5.28619">
        <ele>1337.33</ele>
        <time>2024-09-19T14:22:01Z</time>
      </trkpt>
      <trkpt lat="44.89626" lon="5.28619">
        <ele>1337.33</ele>
        <time>2024-09-19T14:22:02Z</time>
      </trkpt>
      <trkpt lat="44.89627" lon="5.28619">
        <ele>1337.81</ele>
        <time>2024-09-19T14:22:03Z</time>
      </trkpt>
      <trkpt lat="44.89649" lon="5.28628">
        <ele>1337.81</ele>
        <time>2024-09-19T14:22:17Z</time>
      </trkpt>
      <trkpt lat="44.89664" lon="5.28638">
        <ele>1336.37</ele>
        <time>2024-09-19T14:22:29Z</time>
      </trkpt>
      <trkpt lat="44.89677" lon="5.28644">
        <ele>1333.97</ele>
        <time>2024-09-19T14:22:38Z</time>
      </trkpt>
      <trkpt lat="44.89691" lon="5.28652">
        <ele>1330.6</ele>
        <time>2024-09-19T14:22:49Z</time>
      </trkpt>
      <trkpt lat="44.89701" lon="5.28657">
        <ele>1331.08</ele>
        <time>2024-09-19T14:22:56Z</time>
      </trkpt>
      <trkpt lat="44.89702" lon="5.28658">
        <ele>1331.08</ele>
        <time>2024-09-19T14:22:57Z</time>
      </trkpt>
      <trkpt lat="44.89704" lon="5.28659">
        <ele>1331.08</ele>
        <time>2024-09-19T14:22:58Z</time>
      </trkpt>
      <trkpt lat="44.89706" lon="5.2866">
        <ele>1331.56</ele>
        <time>2024-09-19T14:22:59Z</time>
      </trkpt>
      <trkpt lat="44.89707" lon="5.2866">
        <ele>1331.08</ele>
        <time>2024-09-19T14:23:00Z</time>
      </trkpt>
      <trkpt lat="44.89718" lon="5.2866">
        <ele>1332.52</ele>
        <time>2024-09-19T14:23:09Z</time>
      </trkpt>
      <trkpt lat="44.8972" lon="5.28661">
        <ele>1332.52</ele>
        <time>2024-09-19T14:23:10Z</time>
      </trkpt>
      <trkpt lat="44.89721" lon="5.28661">
        <ele>1332.52</ele>
        <time>2024-09-19T14:23:11Z</time>
      </trkpt>
      <trkpt lat="44.89747" lon="5.28669">
        <ele>1333.01</ele>
        <time>2024-09-19T14:23:29Z</time>
      </trkpt>
      <trkpt lat="44.89776" lon="5.28665">
        <ele>1333.97</ele>
        <time>2024-09-19T14:23:48Z</time>
      </trkpt>
      <trkpt lat="44.89796" lon="5.28657">
        <ele>1331.56</ele>
        <time>2024-09-19T14:24:03Z</time>
      </trkpt>
      <trkpt lat="44.89816" lon="5.28654">
        <ele>1330.6</ele>
        <time>2024-09-19T14:24:19Z</time>
      </trkpt>
      <trkpt lat="44.89841" lon="5.28649">
        <ele>1329.16</ele>
        <time>2024-09-19T14:24:35Z</time>
      </trkpt>
      <trkpt lat="44.89866" lon="5.28648">
        <ele>1326.76</ele>
        <time>2024-09-19T14:24:52Z</time>
      </trkpt>
      <trkpt lat="44.89889" lon="5.2864">
        <ele>1323.39</ele>
        <time>2024-09-19T14:25:10Z</time>
      </trkpt>
      <trkpt lat="44.89912" lon="5.2864">
        <ele>1319.07</ele>
        <time>2024-09-19T14:25:28Z</time>
      </trkpt>
      <trkpt lat="44.89934" lon="5.28634">
        <ele>1314.74</ele>
        <time>2024-09-19T14:25:44Z</time>
      </trkpt>
      <trkpt lat="44.8996" lon="5.28642">
        <ele>1313.3</ele>
        <time>2024-09-19T14:25:57Z</time>
      </trkpt>
      <trkpt lat="44.89985" lon="5.28645">
        <ele>1310.41</ele>
        <time>2024-09-19T14:26:14Z</time>
      </trkpt>
      <trkpt lat="44.90013" lon="5.28661">
        <ele>1307.53</ele>
        <time>2024-09-19T14:26:33Z</time>
      </trkpt>
      <trkpt lat="44.90022" lon="5.28665">
        <ele>1307.05</ele>
        <time>2024-09-19T14:26:39Z</time>
      </trkpt>
      <trkpt lat="44.90024" lon="5.28666">
        <ele>1307.05</ele>
        <time>2024-09-19T14:26:40Z</time>
      </trkpt>
      <trkpt lat="44.90046" lon="5.28672">
        <ele>1307.53</ele>
        <time>2024-09-19T14:26:58Z</time>
      </trkpt>
      <trkpt lat="44.90077" lon="5.28687">
        <ele>1306.57</ele>
        <time>2024-09-19T14:27:18Z</time>
      </trkpt>
      <trkpt lat="44.90102" lon="5.28697">
        <ele>1305.13</ele>
        <time>2024-09-19T14:27:38Z</time>
      </trkpt>
      <trkpt lat="44.9013" lon="5.28717">
        <ele>1306.09</ele>
        <time>2024-09-19T14:27:59Z</time>
      </trkpt>
      <trkpt lat="44.90157" lon="5.28747">
        <ele>1305.61</ele>
        <time>2024-09-19T14:28:19Z</time>
      </trkpt>
      <trkpt lat="44.90178" lon="5.28773">
        <ele>1304.65</ele>
        <time>2024-09-19T14:28:39Z</time>
      </trkpt>
      <trkpt lat="44.90195" lon="5.28797">
        <ele>1303.69</ele>
        <time>2024-09-19T14:28:56Z</time>
      </trkpt>
      <trkpt lat="44.90213" lon="5.28817">
        <ele>1299.84</ele>
        <time>2024-09-19T14:29:16Z</time>
      </trkpt>
      <trkpt lat="44.9024" lon="5.28828">
        <ele>1299.36</ele>
        <time>2024-09-19T14:29:36Z</time>
      </trkpt>
      <trkpt lat="44.9025" lon="5.28829">
        <ele>1298.88</ele>
        <time>2024-09-19T14:29:45Z</time>
      </trkpt>
      <trkpt lat="44.90278" lon="5.28826">
        <ele>1304.65</ele>
        <time>2024-09-19T14:30:01Z</time>
      </trkpt>
      <trkpt lat="44.90294" lon="5.28824">
        <ele>1305.13</ele>
        <time>2024-09-19T14:30:17Z</time>
      </trkpt>
      <trkpt lat="44.90317" lon="5.28829">
        <ele>1303.2</ele>
        <time>2024-09-19T14:30:35Z</time>
      </trkpt>
      <trkpt lat="44.90344" lon="5.28847">
        <ele>1302.72</ele>
        <time>2024-09-19T14:30:51Z</time>
      </trkpt>
      <trkpt lat="44.90345" lon="5.28849">
        <ele>1303.69</ele>
        <time>2024-09-19T14:30:52Z</time>
      </trkpt>
      <trkpt lat="44.90362" lon="5.28871">
        <ele>1304.17</ele>
        <time>2024-09-19T14:31:08Z</time>
      </trkpt>
      <trkpt lat="44.90387" lon="5.28886">
        <ele>1302.72</ele>
        <time>2024-09-19T14:31:28Z</time>
      </trkpt>
      <trkpt lat="44.90405" lon="5.28905">
        <ele>1302.72</ele>
        <time>2024-09-19T14:31:46Z</time>
      </trkpt>
      <trkpt lat="44.90427" lon="5.28918">
        <ele>1303.2</ele>
        <time>2024-09-19T14:32:03Z</time>
      </trkpt>
      <trkpt lat="44.90447" lon="5.28926">
        <ele>1302.72</ele>
        <time>2024-09-19T14:32:20Z</time>
      </trkpt>
      <trkpt lat="44.90464" lon="5.28937">
        <ele>1301.28</ele>
        <time>2024-09-19T14:32:36Z</time>
      </trkpt>
      <trkpt lat="44.90487" lon="5.28939">
        <ele>1299.36</ele>
        <time>2024-09-19T14:32:55Z</time>
      </trkpt>
      <trkpt lat="44.90514" lon="5.28944">
        <ele>1303.69</ele>
        <time>2024-09-19T14:33:11Z</time>
      </trkpt>
      <trkpt lat="44.90531" lon="5.28956">
        <ele>1304.65</ele>
        <time>2024-09-19T14:33:26Z</time>
      </trkpt>
      <trkpt lat="44.90553" lon="5.28971">
        <ele>1303.69</ele>
        <time>2024-09-19T14:33:44Z</time>
      </trkpt>
      <trkpt lat="44.9058" lon="5.28991">
        <ele>1303.69</ele>
        <time>2024-09-19T14:34:01Z</time>
      </trkpt>
      <trkpt lat="44.90608" lon="5.2901">
        <ele>1305.61</ele>
        <time>2024-09-19T14:34:22Z</time>
      </trkpt>
      <trkpt lat="44.90634" lon="5.29018">
        <ele>1305.13</ele>
        <time>2024-09-19T14:34:40Z</time>
      </trkpt>
      <trkpt lat="44.90658" lon="5.29028">
        <ele>1305.13</ele>
        <time>2024-09-19T14:35:00Z</time>
      </trkpt>
      <trkpt lat="44.90678" lon="5.29043">
        <ele>1306.57</ele>
        <time>2024-09-19T14:35:17Z</time>
      </trkpt>
      <trkpt lat="44.90701" lon="5.29061">
        <ele>1305.61</ele>
        <time>2024-09-19T14:35:35Z</time>
      </trkpt>
      <trkpt lat="44.90728" lon="5.29073">
        <ele>1304.65</ele>
        <time>2024-09-19T14:35:54Z</time>
      </trkpt>
      <trkpt lat="44.90753" lon="5.29088">
        <ele>1304.65</ele>
        <time>2024-09-19T14:36:14Z</time>
      </trkpt>
      <trkpt lat="44.90762" lon="5.29087">
        <ele>1304.65</ele>
        <time>2024-09-19T14:36:21Z</time>
      </trkpt>
      <trkpt lat="44.90764" lon="5.29087">
        <ele>1304.65</ele>
        <time>2024-09-19T14:36:22Z</time>
      </trkpt>
      <trkpt lat="44.90765" lon="5.29086">
        <ele>1304.65</ele>
        <time>2024-09-19T14:36:23Z</time>
      </trkpt>
      <trkpt lat="44.90785" lon="5.29085">
        <ele>1303.69</ele>
        <time>2024-09-19T14:36:39Z</time>
      </trkpt>
      <trkpt lat="44.90807" lon="5.29085">
        <ele>1301.28</ele>
        <time>2024-09-19T14:36:57Z</time>
      </trkpt>
      <trkpt lat="44.90835" lon="5.29082">
        <ele>1298.88</ele>
        <time>2024-09-19T14:37:15Z</time>
      </trkpt>
      <trkpt lat="44.90838" lon="5.29082">
        <ele>1300.32</ele>
        <time>2024-09-19T14:37:16Z</time>
      </trkpt>
      <trkpt lat="44.90843" lon="5.29083">
        <ele>1303.2</ele>
        <time>2024-09-19T14:37:19Z</time>
      </trkpt>
      <trkpt lat="44.90845" lon="5.29085">
        <ele>1303.2</ele>
        <time>2024-09-19T14:37:20Z</time>
      </trkpt>
      <trkpt lat="44.90846" lon="5.29086">
        <ele>1303.2</ele>
        <time>2024-09-19T14:37:21Z</time>
      </trkpt>
      <trkpt lat="44.90855" lon="5.29093">
        <ele>1306.09</ele>
        <time>2024-09-19T14:37:37Z</time>
      </trkpt>
      <trkpt lat="44.90853" lon="5.29093">
        <ele>1305.61</ele>
        <time>2024-09-19T14:37:49Z</time>
      </trkpt>
      <trkpt lat="44.90846" lon="5.29092">
        <ele>1306.09</ele>
        <time>2024-09-19T14:37:57Z</time>
      </trkpt>
      <trkpt lat="44.90827" lon="5.29088">
        <ele>1305.61</ele>
        <time>2024-09-19T14:38:14Z</time>
      </trkpt>
      <trkpt lat="44.90805" lon="5.29088">
        <ele>1312.82</ele>
        <time>2024-09-19T14:38:30Z</time>
      </trkpt>
      <trkpt lat="44.90787" lon="5.29088">
        <ele>1314.74</ele>
        <time>2024-09-19T14:38:47Z</time>
      </trkpt>
      <trkpt lat="44.90769" lon="5.2909">
        <ele>1314.26</ele>
        <time>2024-09-19T14:39:01Z</time>
      </trkpt>
      <trkpt lat="44.90749" lon="5.29088">
        <ele>1315.22</ele>
        <time>2024-09-19T14:39:15Z</time>
      </trkpt>
      <trkpt lat="44.90745" lon="5.29088">
        <ele>1315.7</ele>
        <time>2024-09-19T14:39:19Z</time>
      </trkpt>
      <trkpt lat="44.90731" lon="5.29101">
        <ele>1317.14</ele>
        <time>2024-09-19T14:39:35Z</time>
      </trkpt>
      <trkpt lat="44.9073" lon="5.2912">
        <ele>1322.43</ele>
        <time>2024-09-19T14:39:49Z</time>
      </trkpt>
      <trkpt lat="44.9073" lon="5.29126">
        <ele>1319.55</ele>
        <time>2024-09-19T14:40:06Z</time>
      </trkpt>
      <trkpt lat="44.90732" lon="5.29126">
        <ele>1318.1</ele>
        <time>2024-09-19T14:40:30Z</time>
      </trkpt>
      <trkpt lat="44.90739" lon="5.29138">
        <ele>1319.55</ele>
        <time>2024-09-19T14:40:50Z</time>
      </trkpt>
      <trkpt lat="44.90741" lon="5.29147">
        <ele>1322.91</ele>
        <time>2024-09-19T14:40:55Z</time>
      </trkpt>
      <trkpt lat="44.90746" lon="5.29154">
        <ele>1326.28</ele>
        <time>2024-09-19T14:41:13Z</time>
      </trkpt>
      <trkpt lat="44.90745" lon="5.29156">
        <ele>1326.76</ele>
        <time>2024-09-19T14:41:34Z</time>
      </trkpt>
      <trkpt lat="44.90739" lon="5.29152">
        <ele>1326.76</ele>
        <time>2024-09-19T14:41:45Z</time>
      </trkpt>
      <trkpt lat="44.90728" lon="5.29126">
        <ele>1327.24</ele>
        <time>2024-09-19T14:42:03Z</time>
      </trkpt>
      <trkpt lat="44.9073" lon="5.29096">
        <ele>1320.99</ele>
        <time>2024-09-19T14:42:19Z</time>
      </trkpt>
      <trkpt lat="44.90743" lon="5.29086">
        <ele>1318.1</ele>
        <time>2024-09-19T14:42:31Z</time>
      </trkpt>
      <trkpt lat="44.90756" lon="5.29083">
        <ele>1318.1</ele>
        <time>2024-09-19T14:42:41Z</time>
      </trkpt>
      <trkpt lat="44.90786" lon="5.29086">
        <ele>1320.03</ele>
        <time>2024-09-19T14:42:58Z</time>
      </trkpt>
      <trkpt lat="44.90806" lon="5.29086">
        <ele>1320.03</ele>
        <time>2024-09-19T14:43:13Z</time>
      </trkpt>
      <trkpt lat="44.90812" lon="5.29087">
        <ele>1320.03</ele>
        <time>2024-09-19T14:43:29Z</time>
      </trkpt>
      <trkpt lat="44.90822" lon="5.29101">
        <ele>1322.43</ele>
        <time>2024-09-19T14:43:45Z</time>
      </trkpt>
      <trkpt lat="44.90834" lon="5.29132">
        <ele>1329.16</ele>
        <time>2024-09-19T14:44:05Z</time>
      </trkpt>
      <trkpt lat="44.90827" lon="5.29148">
        <ele>1332.04</ele>
        <time>2024-09-19T14:44:18Z</time>
      </trkpt>
      <trkpt lat="44.90824" lon="5.29158">
        <ele>1336.37</ele>
        <time>2024-09-19T14:44:33Z</time>
      </trkpt>
      <trkpt lat="44.90827" lon="5.29159">
        <ele>1341.18</ele>
        <time>2024-09-19T14:44:50Z</time>
      </trkpt>
      <trkpt lat="44.90816" lon="5.29165">
        <ele>1341.66</ele>
        <time>2024-09-19T14:45:07Z</time>
      </trkpt>
      <trkpt lat="44.90814" lon="5.29164">
        <ele>1338.29</ele>
        <time>2024-09-19T14:45:33Z</time>
      </trkpt>
      <trkpt lat="44.90812" lon="5.29156">
        <ele>1334.93</ele>
        <time>2024-09-19T14:45:53Z</time>
      </trkpt>
      <trkpt lat="44.90818" lon="5.29155">
        <ele>1329.64</ele>
        <time>2024-09-19T14:46:09Z</time>
      </trkpt>
      <trkpt lat="44.90819" lon="5.29145">
        <ele>1326.28</ele>
        <time>2024-09-19T14:46:27Z</time>
      </trkpt>
      <trkpt lat="44.90816" lon="5.29138">
        <ele>1323.39</ele>
        <time>2024-09-19T14:46:43Z</time>
      </trkpt>
      <trkpt lat="44.90803" lon="5.29137">
        <ele>1321.47</ele>
        <time>2024-09-19T14:47:04Z</time>
      </trkpt>
      <trkpt lat="44.90802" lon="5.29141">
        <ele>1318.1</ele>
        <time>2024-09-19T14:47:21Z</time>
      </trkpt>
      <trkpt lat="44.90792" lon="5.29144">
        <ele>1321.95</ele>
        <time>2024-09-19T14:47:37Z</time>
      </trkpt>
      <trkpt lat="44.9079" lon="5.29143">
        <ele>1322.43</ele>
        <time>2024-09-19T14:47:39Z</time>
      </trkpt>
      <trkpt lat="44.90783" lon="5.29144">
        <ele>1321.95</ele>
        <time>2024-09-19T14:47:47Z</time>
      </trkpt>
      <trkpt lat="44.90771" lon="5.29151">
        <ele>1317.62</ele>
        <time>2024-09-19T14:48:03Z</time>
      </trkpt>
      <trkpt lat="44.90761" lon="5.29156">
        <ele>1314.26</ele>
        <time>2024-09-19T14:48:13Z</time>
      </trkpt>
      <trkpt lat="44.90747" lon="5.29161">
        <ele>1317.14</ele>
        <time>2024-09-19T14:48:27Z</time>
      </trkpt>
      <trkpt lat="44.90732" lon="5.2915">
        <ele>1320.99</ele>
        <time>2024-09-19T14:48:45Z</time>
      </trkpt>
      <trkpt lat="44.90733" lon="5.29153">
        <ele>1321.47</ele>
        <time>2024-09-19T14:48:48Z</time>
      </trkpt>
      <trkpt lat="44.90726" lon="5.29174">
        <ele>1325.31</ele>
        <time>2024-09-19T14:49:02Z</time>
      </trkpt>
      <trkpt lat="44.9072" lon="5.29181">
        <ele>1325.8</ele>
        <time>2024-09-19T14:49:06Z</time>
      </trkpt>
      <trkpt lat="44.90716" lon="5.29201">
        <ele>1326.28</ele>
        <time>2024-09-19T14:49:20Z</time>
      </trkpt>
      <trkpt lat="44.90717" lon="5.2922">
        <ele>1328.2</ele>
        <time>2024-09-19T14:49:31Z</time>
      </trkpt>
      <trkpt lat="44.90713" lon="5.29245">
        <ele>1332.52</ele>
        <time>2024-09-19T14:49:47Z</time>
      </trkpt>
      <trkpt lat="44.90694" lon="5.29257">
        <ele>1340.22</ele>
        <time>2024-09-19T14:50:07Z</time>
      </trkpt>
      <trkpt lat="44.90684" lon="5.29257">
        <ele>1342.62</ele>
        <time>2024-09-19T14:50:31Z</time>
      </trkpt>
      <trkpt lat="44.90686" lon="5.29241">
        <ele>1346.46</ele>
        <time>2024-09-19T14:51:05Z</time>
      </trkpt>
      <trkpt lat="44.90691" lon="5.29238">
        <ele>1343.58</ele>
        <time>2024-09-19T14:51:09Z</time>
      </trkpt>
      <trkpt lat="44.90711" lon="5.29227">
        <ele>1342.62</ele>
        <time>2024-09-19T14:51:28Z</time>
      </trkpt>
      <trkpt lat="44.90726" lon="5.29226">
        <ele>1343.1</ele>
        <time>2024-09-19T14:51:42Z</time>
      </trkpt>
      <trkpt lat="44.90734" lon="5.29235">
        <ele>1338.77</ele>
        <time>2024-09-19T14:51:57Z</time>
      </trkpt>
      <trkpt lat="44.90741" lon="5.29245">
        <ele>1333.97</ele>
        <time>2024-09-19T14:52:23Z</time>
      </trkpt>
      <trkpt lat="44.90733" lon="5.29243">
        <ele>1336.85</ele>
        <time>2024-09-19T14:52:56Z</time>
      </trkpt>
      <trkpt lat="44.90735" lon="5.29229">
        <ele>1339.73</ele>
        <time>2024-09-19T14:53:08Z</time>
      </trkpt>
      <trkpt lat="44.90743" lon="5.29226">
        <ele>1339.73</ele>
        <time>2024-09-19T14:53:25Z</time>
      </trkpt>
      <trkpt lat="44.90744" lon="5.29228">
        <ele>1336.85</ele>
        <time>2024-09-19T14:53:38Z</time>
      </trkpt>
      <trkpt lat="44.90746" lon="5.29226">
        <ele>1334.45</ele>
        <time>2024-09-19T14:53:56Z</time>
      </trkpt>
      <trkpt lat="44.90746" lon="5.29224">
        <ele>1335.89</ele>
        <time>2024-09-19T14:54:00Z</time>
      </trkpt>
      <trkpt lat="44.90747" lon="5.29216">
        <ele>1339.25</ele>
        <time>2024-09-19T14:54:11Z</time>
      </trkpt>
      <trkpt lat="44.90747" lon="5.29207">
        <ele>1339.73</ele>
        <time>2024-09-19T14:54:23Z</time>
      </trkpt>
      <trkpt lat="44.90746" lon="5.292">
        <ele>1341.66</ele>
        <time>2024-09-19T14:54:31Z</time>
      </trkpt>
      <trkpt lat="44.90744" lon="5.29199">
        <ele>1343.1</ele>
        <time>2024-09-19T14:54:34Z</time>
      </trkpt>
      <trkpt lat="44.90743" lon="5.29188">
        <ele>1343.58</ele>
        <time>2024-09-19T14:54:45Z</time>
      </trkpt>
      <trkpt lat="44.90745" lon="5.29175">
        <ele>1344.54</ele>
        <time>2024-09-19T14:54:56Z</time>
      </trkpt>
      <trkpt lat="44.90739" lon="5.29165">
        <ele>1344.06</ele>
        <time>2024-09-19T14:55:13Z</time>
      </trkpt>
      <trkpt lat="44.90733" lon="5.29155">
        <ele>1345.02</ele>
        <time>2024-09-19T14:55:27Z</time>
      </trkpt>
      <trkpt lat="44.90729" lon="5.29139">
        <ele>1341.18</ele>
        <time>2024-09-19T14:55:42Z</time>
      </trkpt>
      <trkpt lat="44.90726" lon="5.2913">
        <ele>1339.73</ele>
        <time>2024-09-19T14:55:53Z</time>
      </trkpt>
      <trkpt lat="44.90725" lon="5.29115">
        <ele>1339.25</ele>
        <time>2024-09-19T14:56:09Z</time>
      </trkpt>
      <trkpt lat="44.90727" lon="5.29106">
        <ele>1333.49</ele>
        <time>2024-09-19T14:56:26Z</time>
      </trkpt>
      <trkpt lat="44.90729" lon="5.29094">
        <ele>1332.04</ele>
        <time>2024-09-19T14:56:40Z</time>
      </trkpt>
      <trkpt lat="44.90735" lon="5.29085">
        <ele>1328.68</ele>
        <time>2024-09-19T14:56:56Z</time>
      </trkpt>
      <trkpt lat="44.90738" lon="5.29083">
        <ele>1327.24</ele>
        <time>2024-09-19T14:57:04Z</time>
      </trkpt>
      <trkpt lat="44.90743" lon="5.29081">
        <ele>1322.43</ele>
        <time>2024-09-19T14:57:19Z</time>
      </trkpt>
      <trkpt lat="44.9074" lon="5.29087">
        <ele>1321.47</ele>
        <time>2024-09-19T14:57:36Z</time>
      </trkpt>
      <trkpt lat="44.90742" lon="5.29085">
        <ele>1319.55</ele>
        <time>2024-09-19T14:57:49Z</time>
      </trkpt>
      <trkpt lat="44.90743" lon="5.29089">
        <ele>1321.95</ele>
        <time>2024-09-19T14:58:11Z</time>
      </trkpt>
      <trkpt lat="44.90745" lon="5.29085">
        <ele>1321.95</ele>
        <time>2024-09-19T14:58:37Z</time>
      </trkpt>
      <trkpt lat="44.90745" lon="5.29087">
        <ele>1320.51</ele>
        <time>2024-09-19T14:58:57Z</time>
      </trkpt>
      <trkpt lat="44.90744" lon="5.2909">
        <ele>1319.55</ele>
        <time>2024-09-19T14:59:17Z</time>
      </trkpt>
      <trkpt lat="44.90743" lon="5.29087">
        <ele>1318.1</ele>
        <time>2024-09-19T14:59:25Z</time>
      </trkpt>
      <trkpt lat="44.90743" lon="5.29092">
        <ele>1317.14</ele>
        <time>2024-09-19T14:59:37Z</time>
      </trkpt>
      <trkpt lat="44.90745" lon="5.29096">
        <ele>1317.14</ele>
        <time>2024-09-19T14:59:58Z</time>
      </trkpt>
      <trkpt lat="44.90746" lon="5.29095">
        <ele>1318.59</ele>
        <time>2024-09-19T15:00:21Z</time>
      </trkpt>
      <trkpt lat="44.90747" lon="5.29098">
        <ele>1320.03</ele>
        <time>2024-09-19T15:00:43Z</time>
      </trkpt>
      <trkpt lat="44.90755" lon="5.29095">
        <ele>1318.1</ele>
        <time>2024-09-19T15:00:50Z</time>
      </trkpt>
      <trkpt lat="44.90764" lon="5.29091">
        <ele>1317.62</ele>
        <time>2024-09-19T15:01:08Z</time>
      </trkpt>
      <trkpt lat="44.90765" lon="5.29091">
        <ele>1319.07</ele>
        <time>2024-09-19T15:01:30Z</time>
      </trkpt>
      <trkpt lat="44.90771" lon="5.29089">
        <ele>1316.18</ele>
        <time>2024-09-19T15:01:53Z</time>
      </trkpt>
      <trkpt lat="44.90782" lon="5.29084">
        <ele>1315.7</ele>
        <time>2024-09-19T15:02:07Z</time>
      </trkpt>
      <trkpt lat="44.90786" lon="5.29084">
        <ele>1314.74</ele>
        <time>2024-09-19T15:02:17Z</time>
      </trkpt>
      <trkpt lat="44.90785" lon="5.29085">
        <ele>1313.78</ele>
        <time>2024-09-19T15:02:33Z</time>
      </trkpt>
      <trkpt lat="44.90795" lon="5.29082">
        <ele>1316.66</ele>
        <time>2024-09-19T15:02:45Z</time>
      </trkpt>
      <trkpt lat="44.90811" lon="5.29086">
        <ele>1320.99</ele>
        <time>2024-09-19T15:02:59Z</time>
      </trkpt>
      <trkpt lat="44.90811" lon="5.29085">
        <ele>1324.35</ele>
        <time>2024-09-19T15:03:17Z</time>
      </trkpt>
      <trkpt lat="44.90812" lon="5.29087">
        <ele>1325.31</ele>
        <time>2024-09-19T15:03:31Z</time>
      </trkpt>
      <trkpt lat="44.90813" lon="5.29083">
        <ele>1324.35</ele>
        <time>2024-09-19T15:03:55Z</time>
      </trkpt>
      <trkpt lat="44.90812" lon="5.29082">
        <ele>1323.87</ele>
        <time>2024-09-19T15:04:19Z</time>
      </trkpt>
      <trkpt lat="44.90811" lon="5.29085">
        <ele>1320.03</ele>
        <time>2024-09-19T15:04:44Z</time>
      </trkpt>
      <trkpt lat="44.9081" lon="5.29087">
        <ele>1320.51</ele>
        <time>2024-09-19T15:04:57Z</time>
      </trkpt>
      <trkpt lat="44.9081" lon="5.29084">
        <ele>1318.1</ele>
        <time>2024-09-19T15:05:14Z</time>
      </trkpt>
      <trkpt lat="44.90813" lon="5.2909">
        <ele>1317.62</ele>
        <time>2024-09-19T15:05:27Z</time>
      </trkpt>
      <trkpt lat="44.90814" lon="5.29096">
        <ele>1317.14</ele>
        <time>2024-09-19T15:05:41Z</time>
      </trkpt>
      <trkpt lat="44.90813" lon="5.29098">
        <ele>1318.1</ele>
        <time>2024-09-19T15:05:59Z</time>
      </trkpt>
      <trkpt lat="44.90811" lon="5.29096">
        <ele>1318.59</ele>
        <time>2024-09-19T15:06:02Z</time>
      </trkpt>
      <trkpt lat="44.90805" lon="5.2909">
        <ele>1317.62</ele>
        <time>2024-09-19T15:06:16Z</time>
      </trkpt>
      <trkpt lat="44.90806" lon="5.29088">
        <ele>1316.18</ele>
        <time>2024-09-19T15:06:33Z</time>
      </trkpt>
      <trkpt lat="44.90808" lon="5.29088">
        <ele>1316.18</ele>
        <time>2024-09-19T15:06:45Z</time>
      </trkpt>
      <trkpt lat="44.90821" lon="5.29086">
        <ele>1318.59</ele>
        <time>2024-09-19T15:07:00Z</time>
      </trkpt>
      <trkpt lat="44.90833" lon="5.29083">
        <ele>1322.91</ele>
        <time>2024-09-19T15:07:13Z</time>
      </trkpt>
      <trkpt lat="44.90847" lon="5.29086">
        <ele>1320.99</ele>
        <time>2024-09-19T15:07:26Z</time>
      </trkpt>
      <trkpt lat="44.90856" lon="5.29089">
        <ele>1319.55</ele>
        <time>2024-09-19T15:07:41Z</time>
      </trkpt>
      <trkpt lat="44.90866" lon="5.29093">
        <ele>1317.62</ele>
        <time>2024-09-19T15:07:56Z</time>
      </trkpt>
      <trkpt lat="44.90875" lon="5.29092">
        <ele>1314.26</ele>
        <time>2024-09-19T15:08:15Z</time>
      </trkpt>
      <trkpt lat="44.90885" lon="5.2909">
        <ele>1317.14</ele>
        <time>2024-09-19T15:08:27Z</time>
      </trkpt>
      <trkpt lat="44.90896" lon="5.29088">
        <ele>1320.51</ele>
        <time>2024-09-19T15:08:40Z</time>
      </trkpt>
      <trkpt lat="44.90911" lon="5.2909">
        <ele>1320.99</ele>
        <time>2024-09-19T15:08:54Z</time>
      </trkpt>
      <trkpt lat="44.90914" lon="5.29091">
        <ele>1320.99</ele>
        <time>2024-09-19T15:08:56Z</time>
      </trkpt>
      <trkpt lat="44.90921" lon="5.29092">
        <ele>1322.43</ele>
        <time>2024-09-19T15:09:11Z</time>
      </trkpt>
      <trkpt lat="44.90927" lon="5.29091">
        <ele>1321.47</ele>
        <time>2024-09-19T15:09:27Z</time>
      </trkpt>
      <trkpt lat="44.90941" lon="5.29094">
        <ele>1322.43</ele>
        <time>2024-09-19T15:09:39Z</time>
      </trkpt>
      <trkpt lat="44.90955" lon="5.29097">
        <ele>1320.03</ele>
        <time>2024-09-19T15:09:52Z</time>
      </trkpt>
      <trkpt lat="44.90962" lon="5.29099">
        <ele>1319.55</ele>
        <time>2024-09-19T15:10:06Z</time>
      </trkpt>
      <trkpt lat="44.90976" lon="5.29105">
        <ele>1320.03</ele>
        <time>2024-09-19T15:10:21Z</time>
      </trkpt>
      <trkpt lat="44.90988" lon="5.29107">
        <ele>1319.07</ele>
        <time>2024-09-19T15:10:31Z</time>
      </trkpt>
      <trkpt lat="44.91003" lon="5.29114">
        <ele>1320.03</ele>
        <time>2024-09-19T15:10:43Z</time>
      </trkpt>
      <trkpt lat="44.91014" lon="5.29121">
        <ele>1320.99</ele>
        <time>2024-09-19T15:10:53Z</time>
      </trkpt>
      <trkpt lat="44.91028" lon="5.29121">
        <ele>1320.51</ele>
        <time>2024-09-19T15:11:06Z</time>
      </trkpt>
      <trkpt lat="44.91042" lon="5.29124">
        <ele>1321.47</ele>
        <time>2024-09-19T15:11:17Z</time>
      </trkpt>
      <trkpt lat="44.91052" lon="5.29118">
        <ele>1321.95</ele>
        <time>2024-09-19T15:11:29Z</time>
      </trkpt>
      <trkpt lat="44.91062" lon="5.29117">
        <ele>1323.87</ele>
        <time>2024-09-19T15:11:43Z</time>
      </trkpt>
      <trkpt lat="44.91069" lon="5.29121">
        <ele>1325.8</ele>
        <time>2024-09-19T15:11:59Z</time>
      </trkpt>
      <trkpt lat="44.91068" lon="5.2912">
        <ele>1324.35</ele>
        <time>2024-09-19T15:12:19Z</time>
      </trkpt>
      <trkpt lat="44.91069" lon="5.29117">
        <ele>1321.95</ele>
        <time>2024-09-19T15:12:36Z</time>
      </trkpt>
      <trkpt lat="44.91071" lon="5.29119">
        <ele>1320.03</ele>
        <time>2024-09-19T15:12:50Z</time>
      </trkpt>
      <trkpt lat="44.91071" lon="5.29119">
        <ele>1320.51</ele>
        <time>2024-09-19T15:13:13Z</time>
      </trkpt>
      <trkpt lat="44.91079" lon="5.29121">
        <ele>1320.51</ele>
        <time>2024-09-19T15:13:22Z</time>
      </trkpt>
      <trkpt lat="44.91103" lon="5.29127">
        <ele>1319.55</ele>
        <time>2024-09-19T15:13:35Z</time>
      </trkpt>
      <trkpt lat="44.9113" lon="5.29122">
        <ele>1319.07</ele>
        <time>2024-09-19T15:13:52Z</time>
      </trkpt>
      <trkpt lat="44.91167" lon="5.29118">
        <ele>1319.07</ele>
        <time>2024-09-19T15:14:11Z</time>
      </trkpt>
      <trkpt lat="44.91195" lon="5.29129">
        <ele>1317.62</ele>
        <time>2024-09-19T15:14:28Z</time>
      </trkpt>
      <trkpt lat="44.91222" lon="5.29134">
        <ele>1318.59</ele>
        <time>2024-09-19T15:14:45Z</time>
      </trkpt>
      <trkpt lat="44.9125" lon="5.29142">
        <ele>1317.14</ele>
        <time>2024-09-19T15:15:01Z</time>
      </trkpt>
      <trkpt lat="44.91273" lon="5.2915">
        <ele>1316.66</ele>
        <time>2024-09-19T15:15:17Z</time>
      </trkpt>
      <trkpt lat="44.91297" lon="5.29161">
        <ele>1320.99</ele>
        <time>2024-09-19T15:15:32Z</time>
      </trkpt>
      <trkpt lat="44.91325" lon="5.29179">
        <ele>1322.91</ele>
        <time>2024-09-19T15:15:49Z</time>
      </trkpt>
      <trkpt lat="44.91351" lon="5.29191">
        <ele>1322.91</ele>
        <time>2024-09-19T15:16:04Z</time>
      </trkpt>
      <trkpt lat="44.91369" lon="5.29203">
        <ele>1323.39</ele>
        <time>2024-09-19T15:16:19Z</time>
      </trkpt>
      <trkpt lat="44.91373" lon="5.29206">
        <ele>1323.39</ele>
        <time>2024-09-19T15:16:22Z</time>
      </trkpt>
      <trkpt lat="44.91374" lon="5.29206">
        <ele>1322.91</ele>
        <time>2024-09-19T15:16:23Z</time>
      </trkpt>
      <trkpt lat="44.91399" lon="5.29213">
        <ele>1318.1</ele>
        <time>2024-09-19T15:16:38Z</time>
      </trkpt>
      <trkpt lat="44.91423" lon="5.29193">
        <ele>1314.74</ele>
        <time>2024-09-19T15:16:55Z</time>
      </trkpt>
      <trkpt lat="44.91441" lon="5.29189">
        <ele>1313.3</ele>
        <time>2024-09-19T15:17:09Z</time>
      </trkpt>
      <trkpt lat="44.91459" lon="5.29216">
        <ele>1312.82</ele>
        <time>2024-09-19T15:17:23Z</time>
      </trkpt>
      <trkpt lat="44.91484" lon="5.29235">
        <ele>1311.86</ele>
        <time>2024-09-19T15:17:40Z</time>
      </trkpt>
      <trkpt lat="44.91505" lon="5.29254">
        <ele>1311.38</ele>
        <time>2024-09-19T15:17:56Z</time>
      </trkpt>
      <trkpt lat="44.91521" lon="5.29284">
        <ele>1309.45</ele>
        <time>2024-09-19T15:18:12Z</time>
      </trkpt>
      <trkpt lat="44.91534" lon="5.29303">
        <ele>1306.57</ele>
        <time>2024-09-19T15:18:28Z</time>
      </trkpt>
      <trkpt lat="44.91535" lon="5.29302">
        <ele>1304.17</ele>
        <time>2024-09-19T15:18:49Z</time>
      </trkpt>
      <trkpt lat="44.91537" lon="5.29301">
        <ele>1304.17</ele>
        <time>2024-09-19T15:19:05Z</time>
      </trkpt>
      <trkpt lat="44.91537" lon="5.29299">
        <ele>1302.72</ele>
        <time>2024-09-19T15:19:20Z</time>
      </trkpt>
      <trkpt lat="44.91542" lon="5.29302">
        <ele>1304.65</ele>
        <time>2024-09-19T15:19:37Z</time>
      </trkpt>
      <trkpt lat="44.9155" lon="5.29298">
        <ele>1307.53</ele>
        <time>2024-09-19T15:19:45Z</time>
      </trkpt>
      <trkpt lat="44.91569" lon="5.29299">
        <ele>1309.93</ele>
        <time>2024-09-19T15:20:03Z</time>
      </trkpt>
      <trkpt lat="44.91592" lon="5.29299">
        <ele>1310.41</ele>
        <time>2024-09-19T15:20:21Z</time>
      </trkpt>
      <trkpt lat="44.91612" lon="5.29312">
        <ele>1311.86</ele>
        <time>2024-09-19T15:20:34Z</time>
      </trkpt>
      <trkpt lat="44.91629" lon="5.29317">
        <ele>1313.3</ele>
        <time>2024-09-19T15:20:50Z</time>
      </trkpt>
      <trkpt lat="44.9163" lon="5.29319">
        <ele>1313.3</ele>
        <time>2024-09-19T15:20:51Z</time>
      </trkpt>
      <trkpt lat="44.91632" lon="5.2932">
        <ele>1313.3</ele>
        <time>2024-09-19T15:20:52Z</time>
      </trkpt>
      <trkpt lat="44.91651" lon="5.29334">
        <ele>1312.34</ele>
        <time>2024-09-19T15:21:06Z</time>
      </trkpt>
      <trkpt lat="44.91674" lon="5.29358">
        <ele>1316.66</ele>
        <time>2024-09-19T15:21:20Z</time>
      </trkpt>
      <trkpt lat="44.91704" lon="5.29367">
        <ele>1321.95</ele>
        <time>2024-09-19T15:21:34Z</time>
      </trkpt>
      <trkpt lat="44.91748" lon="5.29377">
        <ele>1321.95</ele>
        <time>2024-09-19T15:21:48Z</time>
      </trkpt>
      <trkpt lat="44.91805" lon="5.294">
        <ele>1321.95</ele>
        <time>2024-09-19T15:22:03Z</time>
      </trkpt>
      <trkpt lat="44.9185" lon="5.29391">
        <ele>1321.47</ele>
        <time>2024-09-19T15:22:14Z</time>
      </trkpt>
      <trkpt lat="44.91902" lon="5.29389">
        <ele>1321.47</ele>
        <time>2024-09-19T15:22:28Z</time>
      </trkpt>
      <trkpt lat="44.9194" lon="5.29383">
        <ele>1320.99</ele>
        <time>2024-09-19T15:22:40Z</time>
      </trkpt>
      <trkpt lat="44.9197" lon="5.2937">
        <ele>1321.47</ele>
        <time>2024-09-19T15:22:48Z</time>
      </trkpt>
      <trkpt lat="44.91975" lon="5.29368">
        <ele>1321.47</ele>
        <time>2024-09-19T15:22:49Z</time>
      </trkpt>
      <trkpt lat="44.92044" lon="5.29329">
        <ele>1320.99</ele>
        <time>2024-09-19T15:23:04Z</time>
      </trkpt>
      <trkpt lat="44.92096" lon="5.29303">
        <ele>1317.14</ele>
        <time>2024-09-19T15:23:17Z</time>
      </trkpt>
      <trkpt lat="44.92145" lon="5.29281">
        <ele>1313.3</ele>
        <time>2024-09-19T15:23:30Z</time>
      </trkpt>
      <trkpt lat="44.92189" lon="5.29267">
        <ele>1307.05</ele>
        <time>2024-09-19T15:23:43Z</time>
      </trkpt>
      <trkpt lat="44.92227" lon="5.29254">
        <ele>1304.65</ele>
        <time>2024-09-19T15:23:55Z</time>
      </trkpt>
      <trkpt lat="44.92266" lon="5.29257">
        <ele>1300.8</ele>
        <time>2024-09-19T15:24:05Z</time>
      </trkpt>
      <trkpt lat="44.92315" lon="5.29254">
        <ele>1300.32</ele>
        <time>2024-09-19T15:24:20Z</time>
      </trkpt>
      <trkpt lat="44.92355" lon="5.29256">
        <ele>1297.44</ele>
        <time>2024-09-19T15:24:34Z</time>
      </trkpt>
      <trkpt lat="44.9238" lon="5.29266">
        <ele>1295.99</ele>
        <time>2024-09-19T15:24:50Z</time>
      </trkpt>
      <trkpt lat="44.92404" lon="5.29282">
        <ele>1293.59</ele>
        <time>2024-09-19T15:25:06Z</time>
      </trkpt>
      <trkpt lat="44.92425" lon="5.29301">
        <ele>1291.67</ele>
        <time>2024-09-19T15:25:20Z</time>
      </trkpt>
      <trkpt lat="44.92445" lon="5.29331">
        <ele>1289.27</ele>
        <time>2024-09-19T15:25:39Z</time>
      </trkpt>
      <trkpt lat="44.92446" lon="5.29335">
        <ele>1288.78</ele>
        <time>2024-09-19T15:25:41Z</time>
      </trkpt>
      <trkpt lat="44.92446" lon="5.29338">
        <ele>1288.78</ele>
        <time>2024-09-19T15:25:42Z</time>
      </trkpt>
      <trkpt lat="44.92447" lon="5.29341">
        <ele>1288.78</ele>
        <time>2024-09-19T15:25:43Z</time>
      </trkpt>
      <trkpt lat="44.92457" lon="5.29356">
        <ele>1288.78</ele>
        <time>2024-09-19T15:25:52Z</time>
      </trkpt>
      <trkpt lat="44.92476" lon="5.29369">
        <ele>1289.27</ele>
        <time>2024-09-19T15:26:04Z</time>
      </trkpt>
      <trkpt lat="44.92499" lon="5.29386">
        <ele>1290.23</ele>
        <time>2024-09-19T15:26:22Z</time>
      </trkpt>
      <trkpt lat="44.92524" lon="5.29419">
        <ele>1290.71</ele>
        <time>2024-09-19T15:26:40Z</time>
      </trkpt>
      <trkpt lat="44.92546" lon="5.2944">
        <ele>1289.75</ele>
        <time>2024-09-19T15:26:57Z</time>
      </trkpt>
      <trkpt lat="44.92569" lon="5.29463">
        <ele>1288.78</ele>
        <time>2024-09-19T15:27:13Z</time>
      </trkpt>
      <trkpt lat="44.92571" lon="5.29464">
        <ele>1288.78</ele>
        <time>2024-09-19T15:27:14Z</time>
      </trkpt>
      <trkpt lat="44.92573" lon="5.29466">
        <ele>1288.78</ele>
        <time>2024-09-19T15:27:15Z</time>
      </trkpt>
      <trkpt lat="44.92575" lon="5.29468">
        <ele>1288.78</ele>
        <time>2024-09-19T15:27:16Z</time>
      </trkpt>
      <trkpt lat="44.92577" lon="5.29469">
        <ele>1288.78</ele>
        <time>2024-09-19T15:27:17Z</time>
      </trkpt>
      <trkpt lat="44.92579" lon="5.29471">
        <ele>1288.78</ele>
        <time>2024-09-19T15:27:18Z</time>
      </trkpt>
      <trkpt lat="44.92581" lon="5.29473">
        <ele>1288.78</ele>
        <time>2024-09-19T15:27:19Z</time>
      </trkpt>
      <trkpt lat="44.92582" lon="5.29474">
        <ele>1288.78</ele>
        <time>2024-09-19T15:27:20Z</time>
      </trkpt>
      <trkpt lat="44.92584" lon="5.29475">
        <ele>1289.27</ele>
        <time>2024-09-19T15:27:21Z</time>
      </trkpt>
      <trkpt lat="44.92585" lon="5.29477">
        <ele>1289.27</ele>
        <time>2024-09-19T15:27:22Z</time>
      </trkpt>
      <trkpt lat="44.92587" lon="5.29478">
        <ele>1289.75</ele>
        <time>2024-09-19T15:27:23Z</time>
      </trkpt>
      <trkpt lat="44.92588" lon="5.29479">
        <ele>1289.75</ele>
        <time>2024-09-19T15:27:24Z</time>
      </trkpt>
      <trkpt lat="44.92589" lon="5.29479">
        <ele>1290.23</ele>
        <time>2024-09-19T15:27:25Z</time>
      </trkpt>
      <trkpt lat="44.92608" lon="5.29489">
        <ele>1292.63</ele>
        <time>2024-09-19T15:27:39Z</time>
      </trkpt>
      <trkpt lat="44.92624" lon="5.29501">
        <ele>1293.11</ele>
        <time>2024-09-19T15:27:51Z</time>
      </trkpt>
      <trkpt lat="44.92636" lon="5.29505">
        <ele>1295.51</ele>
        <time>2024-09-19T15:28:00Z</time>
      </trkpt>
      <trkpt lat="44.92658" lon="5.29514">
        <ele>1297.44</ele>
        <time>2024-09-19T15:28:13Z</time>
      </trkpt>
      <trkpt lat="44.92678" lon="5.29516">
        <ele>1299.36</ele>
        <time>2024-09-19T15:28:25Z</time>
      </trkpt>
      <trkpt lat="44.92698" lon="5.29513">
        <ele>1302.72</ele>
        <time>2024-09-19T15:28:36Z</time>
      </trkpt>
      <trkpt lat="44.92708" lon="5.29513">
        <ele>1305.13</ele>
        <time>2024-09-19T15:28:46Z</time>
      </trkpt>
      <trkpt lat="44.9271" lon="5.29514">
        <ele>1305.13</ele>
        <time>2024-09-19T15:28:47Z</time>
      </trkpt>
      <trkpt lat="44.92711" lon="5.29514">
        <ele>1305.61</ele>
        <time>2024-09-19T15:28:48Z</time>
      </trkpt>
      <trkpt lat="44.92714" lon="5.29513">
        <ele>1306.09</ele>
        <time>2024-09-19T15:28:49Z</time>
      </trkpt>
      <trkpt lat="44.92716" lon="5.29513">
        <ele>1306.57</ele>
        <time>2024-09-19T15:28:50Z</time>
      </trkpt>
      <trkpt lat="44.92718" lon="5.29514">
        <ele>1306.57</ele>
        <time>2024-09-19T15:28:51Z</time>
      </trkpt>
      <trkpt lat="44.92719" lon="5.29516">
        <ele>1306.57</ele>
        <time>2024-09-19T15:28:52Z</time>
      </trkpt>
      <trkpt lat="44.92722" lon="5.29518">
        <ele>1306.57</ele>
        <time>2024-09-19T15:28:53Z</time>
      </trkpt>
      <trkpt lat="44.92724" lon="5.29518">
        <ele>1307.05</ele>
        <time>2024-09-19T15:28:54Z</time>
      </trkpt>
      <trkpt lat="44.92726" lon="5.29519">
        <ele>1307.05</ele>
        <time>2024-09-19T15:28:55Z</time>
      </trkpt>
      <trkpt lat="44.92728" lon="5.29519">
        <ele>1307.05</ele>
        <time>2024-09-19T15:28:56Z</time>
      </trkpt>
      <trkpt lat="44.92742" lon="5.29517">
        <ele>1307.05</ele>
        <time>2024-09-19T15:29:04Z</time>
      </trkpt>
      <trkpt lat="44.92744" lon="5.29517">
        <ele>1307.53</ele>
        <time>2024-09-19T15:29:05Z</time>
      </trkpt>
      <trkpt lat="44.92745" lon="5.29517">
        <ele>1307.53</ele>
        <time>2024-09-19T15:29:06Z</time>
      </trkpt>
      <trkpt lat="44.92746" lon="5.29517">
        <ele>1307.53</ele>
        <time>2024-09-19T15:29:07Z</time>
      </trkpt>
      <trkpt lat="44.92747" lon="5.29516">
        <ele>1307.53</ele>
        <time>2024-09-19T15:29:08Z</time>
      </trkpt>
      <trkpt lat="44.92748" lon="5.29516">
        <ele>1307.53</ele>
        <time>2024-09-19T15:29:09Z</time>
      </trkpt>
      <trkpt lat="44.92772" lon="5.29514">
        <ele>1307.05</ele>
        <time>2024-09-19T15:29:20Z</time>
      </trkpt>
      <trkpt lat="44.92793" lon="5.29513">
        <ele>1305.13</ele>
        <time>2024-09-19T15:29:34Z</time>
      </trkpt>
      <trkpt lat="44.92794" lon="5.29512">
        <ele>1305.13</ele>
        <time>2024-09-19T15:29:35Z</time>
      </trkpt>
      <trkpt lat="44.92796" lon="5.29512">
        <ele>1304.65</ele>
        <time>2024-09-19T15:29:36Z</time>
      </trkpt>
      <trkpt lat="44.92797" lon="5.29511">
        <ele>1304.65</ele>
        <time>2024-09-19T15:29:37Z</time>
      </trkpt>
      <trkpt lat="44.92799" lon="5.2951">
        <ele>1304.65</ele>
        <time>2024-09-19T15:29:38Z</time>
      </trkpt>
      <trkpt lat="44.928" lon="5.29509">
        <ele>1304.65</ele>
        <time>2024-09-19T15:29:39Z</time>
      </trkpt>
      <trkpt lat="44.92802" lon="5.29509">
        <ele>1304.17</ele>
        <time>2024-09-19T15:29:40Z</time>
      </trkpt>
      <trkpt lat="44.92805" lon="5.29509">
        <ele>1304.17</ele>
        <time>2024-09-19T15:29:41Z</time>
      </trkpt>
      <trkpt lat="44.92828" lon="5.29512">
        <ele>1303.2</ele>
        <time>2024-09-19T15:29:55Z</time>
      </trkpt>
      <trkpt lat="44.92832" lon="5.29512">
        <ele>1303.2</ele>
        <time>2024-09-19T15:29:58Z</time>
      </trkpt>
      <trkpt lat="44.92834" lon="5.29512">
        <ele>1303.2</ele>
        <time>2024-09-19T15:29:59Z</time>
      </trkpt>
      <trkpt lat="44.92836" lon="5.29512">
        <ele>1302.72</ele>
        <time>2024-09-19T15:30:00Z</time>
      </trkpt>
      <trkpt lat="44.92838" lon="5.29512">
        <ele>1302.72</ele>
        <time>2024-09-19T15:30:01Z</time>
      </trkpt>
      <trkpt lat="44.9284" lon="5.29512">
        <ele>1302.72</ele>
        <time>2024-09-19T15:30:02Z</time>
      </trkpt>
      <trkpt lat="44.92844" lon="5.29513">
        <ele>1302.24</ele>
        <time>2024-09-19T15:30:04Z</time>
      </trkpt>
      <trkpt lat="44.92845" lon="5.29513">
        <ele>1302.24</ele>
        <time>2024-09-19T15:30:05Z</time>
      </trkpt>
      <trkpt lat="44.92847" lon="5.29513">
        <ele>1302.72</ele>
        <time>2024-09-19T15:30:06Z</time>
      </trkpt>
      <trkpt lat="44.92849" lon="5.29513">
        <ele>1302.72</ele>
        <time>2024-09-19T15:30:07Z</time>
      </trkpt>
      <trkpt lat="44.9285" lon="5.29513">
        <ele>1302.24</ele>
        <time>2024-09-19T15:30:08Z</time>
      </trkpt>
      <trkpt lat="44.92852" lon="5.29513">
        <ele>1302.24</ele>
        <time>2024-09-19T15:30:09Z</time>
      </trkpt>
      <trkpt lat="44.92854" lon="5.29513">
        <ele>1302.24</ele>
        <time>2024-09-19T15:30:10Z</time>
      </trkpt>
      <trkpt lat="44.92856" lon="5.29513">
        <ele>1302.24</ele>
        <time>2024-09-19T15:30:11Z</time>
      </trkpt>
      <trkpt lat="44.9286" lon="5.29514">
        <ele>1301.76</ele>
        <time>2024-09-19T15:30:14Z</time>
      </trkpt>
      <trkpt lat="44.92881" lon="5.29517">
        <ele>1300.8</ele>
        <time>2024-09-19T15:30:26Z</time>
      </trkpt>
      <trkpt lat="44.92882" lon="5.29517">
        <ele>1300.8</ele>
        <time>2024-09-19T15:30:27Z</time>
      </trkpt>
      <trkpt lat="44.92899" lon="5.29518">
        <ele>1298.88</ele>
        <time>2024-09-19T15:30:39Z</time>
      </trkpt>
      <trkpt lat="44.929" lon="5.29518">
        <ele>1298.88</ele>
        <time>2024-09-19T15:30:40Z</time>
      </trkpt>
      <trkpt lat="44.92902" lon="5.29519">
        <ele>1298.4</ele>
        <time>2024-09-19T15:30:41Z</time>
      </trkpt>
      <trkpt lat="44.92904" lon="5.29519">
        <ele>1298.88</ele>
        <time>2024-09-19T15:30:42Z</time>
      </trkpt>
      <trkpt lat="44.92905" lon="5.29519">
        <ele>1298.4</ele>
        <time>2024-09-19T15:30:43Z</time>
      </trkpt>
      <trkpt lat="44.92925" lon="5.29523">
        <ele>1298.4</ele>
        <time>2024-09-19T15:30:55Z</time>
      </trkpt>
      <trkpt lat="44.92926" lon="5.29524">
        <ele>1298.4</ele>
        <time>2024-09-19T15:30:56Z</time>
      </trkpt>
      <trkpt lat="44.92928" lon="5.29524">
        <ele>1298.88</ele>
        <time>2024-09-19T15:30:57Z</time>
      </trkpt>
      <trkpt lat="44.92929" lon="5.29524">
        <ele>1298.88</ele>
        <time>2024-09-19T15:30:58Z</time>
      </trkpt>
      <trkpt lat="44.92931" lon="5.29524">
        <ele>1298.88</ele>
        <time>2024-09-19T15:30:59Z</time>
      </trkpt>
      <trkpt lat="44.92932" lon="5.29524">
        <ele>1299.36</ele>
        <time>2024-09-19T15:31:00Z</time>
      </trkpt>
      <trkpt lat="44.92953" lon="5.2953">
        <ele>1297.92</ele>
        <time>2024-09-19T15:31:15Z</time>
      </trkpt>
      <trkpt lat="44.92971" lon="5.2955">
        <ele>1298.88</ele>
        <time>2024-09-19T15:31:27Z</time>
      </trkpt>
      <trkpt lat="44.92985" lon="5.2957">
        <ele>1299.36</ele>
        <time>2024-09-19T15:31:40Z</time>
      </trkpt>
      <trkpt lat="44.92987" lon="5.29574">
        <ele>1299.84</ele>
        <time>2024-09-19T15:31:42Z</time>
      </trkpt>
      <trkpt lat="44.92988" lon="5.29576">
        <ele>1299.84</ele>
        <time>2024-09-19T15:31:43Z</time>
      </trkpt>
      <trkpt lat="44.92988" lon="5.29578">
        <ele>1299.84</ele>
        <time>2024-09-19T15:31:44Z</time>
      </trkpt>
      <trkpt lat="44.9299" lon="5.2958">
        <ele>1299.84</ele>
        <time>2024-09-19T15:31:45Z</time>
      </trkpt>
      <trkpt lat="44.92991" lon="5.29582">
        <ele>1299.84</ele>
        <time>2024-09-19T15:31:46Z</time>
      </trkpt>
      <trkpt lat="44.93007" lon="5.29599">
        <ele>1301.76</ele>
        <time>2024-09-19T15:31:58Z</time>
      </trkpt>
      <trkpt lat="44.93025" lon="5.29613">
        <ele>1304.65</ele>
        <time>2024-09-19T15:32:12Z</time>
      </trkpt>
      <trkpt lat="44.93026" lon="5.29613">
        <ele>1304.65</ele>
        <time>2024-09-19T15:32:13Z</time>
      </trkpt>
      <trkpt lat="44.93046" lon="5.2963">
        <ele>1310.41</ele>
        <time>2024-09-19T15:32:27Z</time>
      </trkpt>
      <trkpt lat="44.93059" lon="5.29646">
        <ele>1310.9</ele>
        <time>2024-09-19T15:32:39Z</time>
      </trkpt>
      <trkpt lat="44.93071" lon="5.2968">
        <ele>1310.41</ele>
        <time>2024-09-19T15:32:55Z</time>
      </trkpt>
      <trkpt lat="44.93071" lon="5.29683">
        <ele>1309.93</ele>
        <time>2024-09-19T15:32:56Z</time>
      </trkpt>
      <trkpt lat="44.93071" lon="5.29686">
        <ele>1309.93</ele>
        <time>2024-09-19T15:32:57Z</time>
      </trkpt>
      <trkpt lat="44.93082" lon="5.29739">
        <ele>1307.05</ele>
        <time>2024-09-19T15:33:12Z</time>
      </trkpt>
      <trkpt lat="44.93081" lon="5.29742">
        <ele>1307.05</ele>
        <time>2024-09-19T15:33:13Z</time>
      </trkpt>
      <trkpt lat="44.93082" lon="5.29754">
        <ele>1308.49</ele>
        <time>2024-09-19T15:33:24Z</time>
      </trkpt>
      <trkpt lat="44.93084" lon="5.29781">
        <ele>1316.66</ele>
        <time>2024-09-19T15:33:38Z</time>
      </trkpt>
      <trkpt lat="44.93083" lon="5.29799">
        <ele>1327.24</ele>
        <time>2024-09-19T15:33:50Z</time>
      </trkpt>
      <trkpt lat="44.93083" lon="5.29801">
        <ele>1327.24</ele>
        <time>2024-09-19T15:33:51Z</time>
      </trkpt>
      <trkpt lat="44.93082" lon="5.2982">
        <ele>1327.72</ele>
        <time>2024-09-19T15:34:01Z</time>
      </trkpt>
      <trkpt lat="44.93079" lon="5.29832">
        <ele>1327.72</ele>
        <time>2024-09-19T15:34:06Z</time>
      </trkpt>
      <trkpt lat="44.9308" lon="5.29862">
        <ele>1328.2</ele>
        <time>2024-09-19T15:34:18Z</time>
      </trkpt>
      <trkpt lat="44.9308" lon="5.29893">
        <ele>1329.16</ele>
        <time>2024-09-19T15:34:32Z</time>
      </trkpt>
      <trkpt lat="44.93085" lon="5.29921">
        <ele>1329.16</ele>
        <time>2024-09-19T15:34:44Z</time>
      </trkpt>
      <trkpt lat="44.93085" lon="5.29951">
        <ele>1328.2</ele>
        <time>2024-09-19T15:34:57Z</time>
      </trkpt>
      <trkpt lat="44.93087" lon="5.29969">
        <ele>1324.35</ele>
        <time>2024-09-19T15:35:04Z</time>
      </trkpt>
      <trkpt lat="44.93085" lon="5.2997">
        <ele>1324.35</ele>
        <time>2024-09-19T15:35:05Z</time>
      </trkpt>
      <trkpt lat="44.93084" lon="5.29972">
        <ele>1324.35</ele>
        <time>2024-09-19T15:35:06Z</time>
      </trkpt>
      <trkpt lat="44.93083" lon="5.29975">
        <ele>1323.87</ele>
        <time>2024-09-19T15:35:07Z</time>
      </trkpt>
      <trkpt lat="44.93082" lon="5.29977">
        <ele>1323.39</ele>
        <time>2024-09-19T15:35:08Z</time>
      </trkpt>
      <trkpt lat="44.9308" lon="5.2998">
        <ele>1322.91</ele>
        <time>2024-09-19T15:35:09Z</time>
      </trkpt>
      <trkpt lat="44.93079" lon="5.29982">
        <ele>1322.43</ele>
        <time>2024-09-19T15:35:10Z</time>
      </trkpt>
      <trkpt lat="44.93078" lon="5.29984">
        <ele>1321.47</ele>
        <time>2024-09-19T15:35:11Z</time>
      </trkpt>
      <trkpt lat="44.93077" lon="5.29987">
        <ele>1320.99</ele>
        <time>2024-09-19T15:35:12Z</time>
      </trkpt>
      <trkpt lat="44.93074" lon="5.29989">
        <ele>1320.51</ele>
        <time>2024-09-19T15:35:13Z</time>
      </trkpt>
      <trkpt lat="44.93072" lon="5.29991">
        <ele>1320.51</ele>
        <time>2024-09-19T15:35:14Z</time>
      </trkpt>
      <trkpt lat="44.93057" lon="5.30006">
        <ele>1317.62</ele>
        <time>2024-09-19T15:35:26Z</time>
      </trkpt>
      <trkpt lat="44.93054" lon="5.30015">
        <ele>1315.22</ele>
        <time>2024-09-19T15:35:32Z</time>
      </trkpt>
      <trkpt lat="44.93053" lon="5.30017">
        <ele>1315.22</ele>
        <time>2024-09-19T15:35:33Z</time>
      </trkpt>
      <trkpt lat="44.93051" lon="5.3002">
        <ele>1315.22</ele>
        <time>2024-09-19T15:35:34Z</time>
      </trkpt>
      <trkpt lat="44.9305" lon="5.30022">
        <ele>1315.22</ele>
        <time>2024-09-19T15:35:35Z</time>
      </trkpt>
      <trkpt lat="44.93048" lon="5.30023">
        <ele>1315.22</ele>
        <time>2024-09-19T15:35:36Z</time>
      </trkpt>
      <trkpt lat="44.93034" lon="5.3004">
        <ele>1318.59</ele>
        <time>2024-09-19T15:35:49Z</time>
      </trkpt>
      <trkpt lat="44.93007" lon="5.3006">
        <ele>1320.51</ele>
        <time>2024-09-19T15:36:02Z</time>
      </trkpt>
      <trkpt lat="44.92975" lon="5.30078">
        <ele>1319.07</ele>
        <time>2024-09-19T15:36:17Z</time>
      </trkpt>
      <trkpt lat="44.9294" lon="5.30094">
        <ele>1314.26</ele>
        <time>2024-09-19T15:36:32Z</time>
      </trkpt>
      <trkpt lat="44.92922" lon="5.30114">
        <ele>1310.41</ele>
        <time>2024-09-19T15:36:46Z</time>
      </trkpt>
      <trkpt lat="44.92921" lon="5.3015">
        <ele>1307.05</ele>
        <time>2024-09-19T15:37:01Z</time>
      </trkpt>
      <trkpt lat="44.92929" lon="5.30182">
        <ele>1302.24</ele>
        <time>2024-09-19T15:37:13Z</time>
      </trkpt>
      <trkpt lat="44.92931" lon="5.30188">
        <ele>1300.32</ele>
        <time>2024-09-19T15:37:17Z</time>
      </trkpt>
      <trkpt lat="44.92938" lon="5.30212">
        <ele>1299.36</ele>
        <time>2024-09-19T15:37:29Z</time>
      </trkpt>
      <trkpt lat="44.92947" lon="5.30225">
        <ele>1299.36</ele>
        <time>2024-09-19T15:37:42Z</time>
      </trkpt>
      <trkpt lat="44.92948" lon="5.30227">
        <ele>1299.36</ele>
        <time>2024-09-19T15:37:43Z</time>
      </trkpt>
      <trkpt lat="44.9296" lon="5.30248">
        <ele>1299.36</ele>
        <time>2024-09-19T15:37:59Z</time>
      </trkpt>
      <trkpt lat="44.92984" lon="5.30274">
        <ele>1299.36</ele>
        <time>2024-09-19T15:38:18Z</time>
      </trkpt>
      <trkpt lat="44.93005" lon="5.30304">
        <ele>1296.48</ele>
        <time>2024-09-19T15:38:36Z</time>
      </trkpt>
      <trkpt lat="44.9301" lon="5.30313">
        <ele>1295.03</ele>
        <time>2024-09-19T15:38:40Z</time>
      </trkpt>
      <trkpt lat="44.93011" lon="5.30316">
        <ele>1294.55</ele>
        <time>2024-09-19T15:38:41Z</time>
      </trkpt>
      <trkpt lat="44.93012" lon="5.30319">
        <ele>1294.07</ele>
        <time>2024-09-19T15:38:42Z</time>
      </trkpt>
      <trkpt lat="44.93025" lon="5.30354">
        <ele>1291.19</ele>
        <time>2024-09-19T15:38:57Z</time>
      </trkpt>
      <trkpt lat="44.93031" lon="5.30387">
        <ele>1288.3</ele>
        <time>2024-09-19T15:39:12Z</time>
      </trkpt>
      <trkpt lat="44.93034" lon="5.30429">
        <ele>1287.34</ele>
        <time>2024-09-19T15:39:29Z</time>
      </trkpt>
      <trkpt lat="44.93036" lon="5.30458">
        <ele>1286.86</ele>
        <time>2024-09-19T15:39:42Z</time>
      </trkpt>
      <trkpt lat="44.93037" lon="5.30461">
        <ele>1286.38</ele>
        <time>2024-09-19T15:39:43Z</time>
      </trkpt>
      <trkpt lat="44.93037" lon="5.30464">
        <ele>1286.38</ele>
        <time>2024-09-19T15:39:44Z</time>
      </trkpt>
      <trkpt lat="44.93037" lon="5.305">
        <ele>1287.34</ele>
        <time>2024-09-19T15:39:59Z</time>
      </trkpt>
      <trkpt lat="44.9304" lon="5.30528">
        <ele>1288.3</ele>
        <time>2024-09-19T15:40:11Z</time>
      </trkpt>
      <trkpt lat="44.93042" lon="5.30539">
        <ele>1288.78</ele>
        <time>2024-09-19T15:40:16Z</time>
      </trkpt>
      <trkpt lat="44.93042" lon="5.30543">
        <ele>1288.78</ele>
        <time>2024-09-19T15:40:17Z</time>
      </trkpt>
      <trkpt lat="44.93042" lon="5.30546">
        <ele>1288.78</ele>
        <time>2024-09-19T15:40:18Z</time>
      </trkpt>
      <trkpt lat="44.93042" lon="5.30548">
        <ele>1288.78</ele>
        <time>2024-09-19T15:40:19Z</time>
      </trkpt>
      <trkpt lat="44.93042" lon="5.3055">
        <ele>1289.27</ele>
        <time>2024-09-19T15:40:20Z</time>
      </trkpt>
      <trkpt lat="44.93043" lon="5.30589">
        <ele>1289.27</ele>
        <time>2024-09-19T15:40:35Z</time>
      </trkpt>
      <trkpt lat="44.93056" lon="5.30628">
        <ele>1288.3</ele>
        <time>2024-09-19T15:40:51Z</time>
      </trkpt>
      <trkpt lat="44.93063" lon="5.30655">
        <ele>1288.3</ele>
        <time>2024-09-19T15:41:03Z</time>
      </trkpt>
      <trkpt lat="44.93064" lon="5.30657">
        <ele>1288.3</ele>
        <time>2024-09-19T15:41:04Z</time>
      </trkpt>
      <trkpt lat="44.93065" lon="5.3066">
        <ele>1288.3</ele>
        <time>2024-09-19T15:41:05Z</time>
      </trkpt>
      <trkpt lat="44.93065" lon="5.30662">
        <ele>1288.3</ele>
        <time>2024-09-19T15:41:06Z</time>
      </trkpt>
      <trkpt lat="44.93066" lon="5.30664">
        <ele>1287.82</ele>
        <time>2024-09-19T15:41:07Z</time>
      </trkpt>
      <trkpt lat="44.9307" lon="5.30683">
        <ele>1287.82</ele>
        <time>2024-09-19T15:41:16Z</time>
      </trkpt>
      <trkpt lat="44.93071" lon="5.30686">
        <ele>1287.82</ele>
        <time>2024-09-19T15:41:18Z</time>
      </trkpt>
      <trkpt lat="44.93076" lon="5.30708">
        <ele>1286.38</ele>
        <time>2024-09-19T15:41:31Z</time>
      </trkpt>
      <trkpt lat="44.93077" lon="5.30711">
        <ele>1285.9</ele>
        <time>2024-09-19T15:41:32Z</time>
      </trkpt>
      <trkpt lat="44.93078" lon="5.30715">
        <ele>1285.9</ele>
        <time>2024-09-19T15:41:33Z</time>
      </trkpt>
      <trkpt lat="44.93081" lon="5.30749">
        <ele>1286.38</ele>
        <time>2024-09-19T15:41:47Z</time>
      </trkpt>
      <trkpt lat="44.9308" lon="5.30785">
        <ele>1285.42</ele>
        <time>2024-09-19T15:42:03Z</time>
      </trkpt>
      <trkpt lat="44.9308" lon="5.30787">
        <ele>1285.42</ele>
        <time>2024-09-19T15:42:04Z</time>
      </trkpt>
      <trkpt lat="44.9308" lon="5.30789">
        <ele>1285.42</ele>
        <time>2024-09-19T15:42:05Z</time>
      </trkpt>
      <trkpt lat="44.9308" lon="5.30791">
        <ele>1285.42</ele>
        <time>2024-09-19T15:42:06Z</time>
      </trkpt>
      <trkpt lat="44.93081" lon="5.30795">
        <ele>1285.42</ele>
        <time>2024-09-19T15:42:08Z</time>
      </trkpt>
      <trkpt lat="44.93081" lon="5.30798">
        <ele>1285.42</ele>
        <time>2024-09-19T15:42:10Z</time>
      </trkpt>
      <trkpt lat="44.9308" lon="5.30809">
        <ele>1284.94</ele>
        <time>2024-09-19T15:42:15Z</time>
      </trkpt>
      <trkpt lat="44.93079" lon="5.3085">
        <ele>1283.98</ele>
        <time>2024-09-19T15:42:30Z</time>
      </trkpt>
      <trkpt lat="44.93077" lon="5.30874">
        <ele>1284.46</ele>
        <time>2024-09-19T15:42:41Z</time>
      </trkpt>
      <trkpt lat="44.93081" lon="5.30895">
        <ele>1285.42</ele>
        <time>2024-09-19T15:42:49Z</time>
      </trkpt>
      <trkpt lat="44.9308" lon="5.30897">
        <ele>1285.42</ele>
        <time>2024-09-19T15:42:50Z</time>
      </trkpt>
      <trkpt lat="44.93079" lon="5.30899">
        <ele>1285.42</ele>
        <time>2024-09-19T15:42:51Z</time>
      </trkpt>
      <trkpt lat="44.93078" lon="5.309">
        <ele>1285.42</ele>
        <time>2024-09-19T15:42:52Z</time>
      </trkpt>
      <trkpt lat="44.93077" lon="5.30902">
        <ele>1285.9</ele>
        <time>2024-09-19T15:42:53Z</time>
      </trkpt>
      <trkpt lat="44.93077" lon="5.30903">
        <ele>1285.9</ele>
        <time>2024-09-19T15:42:54Z</time>
      </trkpt>
      <trkpt lat="44.93077" lon="5.30905">
        <ele>1285.9</ele>
        <time>2024-09-19T15:42:55Z</time>
      </trkpt>
      <trkpt lat="44.93077" lon="5.30907">
        <ele>1286.38</ele>
        <time>2024-09-19T15:42:56Z</time>
      </trkpt>
      <trkpt lat="44.93079" lon="5.3091">
        <ele>1286.86</ele>
        <time>2024-09-19T15:42:58Z</time>
      </trkpt>
      <trkpt lat="44.9308" lon="5.30912">
        <ele>1286.86</ele>
        <time>2024-09-19T15:42:59Z</time>
      </trkpt>
      <trkpt lat="44.9308" lon="5.30915">
        <ele>1287.34</ele>
        <time>2024-09-19T15:43:00Z</time>
      </trkpt>
      <trkpt lat="44.93081" lon="5.30918">
        <ele>1287.34</ele>
        <time>2024-09-19T15:43:01Z</time>
      </trkpt>
      <trkpt lat="44.93082" lon="5.3092">
        <ele>1287.82</ele>
        <time>2024-09-19T15:43:02Z</time>
      </trkpt>
      <trkpt lat="44.93083" lon="5.30923">
        <ele>1287.82</ele>
        <time>2024-09-19T15:43:03Z</time>
      </trkpt>
      <trkpt lat="44.93083" lon="5.30926">
        <ele>1287.82</ele>
        <time>2024-09-19T15:43:04Z</time>
      </trkpt>
      <trkpt lat="44.93084" lon="5.30928">
        <ele>1287.82</ele>
        <time>2024-09-19T15:43:05Z</time>
      </trkpt>
      <trkpt lat="44.93085" lon="5.3093">
        <ele>1287.82</ele>
        <time>2024-09-19T15:43:06Z</time>
      </trkpt>
      <trkpt lat="44.93086" lon="5.30932">
        <ele>1287.82</ele>
        <time>2024-09-19T15:43:07Z</time>
      </trkpt>
      <trkpt lat="44.93092" lon="5.30957">
        <ele>1289.27</ele>
        <time>2024-09-19T15:43:20Z</time>
      </trkpt>
      <trkpt lat="44.93097" lon="5.30983">
        <ele>1292.63</ele>
        <time>2024-09-19T15:43:33Z</time>
      </trkpt>
      <trkpt lat="44.93097" lon="5.30985">
        <ele>1292.63</ele>
        <time>2024-09-19T15:43:34Z</time>
      </trkpt>
      <trkpt lat="44.93102" lon="5.31019">
        <ele>1292.63</ele>
        <time>2024-09-19T15:43:47Z</time>
      </trkpt>
      <trkpt lat="44.93108" lon="5.31046">
        <ele>1293.11</ele>
        <time>2024-09-19T15:44:01Z</time>
      </trkpt>
      <trkpt lat="44.93114" lon="5.31082">
        <ele>1292.15</ele>
        <time>2024-09-19T15:44:14Z</time>
      </trkpt>
      <trkpt lat="44.93119" lon="5.31103">
        <ele>1293.59</ele>
        <time>2024-09-19T15:44:27Z</time>
      </trkpt>
      <trkpt lat="44.9312" lon="5.31109">
        <ele>1295.51</ele>
        <time>2024-09-19T15:44:33Z</time>
      </trkpt>
      <trkpt lat="44.9313" lon="5.3115">
        <ele>1294.55</ele>
        <time>2024-09-19T15:44:46Z</time>
      </trkpt>
      <trkpt lat="44.93136" lon="5.31191">
        <ele>1291.19</ele>
        <time>2024-09-19T15:45:01Z</time>
      </trkpt>
      <trkpt lat="44.93134" lon="5.31218">
        <ele>1290.23</ele>
        <time>2024-09-19T15:45:13Z</time>
      </trkpt>
      <trkpt lat="44.93136" lon="5.31249">
        <ele>1290.23</ele>
        <time>2024-09-19T15:45:26Z</time>
      </trkpt>
      <trkpt lat="44.93137" lon="5.31258">
        <ele>1291.19</ele>
        <time>2024-09-19T15:45:30Z</time>
      </trkpt>
      <trkpt lat="44.93137" lon="5.31259">
        <ele>1291.19</ele>
        <time>2024-09-19T15:45:31Z</time>
      </trkpt>
      <trkpt lat="44.93137" lon="5.31261">
        <ele>1291.67</ele>
        <time>2024-09-19T15:45:32Z</time>
      </trkpt>
      <trkpt lat="44.93138" lon="5.31282">
        <ele>1291.67</ele>
        <time>2024-09-19T15:45:43Z</time>
      </trkpt>
      <trkpt lat="44.93138" lon="5.31284">
        <ele>1291.67</ele>
        <time>2024-09-19T15:45:44Z</time>
      </trkpt>
      <trkpt lat="44.93138" lon="5.31288">
        <ele>1291.67</ele>
        <time>2024-09-19T15:45:45Z</time>
      </trkpt>
      <trkpt lat="44.93138" lon="5.31306">
        <ele>1291.19</ele>
        <time>2024-09-19T15:45:52Z</time>
      </trkpt>
      <trkpt lat="44.93138" lon="5.31307">
        <ele>1291.19</ele>
        <time>2024-09-19T15:45:53Z</time>
      </trkpt>
      <trkpt lat="44.93137" lon="5.3131">
        <ele>1291.67</ele>
        <time>2024-09-19T15:45:54Z</time>
      </trkpt>
      <trkpt lat="44.93137" lon="5.31311">
        <ele>1291.67</ele>
        <time>2024-09-19T15:45:55Z</time>
      </trkpt>
      <trkpt lat="44.93136" lon="5.31313">
        <ele>1291.67</ele>
        <time>2024-09-19T15:45:56Z</time>
      </trkpt>
      <trkpt lat="44.9313" lon="5.31325">
        <ele>1294.07</ele>
        <time>2024-09-19T15:46:03Z</time>
      </trkpt>
      <trkpt lat="44.9313" lon="5.31327">
        <ele>1295.03</ele>
        <time>2024-09-19T15:46:04Z</time>
      </trkpt>
      <trkpt lat="44.93127" lon="5.31332">
        <ele>1295.99</ele>
        <time>2024-09-19T15:46:09Z</time>
      </trkpt>
      <trkpt lat="44.93125" lon="5.31332">
        <ele>1295.99</ele>
        <time>2024-09-19T15:46:10Z</time>
      </trkpt>
      <trkpt lat="44.93124" lon="5.31333">
        <ele>1296.48</ele>
        <time>2024-09-19T15:46:11Z</time>
      </trkpt>
      <trkpt lat="44.93121" lon="5.31334">
        <ele>1295.99</ele>
        <time>2024-09-19T15:46:12Z</time>
      </trkpt>
      <trkpt lat="44.93119" lon="5.31335">
        <ele>1295.99</ele>
        <time>2024-09-19T15:46:13Z</time>
      </trkpt>
      <trkpt lat="44.93117" lon="5.31336">
        <ele>1295.99</ele>
        <time>2024-09-19T15:46:14Z</time>
      </trkpt>
      <trkpt lat="44.93115" lon="5.31338">
        <ele>1295.99</ele>
        <time>2024-09-19T15:46:15Z</time>
      </trkpt>
      <trkpt lat="44.93109" lon="5.31342">
        <ele>1293.59</ele>
        <time>2024-09-19T15:46:32Z</time>
      </trkpt>
      <trkpt lat="44.93107" lon="5.31346">
        <ele>1294.55</ele>
        <time>2024-09-19T15:46:49Z</time>
      </trkpt>
      <trkpt lat="44.9311" lon="5.31346">
        <ele>1296.96</ele>
        <time>2024-09-19T15:47:03Z</time>
      </trkpt>
      <trkpt lat="44.93101" lon="5.31359">
        <ele>1300.32</ele>
        <time>2024-09-19T15:47:13Z</time>
      </trkpt>
      <trkpt lat="44.931" lon="5.3136">
        <ele>1300.8</ele>
        <time>2024-09-19T15:47:14Z</time>
      </trkpt>
      <trkpt lat="44.931" lon="5.31362">
        <ele>1301.28</ele>
        <time>2024-09-19T15:47:15Z</time>
      </trkpt>
      <trkpt lat="44.931" lon="5.31363">
        <ele>1301.28</ele>
        <time>2024-09-19T15:47:16Z</time>
      </trkpt>
      <trkpt lat="44.931" lon="5.31365">
        <ele>1301.28</ele>
        <time>2024-09-19T15:47:17Z</time>
      </trkpt>
      <trkpt lat="44.93102" lon="5.31371">
        <ele>1301.28</ele>
        <time>2024-09-19T15:47:20Z</time>
      </trkpt>
      <trkpt lat="44.93101" lon="5.31373">
        <ele>1301.28</ele>
        <time>2024-09-19T15:47:21Z</time>
      </trkpt>
      <trkpt lat="44.931" lon="5.31378">
        <ele>1301.76</ele>
        <time>2024-09-19T15:47:24Z</time>
      </trkpt>
      <trkpt lat="44.931" lon="5.3138">
        <ele>1301.76</ele>
        <time>2024-09-19T15:47:25Z</time>
      </trkpt>
      <trkpt lat="44.93099" lon="5.31381">
        <ele>1302.24</ele>
        <time>2024-09-19T15:47:26Z</time>
      </trkpt>
      <trkpt lat="44.93099" lon="5.31383">
        <ele>1302.24</ele>
        <time>2024-09-19T15:47:27Z</time>
      </trkpt>
      <trkpt lat="44.93098" lon="5.31385">
        <ele>1302.72</ele>
        <time>2024-09-19T15:47:28Z</time>
      </trkpt>
      <trkpt lat="44.93097" lon="5.31387">
        <ele>1303.2</ele>
        <time>2024-09-19T15:47:29Z</time>
      </trkpt>
      <trkpt lat="44.93096" lon="5.31389">
        <ele>1303.69</ele>
        <time>2024-09-19T15:47:30Z</time>
      </trkpt>
      <trkpt lat="44.93096" lon="5.31392">
        <ele>1303.69</ele>
        <time>2024-09-19T15:47:31Z</time>
      </trkpt>
      <trkpt lat="44.93091" lon="5.31408">
        <ele>1306.57</ele>
        <time>2024-09-19T15:47:38Z</time>
      </trkpt>
      <trkpt lat="44.93086" lon="5.31425">
        <ele>1309.45</ele>
        <time>2024-09-19T15:47:49Z</time>
      </trkpt>
      <trkpt lat="44.93087" lon="5.31427">
        <ele>1309.45</ele>
        <time>2024-09-19T15:47:50Z</time>
      </trkpt>
      <trkpt lat="44.93081" lon="5.31443">
        <ele>1309.45</ele>
        <time>2024-09-19T15:48:02Z</time>
      </trkpt>
      <trkpt lat="44.93078" lon="5.3148">
        <ele>1309.45</ele>
        <time>2024-09-19T15:48:17Z</time>
      </trkpt>
      <trkpt lat="44.93079" lon="5.31514">
        <ele>1308.01</ele>
        <time>2024-09-19T15:48:29Z</time>
      </trkpt>
      <trkpt lat="44.93089" lon="5.31548">
        <ele>1303.69</ele>
        <time>2024-09-19T15:48:45Z</time>
      </trkpt>
      <trkpt lat="44.93097" lon="5.31572">
        <ele>1300.8</ele>
        <time>2024-09-19T15:48:58Z</time>
      </trkpt>
      <trkpt lat="44.93086" lon="5.31594">
        <ele>1299.36</ele>
        <time>2024-09-19T15:49:12Z</time>
      </trkpt>
      <trkpt lat="44.93068" lon="5.31599">
        <ele>1297.92</ele>
        <time>2024-09-19T15:49:25Z</time>
      </trkpt>
      <trkpt lat="44.9304" lon="5.31599">
        <ele>1296.48</ele>
        <time>2024-09-19T15:49:41Z</time>
      </trkpt>
      <trkpt lat="44.93017" lon="5.31598">
        <ele>1295.51</ele>
        <time>2024-09-19T15:49:56Z</time>
      </trkpt>
      <trkpt lat="44.92995" lon="5.31593">
        <ele>1294.07</ele>
        <time>2024-09-19T15:50:12Z</time>
      </trkpt>
      <trkpt lat="44.92977" lon="5.31594">
        <ele>1292.63</ele>
        <time>2024-09-19T15:50:26Z</time>
      </trkpt>
      <trkpt lat="44.92943" lon="5.31612">
        <ele>1295.03</ele>
        <time>2024-09-19T15:50:41Z</time>
      </trkpt>
      <trkpt lat="44.92897" lon="5.31641">
        <ele>1297.44</ele>
        <time>2024-09-19T15:50:58Z</time>
      </trkpt>
      <trkpt lat="44.92854" lon="5.3167">
        <ele>1295.03</ele>
        <time>2024-09-19T15:51:14Z</time>
      </trkpt>
      <trkpt lat="44.928" lon="5.31698">
        <ele>1295.51</ele>
        <time>2024-09-19T15:51:32Z</time>
      </trkpt>
      <trkpt lat="44.92751" lon="5.31728">
        <ele>1295.51</ele>
        <time>2024-09-19T15:51:49Z</time>
      </trkpt>
      <trkpt lat="44.92713" lon="5.31754">
        <ele>1295.51</ele>
        <time>2024-09-19T15:52:03Z</time>
      </trkpt>
      <trkpt lat="44.92666" lon="5.31782">
        <ele>1296.48</ele>
        <time>2024-09-19T15:52:18Z</time>
      </trkpt>
      <trkpt lat="44.92649" lon="5.31801">
        <ele>1296.48</ele>
        <time>2024-09-19T15:52:30Z</time>
      </trkpt>
      <trkpt lat="44.92637" lon="5.31845">
        <ele>1296.96</ele>
        <time>2024-09-19T15:52:44Z</time>
      </trkpt>
      <trkpt lat="44.92622" lon="5.3188">
        <ele>1296.96</ele>
        <time>2024-09-19T15:52:53Z</time>
      </trkpt>
      <trkpt lat="44.92619" lon="5.31885">
        <ele>1296.96</ele>
        <time>2024-09-19T15:52:54Z</time>
      </trkpt>
      <trkpt lat="44.9261" lon="5.31898">
        <ele>1296.96</ele>
        <time>2024-09-19T15:52:57Z</time>
      </trkpt>
      <trkpt lat="44.926" lon="5.31914">
        <ele>1296.48</ele>
        <time>2024-09-19T15:53:00Z</time>
      </trkpt>
      <trkpt lat="44.92597" lon="5.31919">
        <ele>1296.48</ele>
        <time>2024-09-19T15:53:01Z</time>
      </trkpt>
      <trkpt lat="44.92594" lon="5.31924">
        <ele>1296.48</ele>
        <time>2024-09-19T15:53:02Z</time>
      </trkpt>
      <trkpt lat="44.92587" lon="5.31932">
        <ele>1296.48</ele>
        <time>2024-09-19T15:53:04Z</time>
      </trkpt>
      <trkpt lat="44.92543" lon="5.31965">
        <ele>1295.99</ele>
        <time>2024-09-19T15:53:16Z</time>
      </trkpt>
      <trkpt lat="44.92539" lon="5.31969">
        <ele>1295.99</ele>
        <time>2024-09-19T15:53:17Z</time>
      </trkpt>
      <trkpt lat="44.92517" lon="5.3199">
        <ele>1295.99</ele>
        <time>2024-09-19T15:53:22Z</time>
      </trkpt>
      <trkpt lat="44.92493" lon="5.32011">
        <ele>1295.99</ele>
        <time>2024-09-19T15:53:28Z</time>
      </trkpt>
      <trkpt lat="44.92482" lon="5.32019">
        <ele>1295.99</ele>
        <time>2024-09-19T15:53:31Z</time>
      </trkpt>
      <trkpt lat="44.92478" lon="5.32021">
        <ele>1295.99</ele>
        <time>2024-09-19T15:53:32Z</time>
      </trkpt>
      <trkpt lat="44.92426" lon="5.3205">
        <ele>1295.99</ele>
        <time>2024-09-19T15:53:44Z</time>
      </trkpt>
      <trkpt lat="44.92385" lon="5.32062">
        <ele>1296.48</ele>
        <time>2024-09-19T15:53:58Z</time>
      </trkpt>
      <trkpt lat="44.92342" lon="5.32067">
        <ele>1296.48</ele>
        <time>2024-09-19T15:54:11Z</time>
      </trkpt>
      <trkpt lat="44.92299" lon="5.32065">
        <ele>1295.99</ele>
        <time>2024-09-19T15:54:25Z</time>
      </trkpt>
      <trkpt lat="44.92264" lon="5.32063">
        <ele>1297.92</ele>
        <time>2024-09-19T15:54:37Z</time>
      </trkpt>
      <trkpt lat="44.92213" lon="5.32071">
        <ele>1303.2</ele>
        <time>2024-09-19T15:54:54Z</time>
      </trkpt>
      <trkpt lat="44.92164" lon="5.32067">
        <ele>1301.28</ele>
        <time>2024-09-19T15:55:08Z</time>
      </trkpt>
      <trkpt lat="44.92118" lon="5.3205">
        <ele>1303.2</ele>
        <time>2024-09-19T15:55:24Z</time>
      </trkpt>
      <trkpt lat="44.92082" lon="5.32054">
        <ele>1305.13</ele>
        <time>2024-09-19T15:55:36Z</time>
      </trkpt>
      <trkpt lat="44.92049" lon="5.32067">
        <ele>1308.97</ele>
        <time>2024-09-19T15:55:47Z</time>
      </trkpt>
      <trkpt lat="44.92017" lon="5.32072">
        <ele>1312.34</ele>
        <time>2024-09-19T15:56:02Z</time>
      </trkpt>
      <trkpt lat="44.91994" lon="5.32068">
        <ele>1312.34</ele>
        <time>2024-09-19T15:56:15Z</time>
      </trkpt>
      <trkpt lat="44.91989" lon="5.32071">
        <ele>1311.86</ele>
        <time>2024-09-19T15:56:18Z</time>
      </trkpt>
      <trkpt lat="44.91988" lon="5.32073">
        <ele>1311.86</ele>
        <time>2024-09-19T15:56:19Z</time>
      </trkpt>
      <trkpt lat="44.91987" lon="5.32073">
        <ele>1311.86</ele>
        <time>2024-09-19T15:56:20Z</time>
      </trkpt>
      <trkpt lat="44.91985" lon="5.32075">
        <ele>1311.86</ele>
        <time>2024-09-19T15:56:21Z</time>
      </trkpt>
      <trkpt lat="44.91984" lon="5.32077">
        <ele>1311.86</ele>
        <time>2024-09-19T15:56:22Z</time>
      </trkpt>
      <trkpt lat="44.91983" lon="5.3208">
        <ele>1311.86</ele>
        <time>2024-09-19T15:56:23Z</time>
      </trkpt>
      <trkpt lat="44.91982" lon="5.32083">
        <ele>1311.86</ele>
        <time>2024-09-19T15:56:24Z</time>
      </trkpt>
      <trkpt lat="44.91981" lon="5.32085">
        <ele>1311.86</ele>
        <time>2024-09-19T15:56:25Z</time>
      </trkpt>
      <trkpt lat="44.9198" lon="5.32089">
        <ele>1311.86</ele>
        <time>2024-09-19T15:56:27Z</time>
      </trkpt>
      <trkpt lat="44.91972" lon="5.32122">
        <ele>1311.38</ele>
        <time>2024-09-19T15:56:43Z</time>
      </trkpt>
      <trkpt lat="44.91958" lon="5.32139">
        <ele>1311.86</ele>
        <time>2024-09-19T15:56:56Z</time>
      </trkpt>
      <trkpt lat="44.91945" lon="5.32155">
        <ele>1312.82</ele>
        <time>2024-09-19T15:57:08Z</time>
      </trkpt>
      <trkpt lat="44.91943" lon="5.32156">
        <ele>1313.3</ele>
        <time>2024-09-19T15:57:09Z</time>
      </trkpt>
      <trkpt lat="44.91917" lon="5.32175">
        <ele>1314.74</ele>
        <time>2024-09-19T15:57:24Z</time>
      </trkpt>
      <trkpt lat="44.91908" lon="5.32209">
        <ele>1314.74</ele>
        <time>2024-09-19T15:57:39Z</time>
      </trkpt>
      <trkpt lat="44.91899" lon="5.32248">
        <ele>1316.66</ele>
        <time>2024-09-19T15:57:56Z</time>
      </trkpt>
      <trkpt lat="44.91901" lon="5.3228">
        <ele>1316.18</ele>
        <time>2024-09-19T15:58:10Z</time>
      </trkpt>
      <trkpt lat="44.91898" lon="5.32312">
        <ele>1316.66</ele>
        <time>2024-09-19T15:58:23Z</time>
      </trkpt>
      <trkpt lat="44.91888" lon="5.32337">
        <ele>1317.62</ele>
        <time>2024-09-19T15:58:37Z</time>
      </trkpt>
      <trkpt lat="44.91863" lon="5.32343">
        <ele>1319.07</ele>
        <time>2024-09-19T15:58:56Z</time>
      </trkpt>
      <trkpt lat="44.91842" lon="5.32327">
        <ele>1319.07</ele>
        <time>2024-09-19T15:59:08Z</time>
      </trkpt>
      <trkpt lat="44.91829" lon="5.3231">
        <ele>1319.07</ele>
        <time>2024-09-19T15:59:18Z</time>
      </trkpt>
      <trkpt lat="44.91827" lon="5.3231">
        <ele>1319.07</ele>
        <time>2024-09-19T15:59:19Z</time>
      </trkpt>
      <trkpt lat="44.91825" lon="5.3231">
        <ele>1319.07</ele>
        <time>2024-09-19T15:59:20Z</time>
      </trkpt>
      <trkpt lat="44.91798" lon="5.32315">
        <ele>1319.07</ele>
        <time>2024-09-19T15:59:36Z</time>
      </trkpt>
      <trkpt lat="44.91774" lon="5.32322">
        <ele>1319.55</ele>
        <time>2024-09-19T15:59:51Z</time>
      </trkpt>
      <trkpt lat="44.9175" lon="5.32327">
        <ele>1318.59</ele>
        <time>2024-09-19T16:00:05Z</time>
      </trkpt>
      <trkpt lat="44.91724" lon="5.32338">
        <ele>1318.1</ele>
        <time>2024-09-19T16:00:20Z</time>
      </trkpt>
      <trkpt lat="44.91699" lon="5.32354">
        <ele>1319.55</ele>
        <time>2024-09-19T16:00:38Z</time>
      </trkpt>
      <trkpt lat="44.91677" lon="5.32363">
        <ele>1320.51</ele>
        <time>2024-09-19T16:00:53Z</time>
      </trkpt>
      <trkpt lat="44.91654" lon="5.32353">
        <ele>1320.51</ele>
        <time>2024-09-19T16:01:07Z</time>
      </trkpt>
      <trkpt lat="44.91635" lon="5.32343">
        <ele>1320.03</ele>
        <time>2024-09-19T16:01:20Z</time>
      </trkpt>
      <trkpt lat="44.91608" lon="5.32337">
        <ele>1320.99</ele>
        <time>2024-09-19T16:01:37Z</time>
      </trkpt>
      <trkpt lat="44.91587" lon="5.32344">
        <ele>1321.95</ele>
        <time>2024-09-19T16:01:51Z</time>
      </trkpt>
      <trkpt lat="44.91571" lon="5.32376">
        <ele>1323.39</ele>
        <time>2024-09-19T16:02:06Z</time>
      </trkpt>
      <trkpt lat="44.91553" lon="5.32393">
        <ele>1328.2</ele>
        <time>2024-09-19T16:02:22Z</time>
      </trkpt>
      <trkpt lat="44.9153" lon="5.32391">
        <ele>1329.64</ele>
        <time>2024-09-19T16:02:36Z</time>
      </trkpt>
      <trkpt lat="44.9151" lon="5.32401">
        <ele>1329.64</ele>
        <time>2024-09-19T16:02:46Z</time>
      </trkpt>
      <trkpt lat="44.91486" lon="5.32407">
        <ele>1330.6</ele>
        <time>2024-09-19T16:03:01Z</time>
      </trkpt>
      <trkpt lat="44.91461" lon="5.32412">
        <ele>1332.52</ele>
        <time>2024-09-19T16:03:16Z</time>
      </trkpt>
      <trkpt lat="44.91437" lon="5.32416">
        <ele>1333.01</ele>
        <time>2024-09-19T16:03:30Z</time>
      </trkpt>
      <trkpt lat="44.91415" lon="5.32412">
        <ele>1333.49</ele>
        <time>2024-09-19T16:03:45Z</time>
      </trkpt>
      <trkpt lat="44.91395" lon="5.32402">
        <ele>1333.01</ele>
        <time>2024-09-19T16:03:57Z</time>
      </trkpt>
      <trkpt lat="44.91362" lon="5.32392">
        <ele>1333.01</ele>
        <time>2024-09-19T16:04:04Z</time>
      </trkpt>
      <trkpt lat="44.91358" lon="5.32393">
        <ele>1333.01</ele>
        <time>2024-09-19T16:04:05Z</time>
      </trkpt>
      <trkpt lat="44.91353" lon="5.32394">
        <ele>1333.01</ele>
        <time>2024-09-19T16:04:06Z</time>
      </trkpt>
      <trkpt lat="44.91349" lon="5.32395">
        <ele>1333.01</ele>
        <time>2024-09-19T16:04:07Z</time>
      </trkpt>
      <trkpt lat="44.91345" lon="5.32396">
        <ele>1333.01</ele>
        <time>2024-09-19T16:04:08Z</time>
      </trkpt>
      <trkpt lat="44.91336" lon="5.32398">
        <ele>1333.49</ele>
        <time>2024-09-19T16:04:10Z</time>
      </trkpt>
      <trkpt lat="44.91332" lon="5.324">
        <ele>1333.97</ele>
        <time>2024-09-19T16:04:11Z</time>
      </trkpt>
      <trkpt lat="44.91328" lon="5.32401">
        <ele>1334.45</ele>
        <time>2024-09-19T16:04:12Z</time>
      </trkpt>
      <trkpt lat="44.91324" lon="5.32404">
        <ele>1334.93</ele>
        <time>2024-09-19T16:04:13Z</time>
      </trkpt>
      <trkpt lat="44.91321" lon="5.32407">
        <ele>1334.93</ele>
        <time>2024-09-19T16:04:14Z</time>
      </trkpt>
      <trkpt lat="44.91312" lon="5.32418">
        <ele>1335.89</ele>
        <time>2024-09-19T16:04:17Z</time>
      </trkpt>
      <trkpt lat="44.91304" lon="5.32425">
        <ele>1336.37</ele>
        <time>2024-09-19T16:04:19Z</time>
      </trkpt>
      <trkpt lat="44.91301" lon="5.32429">
        <ele>1336.85</ele>
        <time>2024-09-19T16:04:20Z</time>
      </trkpt>
      <trkpt lat="44.91296" lon="5.32433">
        <ele>1337.33</ele>
        <time>2024-09-19T16:04:21Z</time>
      </trkpt>
      <trkpt lat="44.91273" lon="5.32447">
        <ele>1339.25</ele>
        <time>2024-09-19T16:04:27Z</time>
      </trkpt>
      <trkpt lat="44.91216" lon="5.32453">
        <ele>1341.18</ele>
        <time>2024-09-19T16:04:39Z</time>
      </trkpt>
      <trkpt lat="44.91192" lon="5.32454">
        <ele>1341.66</ele>
        <time>2024-09-19T16:04:45Z</time>
      </trkpt>
      <trkpt lat="44.91148" lon="5.32454">
        <ele>1345.02</ele>
        <time>2024-09-19T16:04:54Z</time>
      </trkpt>
      <trkpt lat="44.91144" lon="5.32454">
        <ele>1345.5</ele>
        <time>2024-09-19T16:04:55Z</time>
      </trkpt>
      <trkpt lat="44.9114" lon="5.32454">
        <ele>1345.98</ele>
        <time>2024-09-19T16:04:56Z</time>
      </trkpt>
      <trkpt lat="44.91122" lon="5.32452">
        <ele>1347.43</ele>
        <time>2024-09-19T16:05:00Z</time>
      </trkpt>
      <trkpt lat="44.91118" lon="5.32452">
        <ele>1347.43</ele>
        <time>2024-09-19T16:05:01Z</time>
      </trkpt>
      <trkpt lat="44.91114" lon="5.32452">
        <ele>1347.91</ele>
        <time>2024-09-19T16:05:02Z</time>
      </trkpt>
      <trkpt lat="44.9111" lon="5.32452">
        <ele>1348.39</ele>
        <time>2024-09-19T16:05:03Z</time>
      </trkpt>
      <trkpt lat="44.91106" lon="5.32452">
        <ele>1348.87</ele>
        <time>2024-09-19T16:05:04Z</time>
      </trkpt>
      <trkpt lat="44.91103" lon="5.32453">
        <ele>1348.87</ele>
        <time>2024-09-19T16:05:05Z</time>
      </trkpt>
      <trkpt lat="44.91053" lon="5.32454">
        <ele>1352.71</ele>
        <time>2024-09-19T16:05:16Z</time>
      </trkpt>
      <trkpt lat="44.91041" lon="5.32459">
        <ele>1353.19</ele>
        <time>2024-09-19T16:05:19Z</time>
      </trkpt>
      <trkpt lat="44.91019" lon="5.32467">
        <ele>1357.04</ele>
        <time>2024-09-19T16:05:29Z</time>
      </trkpt>
      <trkpt lat="44.90992" lon="5.32488">
        <ele>1359.44</ele>
        <time>2024-09-19T16:05:36Z</time>
      </trkpt>
      <trkpt lat="44.90988" lon="5.32493">
        <ele>1359.44</ele>
        <time>2024-09-19T16:05:37Z</time>
      </trkpt>
      <trkpt lat="44.90978" lon="5.32509">
        <ele>1361.84</ele>
        <time>2024-09-19T16:05:40Z</time>
      </trkpt>
      <trkpt lat="44.90976" lon="5.32514">
        <ele>1362.81</ele>
        <time>2024-09-19T16:05:41Z</time>
      </trkpt>
      <trkpt lat="44.90966" lon="5.32539">
        <ele>1366.17</ele>
        <time>2024-09-19T16:05:52Z</time>
      </trkpt>
      <trkpt lat="44.90948" lon="5.32564">
        <ele>1369.54</ele>
        <time>2024-09-19T16:06:05Z</time>
      </trkpt>
      <trkpt lat="44.90935" lon="5.32587">
        <ele>1370.98</ele>
        <time>2024-09-19T16:06:18Z</time>
      </trkpt>
      <trkpt lat="44.90922" lon="5.32619">
        <ele>1373.38</ele>
        <time>2024-09-19T16:06:34Z</time>
      </trkpt>
      <trkpt lat="44.90895" lon="5.32654">
        <ele>1374.82</ele>
        <time>2024-09-19T16:06:54Z</time>
      </trkpt>
      <trkpt lat="44.90874" lon="5.32678">
        <ele>1376.26</ele>
        <time>2024-09-19T16:07:08Z</time>
      </trkpt>
      <trkpt lat="44.90858" lon="5.32704">
        <ele>1379.15</ele>
        <time>2024-09-19T16:07:25Z</time>
      </trkpt>
      <trkpt lat="44.90852" lon="5.32736">
        <ele>1380.11</ele>
        <time>2024-09-19T16:07:38Z</time>
      </trkpt>
      <trkpt lat="44.90848" lon="5.32744">
        <ele>1380.59</ele>
        <time>2024-09-19T16:07:43Z</time>
      </trkpt>
      <trkpt lat="44.90846" lon="5.32772">
        <ele>1380.11</ele>
        <time>2024-09-19T16:07:57Z</time>
      </trkpt>
      <trkpt lat="44.90847" lon="5.32782">
        <ele>1380.59</ele>
        <time>2024-09-19T16:08:09Z</time>
      </trkpt>
      <trkpt lat="44.90829" lon="5.32827">
        <ele>1381.55</ele>
        <time>2024-09-19T16:08:20Z</time>
      </trkpt>
      <trkpt lat="44.90816" lon="5.32849">
        <ele>1382.99</ele>
        <time>2024-09-19T16:08:25Z</time>
      </trkpt>
      <trkpt lat="44.90802" lon="5.32888">
        <ele>1384.44</ele>
        <time>2024-09-19T16:08:32Z</time>
      </trkpt>
      <trkpt lat="44.90788" lon="5.32929">
        <ele>1389.24</ele>
        <time>2024-09-19T16:08:41Z</time>
      </trkpt>
      <trkpt lat="44.90789" lon="5.32932">
        <ele>1390.68</ele>
        <time>2024-09-19T16:08:43Z</time>
      </trkpt>
      <trkpt lat="44.90781" lon="5.32968">
        <ele>1395.49</ele>
        <time>2024-09-19T16:08:57Z</time>
      </trkpt>
      <trkpt lat="44.90765" lon="5.32991">
        <ele>1396.45</ele>
        <time>2024-09-19T16:09:11Z</time>
      </trkpt>
      <trkpt lat="44.90759" lon="5.33012">
        <ele>1397.41</ele>
        <time>2024-09-19T16:09:24Z</time>
      </trkpt>
      <trkpt lat="44.90758" lon="5.33024">
        <ele>1397.41</ele>
        <time>2024-09-19T16:09:30Z</time>
      </trkpt>
      <trkpt lat="44.90757" lon="5.33041">
        <ele>1395.97</ele>
        <time>2024-09-19T16:09:37Z</time>
      </trkpt>
      <trkpt lat="44.90749" lon="5.33077">
        <ele>1393.57</ele>
        <time>2024-09-19T16:09:50Z</time>
      </trkpt>
      <trkpt lat="44.90741" lon="5.33112">
        <ele>1394.53</ele>
        <time>2024-09-19T16:10:05Z</time>
      </trkpt>
      <trkpt lat="44.90739" lon="5.33121">
        <ele>1395.01</ele>
        <time>2024-09-19T16:10:10Z</time>
      </trkpt>
      <trkpt lat="44.90739" lon="5.33145">
        <ele>1399.34</ele>
        <time>2024-09-19T16:10:25Z</time>
      </trkpt>
      <trkpt lat="44.90741" lon="5.33149">
        <ele>1399.82</ele>
        <time>2024-09-19T16:10:27Z</time>
      </trkpt>
      <trkpt lat="44.9075" lon="5.33173">
        <ele>1403.66</ele>
        <time>2024-09-19T16:10:40Z</time>
      </trkpt>
      <trkpt lat="44.90751" lon="5.33174">
        <ele>1404.14</ele>
        <time>2024-09-19T16:10:41Z</time>
      </trkpt>
      <trkpt lat="44.90752" lon="5.3318">
        <ele>1405.1</ele>
        <time>2024-09-19T16:10:44Z</time>
      </trkpt>
      <trkpt lat="44.90752" lon="5.33181">
        <ele>1405.1</ele>
        <time>2024-09-19T16:10:45Z</time>
      </trkpt>
      <trkpt lat="44.90759" lon="5.33208">
        <ele>1407.51</ele>
        <time>2024-09-19T16:10:57Z</time>
      </trkpt>
      <trkpt lat="44.90763" lon="5.33246">
        <ele>1411.35</ele>
        <time>2024-09-19T16:11:12Z</time>
      </trkpt>
      <trkpt lat="44.90762" lon="5.33271">
        <ele>1412.31</ele>
        <time>2024-09-19T16:11:24Z</time>
      </trkpt>
      <trkpt lat="44.9076" lon="5.33304">
        <ele>1413.28</ele>
        <time>2024-09-19T16:11:35Z</time>
      </trkpt>
      <trkpt lat="44.9075" lon="5.33333">
        <ele>1414.24</ele>
        <time>2024-09-19T16:11:51Z</time>
      </trkpt>
      <trkpt lat="44.90732" lon="5.33347">
        <ele>1415.2</ele>
        <time>2024-09-19T16:12:03Z</time>
      </trkpt>
      <trkpt lat="44.9072" lon="5.33354">
        <ele>1416.16</ele>
        <time>2024-09-19T16:12:13Z</time>
      </trkpt>
      <trkpt lat="44.90716" lon="5.33358">
        <ele>1416.64</ele>
        <time>2024-09-19T16:12:18Z</time>
      </trkpt>
      <trkpt lat="44.90714" lon="5.3336">
        <ele>1417.12</ele>
        <time>2024-09-19T16:12:20Z</time>
      </trkpt>
      <trkpt lat="44.90713" lon="5.33362">
        <ele>1417.12</ele>
        <time>2024-09-19T16:12:21Z</time>
      </trkpt>
      <trkpt lat="44.90707" lon="5.33374">
        <ele>1419.04</ele>
        <time>2024-09-19T16:12:29Z</time>
      </trkpt>
      <trkpt lat="44.90702" lon="5.33398">
        <ele>1420</ele>
        <time>2024-09-19T16:12:40Z</time>
      </trkpt>
      <trkpt lat="44.90702" lon="5.33401">
        <ele>1420.49</ele>
        <time>2024-09-19T16:12:41Z</time>
      </trkpt>
      <trkpt lat="44.90703" lon="5.33403">
        <ele>1420.49</ele>
        <time>2024-09-19T16:12:42Z</time>
      </trkpt>
      <trkpt lat="44.90703" lon="5.33405">
        <ele>1420.49</ele>
        <time>2024-09-19T16:12:43Z</time>
      </trkpt>
      <trkpt lat="44.90703" lon="5.33407">
        <ele>1420.97</ele>
        <time>2024-09-19T16:12:44Z</time>
      </trkpt>
      <trkpt lat="44.90704" lon="5.33409">
        <ele>1420.97</ele>
        <time>2024-09-19T16:12:45Z</time>
      </trkpt>
      <trkpt lat="44.90695" lon="5.33435">
        <ele>1424.33</ele>
        <time>2024-09-19T16:12:59Z</time>
      </trkpt>
      <trkpt lat="44.90674" lon="5.33449">
        <ele>1425.77</ele>
        <time>2024-09-19T16:13:10Z</time>
      </trkpt>
      <trkpt lat="44.90655" lon="5.33455">
        <ele>1432.02</ele>
        <time>2024-09-19T16:13:26Z</time>
      </trkpt>
      <trkpt lat="44.90633" lon="5.33457">
        <ele>1436.35</ele>
        <time>2024-09-19T16:13:37Z</time>
      </trkpt>
      <trkpt lat="44.90622" lon="5.33468">
        <ele>1437.31</ele>
        <time>2024-09-19T16:13:49Z</time>
      </trkpt>
      <trkpt lat="44.90623" lon="5.33469">
        <ele>1436.83</ele>
        <time>2024-09-19T16:13:50Z</time>
      </trkpt>
      <trkpt lat="44.90624" lon="5.33474">
        <ele>1435.87</ele>
        <time>2024-09-19T16:13:55Z</time>
      </trkpt>
      <trkpt lat="44.9063" lon="5.33484">
        <ele>1435.87</ele>
        <time>2024-09-19T16:14:04Z</time>
      </trkpt>
      <trkpt lat="44.90635" lon="5.33482">
        <ele>1442.6</ele>
        <time>2024-09-19T16:14:20Z</time>
      </trkpt>
      <trkpt lat="44.9064" lon="5.3348">
        <ele>1444.04</ele>
        <time>2024-09-19T16:14:40Z</time>
      </trkpt>
      <trkpt lat="44.90642" lon="5.33482">
        <ele>1441.15</ele>
        <time>2024-09-19T16:14:52Z</time>
      </trkpt>
      <trkpt lat="44.90643" lon="5.33482">
        <ele>1440.19</ele>
        <time>2024-09-19T16:14:56Z</time>
      </trkpt>
      <trkpt lat="44.90641" lon="5.33482">
        <ele>1446.44</ele>
        <time>2024-09-19T16:15:11Z</time>
        <extensions>
          <visugpx:TrkExtension xmlns:visugpx="https://www.visugpx.com/editgpx/">
            <visugpx:node>1</visugpx:node>
            </visugpx:TrkExtension>
        </extensions>
      </trkpt>
    </trkseg>
  </trk>
</gpx>